<?xml version="1.0" encoding="UTF-8" standalone="no" ?>
<gpx xmlns="http://www.topografix.com/GPX/1/1" xmlns:xsi="http://www.w3.org/2001/XMLSchema-instance" xsi:schemaLocation="http://www.topografix.com/GPX/1/1 http://www.topografix.com/GPX/1/1/gpx.xsd" version="1.1" creator="VisuGPX - https://www.visugpx.com">
  <metadata>
    <name>Tour du Lac de Serre Ponçon</name>
    <desc><![CDATA[Mika et Christoufle]]></desc>
  </metadata>
  <trk>
    <name><![CDATA[Tour du lac de Serre Ponçon]]></name>
    <trkseg>
      <trkpt lat="44.55462" lon="6.2468">
        <ele>860.51733398438</ele>
        <time>2013-08-25T06:27:58Z</time>
      </trkpt>
      <trkpt lat="44.55462" lon="6.2468">
        <ele>860.51733398438</ele>
        <time>2013-08-25T06:28:00Z</time>
      </trkpt>
      <trkpt lat="44.55462" lon="6.2468">
        <ele>860.03662109375</ele>
        <time>2013-08-25T06:28:01Z</time>
      </trkpt>
      <trkpt lat="44.55462" lon="6.2468">
        <ele>867.72705078125</ele>
        <time>2013-08-25T06:28:07Z</time>
      </trkpt>
      <trkpt lat="44.55462" lon="6.2468">
        <ele>862.43994140625</ele>
        <time>2013-08-25T06:28:08Z</time>
      </trkpt>
      <trkpt lat="44.55462" lon="6.24681">
        <ele>859.55590820312</ele>
        <time>2013-08-25T06:28:11Z</time>
      </trkpt>
      <trkpt lat="44.55459" lon="6.24679">
        <ele>859.55590820312</ele>
        <time>2013-08-25T06:29:16Z</time>
      </trkpt>
      <trkpt lat="44.55457" lon="6.24681">
        <ele>860.03662109375</ele>
        <time>2013-08-25T06:29:45Z</time>
      </trkpt>
      <trkpt lat="44.55456" lon="6.24684">
        <ele>860.03662109375</ele>
        <time>2013-08-25T06:29:55Z</time>
      </trkpt>
      <trkpt lat="44.5545" lon="6.2471">
        <ele>861.47875976562</ele>
        <time>2013-08-25T06:30:07Z</time>
      </trkpt>
      <trkpt lat="44.5544" lon="6.2476">
        <ele>861.95947265625</ele>
        <time>2013-08-25T06:30:22Z</time>
      </trkpt>
      <trkpt lat="44.55427" lon="6.24814">
        <ele>863.4013671875</ele>
        <time>2013-08-25T06:30:36Z</time>
      </trkpt>
      <trkpt lat="44.55419" lon="6.24843">
        <ele>863.4013671875</ele>
        <time>2013-08-25T06:30:47Z</time>
      </trkpt>
      <trkpt lat="44.55417" lon="6.24845">
        <ele>863.4013671875</ele>
        <time>2013-08-25T06:31:06Z</time>
      </trkpt>
      <trkpt lat="44.55418" lon="6.24845">
        <ele>863.8818359375</ele>
        <time>2013-08-25T06:32:31Z</time>
      </trkpt>
      <trkpt lat="44.55417" lon="6.24847">
        <ele>863.8818359375</ele>
        <time>2013-08-25T06:32:37Z</time>
      </trkpt>
      <trkpt lat="44.55417" lon="6.24864">
        <ele>864.36254882812</ele>
        <time>2013-08-25T06:32:46Z</time>
      </trkpt>
      <trkpt lat="44.55401" lon="6.24885">
        <ele>864.36254882812</ele>
        <time>2013-08-25T06:32:54Z</time>
      </trkpt>
      <trkpt lat="44.55344" lon="6.24863">
        <ele>860.51733398438</ele>
        <time>2013-08-25T06:33:04Z</time>
      </trkpt>
      <trkpt lat="44.55337" lon="6.2486">
        <ele>859.55590820312</ele>
        <time>2013-08-25T06:33:05Z</time>
      </trkpt>
      <trkpt lat="44.55322" lon="6.24861">
        <ele>858.59448242188</ele>
        <time>2013-08-25T06:33:07Z</time>
      </trkpt>
      <trkpt lat="44.5531" lon="6.24875">
        <ele>858.11401367188</ele>
        <time>2013-08-25T06:33:09Z</time>
      </trkpt>
      <trkpt lat="44.55265" lon="6.24984">
        <ele>858.59448242188</ele>
        <time>2013-08-25T06:33:24Z</time>
      </trkpt>
      <trkpt lat="44.55223" lon="6.25004">
        <ele>855.71069335938</ele>
        <time>2013-08-25T06:33:33Z</time>
      </trkpt>
      <trkpt lat="44.55214" lon="6.24998">
        <ele>854.74926757812</ele>
        <time>2013-08-25T06:33:35Z</time>
      </trkpt>
      <trkpt lat="44.55207" lon="6.24992">
        <ele>853.7880859375</ele>
        <time>2013-08-25T06:33:38Z</time>
      </trkpt>
      <trkpt lat="44.55185" lon="6.24998">
        <ele>852.82666015625</ele>
        <time>2013-08-25T06:33:45Z</time>
      </trkpt>
      <trkpt lat="44.55177" lon="6.2501">
        <ele>853.7880859375</ele>
        <time>2013-08-25T06:33:48Z</time>
      </trkpt>
      <trkpt lat="44.55169" lon="6.25121">
        <ele>856.19116210938</ele>
        <time>2013-08-25T06:34:05Z</time>
      </trkpt>
      <trkpt lat="44.55161" lon="6.25256">
        <ele>858.59448242188</ele>
        <time>2013-08-25T06:34:23Z</time>
      </trkpt>
      <trkpt lat="44.55152" lon="6.25433">
        <ele>859.55590820312</ele>
        <time>2013-08-25T06:34:45Z</time>
      </trkpt>
      <trkpt lat="44.55143" lon="6.25608">
        <ele>860.51733398438</ele>
        <time>2013-08-25T06:35:05Z</time>
      </trkpt>
      <trkpt lat="44.55132" lon="6.25778">
        <ele>860.03662109375</ele>
        <time>2013-08-25T06:35:24Z</time>
      </trkpt>
      <trkpt lat="44.5509" lon="6.25933">
        <ele>859.55590820312</ele>
        <time>2013-08-25T06:35:41Z</time>
      </trkpt>
      <trkpt lat="44.55024" lon="6.26125">
        <ele>857.15258789062</ele>
        <time>2013-08-25T06:36:01Z</time>
      </trkpt>
      <trkpt lat="44.54946" lon="6.26351">
        <ele>855.71069335938</ele>
        <time>2013-08-25T06:36:24Z</time>
      </trkpt>
      <trkpt lat="44.54874" lon="6.26561">
        <ele>856.19116210938</ele>
        <time>2013-08-25T06:36:47Z</time>
      </trkpt>
      <trkpt lat="44.54796" lon="6.26792">
        <ele>857.15258789062</ele>
        <time>2013-08-25T06:37:14Z</time>
      </trkpt>
      <trkpt lat="44.54739" lon="6.26962">
        <ele>859.0751953125</ele>
        <time>2013-08-25T06:37:36Z</time>
      </trkpt>
      <trkpt lat="44.54687" lon="6.27097">
        <ele>860.998046875</ele>
        <time>2013-08-25T06:37:55Z</time>
      </trkpt>
      <trkpt lat="44.54598" lon="6.27263">
        <ele>862.92065429688</ele>
        <time>2013-08-25T06:38:21Z</time>
      </trkpt>
      <trkpt lat="44.54511" lon="6.2738">
        <ele>863.8818359375</ele>
        <time>2013-08-25T06:38:41Z</time>
      </trkpt>
      <trkpt lat="44.54391" lon="6.27478">
        <ele>862.43994140625</ele>
        <time>2013-08-25T06:39:02Z</time>
      </trkpt>
      <trkpt lat="44.5428" lon="6.27562">
        <ele>859.0751953125</ele>
        <time>2013-08-25T06:39:18Z</time>
      </trkpt>
      <trkpt lat="44.54179" lon="6.27696">
        <ele>856.19116210938</ele>
        <time>2013-08-25T06:39:33Z</time>
      </trkpt>
      <trkpt lat="44.54127" lon="6.27842">
        <ele>856.671875</ele>
        <time>2013-08-25T06:39:46Z</time>
      </trkpt>
      <trkpt lat="44.54109" lon="6.2798">
        <ele>859.0751953125</ele>
        <time>2013-08-25T06:40:00Z</time>
      </trkpt>
      <trkpt lat="44.5411" lon="6.28071">
        <ele>862.43994140625</ele>
        <time>2013-08-25T06:40:12Z</time>
      </trkpt>
      <trkpt lat="44.54116" lon="6.28136">
        <ele>865.32397460938</ele>
        <time>2013-08-25T06:40:22Z</time>
      </trkpt>
      <trkpt lat="44.54123" lon="6.28198">
        <ele>867.72705078125</ele>
        <time>2013-08-25T06:40:32Z</time>
      </trkpt>
      <trkpt lat="44.54133" lon="6.2828">
        <ele>871.091796875</ele>
        <time>2013-08-25T06:40:45Z</time>
      </trkpt>
      <trkpt lat="44.54135" lon="6.28324">
        <ele>872.53369140625</ele>
        <time>2013-08-25T06:40:52Z</time>
      </trkpt>
      <trkpt lat="44.54135" lon="6.28409">
        <ele>875.41748046875</ele>
        <time>2013-08-25T06:41:07Z</time>
      </trkpt>
      <trkpt lat="44.54128" lon="6.28431">
        <ele>875.41748046875</ele>
        <time>2013-08-25T06:41:11Z</time>
      </trkpt>
      <trkpt lat="44.54105" lon="6.28554">
        <ele>878.3017578125</ele>
        <time>2013-08-25T06:41:31Z</time>
      </trkpt>
      <trkpt lat="44.54069" lon="6.28659">
        <ele>881.66625976562</ele>
        <time>2013-08-25T06:41:49Z</time>
      </trkpt>
      <trkpt lat="44.53991" lon="6.28803">
        <ele>884.55029296875</ele>
        <time>2013-08-25T06:42:12Z</time>
      </trkpt>
      <trkpt lat="44.53905" lon="6.28967">
        <ele>886.47290039062</ele>
        <time>2013-08-25T06:42:39Z</time>
      </trkpt>
      <trkpt lat="44.53866" lon="6.29091">
        <ele>885.51147460938</ele>
        <time>2013-08-25T06:42:54Z</time>
      </trkpt>
      <trkpt lat="44.53846" lon="6.29262">
        <ele>882.62768554688</ele>
        <time>2013-08-25T06:43:08Z</time>
      </trkpt>
      <trkpt lat="44.53831" lon="6.29426">
        <ele>879.74365234375</ele>
        <time>2013-08-25T06:43:20Z</time>
      </trkpt>
      <trkpt lat="44.53818" lon="6.29559">
        <ele>876.37915039062</ele>
        <time>2013-08-25T06:43:30Z</time>
      </trkpt>
      <trkpt lat="44.53774" lon="6.2971">
        <ele>873.4951171875</ele>
        <time>2013-08-25T06:43:42Z</time>
      </trkpt>
      <trkpt lat="44.53688" lon="6.29842">
        <ele>872.53369140625</ele>
        <time>2013-08-25T06:43:55Z</time>
      </trkpt>
      <trkpt lat="44.53558" lon="6.29988">
        <ele>873.01440429688</ele>
        <time>2013-08-25T06:44:15Z</time>
      </trkpt>
      <trkpt lat="44.53486" lon="6.30137">
        <ele>874.93701171875</ele>
        <time>2013-08-25T06:44:32Z</time>
      </trkpt>
      <trkpt lat="44.5341" lon="6.30366">
        <ele>876.37915039062</ele>
        <time>2013-08-25T06:44:57Z</time>
      </trkpt>
      <trkpt lat="44.5333" lon="6.30608">
        <ele>874.93701171875</ele>
        <time>2013-08-25T06:45:21Z</time>
      </trkpt>
      <trkpt lat="44.53284" lon="6.30745">
        <ele>871.572265625</ele>
        <time>2013-08-25T06:45:32Z</time>
      </trkpt>
      <trkpt lat="44.53252" lon="6.3084">
        <ele>868.6884765625</ele>
        <time>2013-08-25T06:45:39Z</time>
      </trkpt>
      <trkpt lat="44.53204" lon="6.30983">
        <ele>865.32397460938</ele>
        <time>2013-08-25T06:45:50Z</time>
      </trkpt>
      <trkpt lat="44.5314" lon="6.31169">
        <ele>866.28515625</ele>
        <time>2013-08-25T06:46:07Z</time>
      </trkpt>
      <trkpt lat="44.53081" lon="6.31345">
        <ele>866.76586914062</ele>
        <time>2013-08-25T06:46:27Z</time>
      </trkpt>
      <trkpt lat="44.53021" lon="6.31519">
        <ele>865.32397460938</ele>
        <time>2013-08-25T06:46:46Z</time>
      </trkpt>
      <trkpt lat="44.52969" lon="6.31674">
        <ele>862.92065429688</ele>
        <time>2013-08-25T06:47:01Z</time>
      </trkpt>
      <trkpt lat="44.52927" lon="6.3182">
        <ele>859.55590820312</ele>
        <time>2013-08-25T06:47:13Z</time>
      </trkpt>
      <trkpt lat="44.52924" lon="6.31951">
        <ele>855.71069335938</ele>
        <time>2013-08-25T06:47:22Z</time>
      </trkpt>
      <trkpt lat="44.52941" lon="6.32045">
        <ele>852.82666015625</ele>
        <time>2013-08-25T06:47:28Z</time>
      </trkpt>
      <trkpt lat="44.52978" lon="6.32135">
        <ele>848.9814453125</ele>
        <time>2013-08-25T06:47:34Z</time>
      </trkpt>
      <trkpt lat="44.52994" lon="6.32163">
        <ele>848.50073242188</ele>
        <time>2013-08-25T06:47:36Z</time>
      </trkpt>
      <trkpt lat="44.53019" lon="6.32205">
        <ele>846.57836914062</ele>
        <time>2013-08-25T06:47:39Z</time>
      </trkpt>
      <trkpt lat="44.53053" lon="6.3226">
        <ele>843.21337890625</ele>
        <time>2013-08-25T06:47:43Z</time>
      </trkpt>
      <trkpt lat="44.53094" lon="6.32328">
        <ele>839.3681640625</ele>
        <time>2013-08-25T06:47:48Z</time>
      </trkpt>
      <trkpt lat="44.53102" lon="6.32341">
        <ele>839.3681640625</ele>
        <time>2013-08-25T06:47:49Z</time>
      </trkpt>
      <trkpt lat="44.53134" lon="6.324">
        <ele>836.00366210938</ele>
        <time>2013-08-25T06:47:53Z</time>
      </trkpt>
      <trkpt lat="44.53158" lon="6.32462">
        <ele>832.63916015625</ele>
        <time>2013-08-25T06:47:57Z</time>
      </trkpt>
      <trkpt lat="44.53175" lon="6.32547">
        <ele>830.23583984375</ele>
        <time>2013-08-25T06:48:02Z</time>
      </trkpt>
      <trkpt lat="44.5317" lon="6.3269">
        <ele>827.83227539062</ele>
        <time>2013-08-25T06:48:11Z</time>
      </trkpt>
      <trkpt lat="44.5312" lon="6.3288">
        <ele>825.90966796875</ele>
        <time>2013-08-25T06:48:25Z</time>
      </trkpt>
      <trkpt lat="44.53023" lon="6.33227">
        <ele>824.94848632812</ele>
        <time>2013-08-25T06:48:53Z</time>
      </trkpt>
      <trkpt lat="44.52938" lon="6.33377">
        <ele>823.98706054688</ele>
        <time>2013-08-25T06:49:08Z</time>
      </trkpt>
      <trkpt lat="44.5281" lon="6.33495">
        <ele>823.98706054688</ele>
        <time>2013-08-25T06:49:25Z</time>
      </trkpt>
      <trkpt lat="44.52691" lon="6.3362">
        <ele>824.4677734375</ele>
        <time>2013-08-25T06:49:44Z</time>
      </trkpt>
      <trkpt lat="44.52617" lon="6.33768">
        <ele>825.42895507812</ele>
        <time>2013-08-25T06:50:02Z</time>
      </trkpt>
      <trkpt lat="44.52517" lon="6.33977">
        <ele>828.31323242188</ele>
        <time>2013-08-25T06:50:25Z</time>
      </trkpt>
      <trkpt lat="44.52418" lon="6.34188">
        <ele>829.2744140625</ele>
        <time>2013-08-25T06:50:47Z</time>
      </trkpt>
      <trkpt lat="44.52369" lon="6.3438">
        <ele>829.75512695312</ele>
        <time>2013-08-25T06:51:06Z</time>
      </trkpt>
      <trkpt lat="44.52372" lon="6.34562">
        <ele>830.23583984375</ele>
        <time>2013-08-25T06:51:22Z</time>
      </trkpt>
      <trkpt lat="44.52418" lon="6.34735">
        <ele>828.7939453125</ele>
        <time>2013-08-25T06:51:38Z</time>
      </trkpt>
      <trkpt lat="44.52491" lon="6.34939">
        <ele>827.83227539062</ele>
        <time>2013-08-25T06:51:56Z</time>
      </trkpt>
      <trkpt lat="44.52525" lon="6.35104">
        <ele>824.4677734375</ele>
        <time>2013-08-25T06:52:08Z</time>
      </trkpt>
      <trkpt lat="44.52558" lon="6.35289">
        <ele>821.58374023438</ele>
        <time>2013-08-25T06:52:21Z</time>
      </trkpt>
      <trkpt lat="44.52574" lon="6.35375">
        <ele>820.14184570312</ele>
        <time>2013-08-25T06:52:27Z</time>
      </trkpt>
      <trkpt lat="44.5259" lon="6.35462">
        <ele>818.69995117188</ele>
        <time>2013-08-25T06:52:33Z</time>
      </trkpt>
      <trkpt lat="44.52647" lon="6.35684">
        <ele>815.33544921875</ele>
        <time>2013-08-25T06:52:49Z</time>
      </trkpt>
      <trkpt lat="44.52736" lon="6.35826">
        <ele>812.93212890625</ele>
        <time>2013-08-25T06:53:02Z</time>
      </trkpt>
      <trkpt lat="44.52752" lon="6.35844">
        <ele>811.970703125</ele>
        <time>2013-08-25T06:53:04Z</time>
      </trkpt>
      <trkpt lat="44.52858" lon="6.35954">
        <ele>809.08666992188</ele>
        <time>2013-08-25T06:53:17Z</time>
      </trkpt>
      <trkpt lat="44.52917" lon="6.36086">
        <ele>807.1640625</ele>
        <time>2013-08-25T06:53:28Z</time>
      </trkpt>
      <trkpt lat="44.52945" lon="6.36276">
        <ele>803.31884765625</ele>
        <time>2013-08-25T06:53:42Z</time>
      </trkpt>
      <trkpt lat="44.52947" lon="6.3629">
        <ele>803.31884765625</ele>
        <time>2013-08-25T06:53:43Z</time>
      </trkpt>
      <trkpt lat="44.52995" lon="6.36664">
        <ele>800.43505859375</ele>
        <time>2013-08-25T06:54:08Z</time>
      </trkpt>
      <trkpt lat="44.53037" lon="6.36965">
        <ele>800.43505859375</ele>
        <time>2013-08-25T06:54:29Z</time>
      </trkpt>
      <trkpt lat="44.53084" lon="6.3728">
        <ele>802.83813476562</ele>
        <time>2013-08-25T06:54:53Z</time>
      </trkpt>
      <trkpt lat="44.5314" lon="6.37413">
        <ele>804.2802734375</ele>
        <time>2013-08-25T06:55:06Z</time>
      </trkpt>
      <trkpt lat="44.53249" lon="6.37533">
        <ele>803.31884765625</ele>
        <time>2013-08-25T06:55:23Z</time>
      </trkpt>
      <trkpt lat="44.53403" lon="6.37685">
        <ele>802.357421875</ele>
        <time>2013-08-25T06:55:46Z</time>
      </trkpt>
      <trkpt lat="44.53488" lon="6.37774">
        <ele>798.99291992188</ele>
        <time>2013-08-25T06:55:58Z</time>
      </trkpt>
      <trkpt lat="44.53495" lon="6.37783">
        <ele>798.99291992188</ele>
        <time>2013-08-25T06:55:59Z</time>
      </trkpt>
      <trkpt lat="44.53544" lon="6.37866">
        <ele>795.62817382812</ele>
        <time>2013-08-25T06:56:07Z</time>
      </trkpt>
      <trkpt lat="44.53578" lon="6.38008">
        <ele>794.18627929688</ele>
        <time>2013-08-25T06:56:18Z</time>
      </trkpt>
      <trkpt lat="44.53572" lon="6.3818">
        <ele>794.18627929688</ele>
        <time>2013-08-25T06:56:32Z</time>
      </trkpt>
      <trkpt lat="44.53566" lon="6.38272">
        <ele>793.22485351562</ele>
        <time>2013-08-25T06:56:40Z</time>
      </trkpt>
      <trkpt lat="44.53553" lon="6.38499">
        <ele>793.70556640625</ele>
        <time>2013-08-25T06:57:00Z</time>
      </trkpt>
      <trkpt lat="44.53553" lon="6.3882">
        <ele>793.22485351562</ele>
        <time>2013-08-25T06:57:27Z</time>
      </trkpt>
      <trkpt lat="44.53537" lon="6.39082">
        <ele>793.70556640625</ele>
        <time>2013-08-25T06:57:50Z</time>
      </trkpt>
      <trkpt lat="44.53472" lon="6.39219">
        <ele>793.70556640625</ele>
        <time>2013-08-25T06:58:05Z</time>
      </trkpt>
      <trkpt lat="44.5335" lon="6.39346">
        <ele>793.22485351562</ele>
        <time>2013-08-25T06:58:23Z</time>
      </trkpt>
      <trkpt lat="44.53172" lon="6.39525">
        <ele>792.263671875</ele>
        <time>2013-08-25T06:58:51Z</time>
      </trkpt>
      <trkpt lat="44.53005" lon="6.39693">
        <ele>793.22485351562</ele>
        <time>2013-08-25T06:59:17Z</time>
      </trkpt>
      <trkpt lat="44.52824" lon="6.39875">
        <ele>793.70556640625</ele>
        <time>2013-08-25T06:59:46Z</time>
      </trkpt>
      <trkpt lat="44.52697" lon="6.40012">
        <ele>793.70556640625</ele>
        <time>2013-08-25T07:00:07Z</time>
      </trkpt>
      <trkpt lat="44.52649" lon="6.40099">
        <ele>796.58984375</ele>
        <time>2013-08-25T07:00:21Z</time>
      </trkpt>
      <trkpt lat="44.52646" lon="6.40104">
        <ele>797.0703125</ele>
        <time>2013-08-25T07:00:22Z</time>
      </trkpt>
      <trkpt lat="44.52632" lon="6.40122">
        <ele>798.51220703125</ele>
        <time>2013-08-25T07:00:27Z</time>
      </trkpt>
      <trkpt lat="44.52588" lon="6.40119">
        <ele>800.43505859375</ele>
        <time>2013-08-25T07:00:40Z</time>
      </trkpt>
      <trkpt lat="44.52547" lon="6.40093">
        <ele>800.43505859375</ele>
        <time>2013-08-25T07:00:51Z</time>
      </trkpt>
      <trkpt lat="44.52535" lon="6.40086">
        <ele>800.91552734375</ele>
        <time>2013-08-25T07:00:54Z</time>
      </trkpt>
      <trkpt lat="44.52449" lon="6.40032">
        <ele>800.43505859375</ele>
        <time>2013-08-25T07:01:13Z</time>
      </trkpt>
      <trkpt lat="44.52356" lon="6.39974">
        <ele>802.357421875</ele>
        <time>2013-08-25T07:01:33Z</time>
      </trkpt>
      <trkpt lat="44.52329" lon="6.3995">
        <ele>802.357421875</ele>
        <time>2013-08-25T07:01:39Z</time>
      </trkpt>
      <trkpt lat="44.52287" lon="6.39862">
        <ele>802.357421875</ele>
        <time>2013-08-25T07:01:54Z</time>
      </trkpt>
      <trkpt lat="44.5226" lon="6.39765">
        <ele>803.31884765625</ele>
        <time>2013-08-25T07:02:09Z</time>
      </trkpt>
      <trkpt lat="44.52264" lon="6.39699">
        <ele>802.83813476562</ele>
        <time>2013-08-25T07:02:18Z</time>
      </trkpt>
      <trkpt lat="44.52285" lon="6.39633">
        <ele>803.31884765625</ele>
        <time>2013-08-25T07:02:28Z</time>
      </trkpt>
      <trkpt lat="44.52293" lon="6.3961">
        <ele>804.2802734375</ele>
        <time>2013-08-25T07:02:31Z</time>
      </trkpt>
      <trkpt lat="44.52284" lon="6.39506">
        <ele>805.24145507812</ele>
        <time>2013-08-25T07:02:44Z</time>
      </trkpt>
      <trkpt lat="44.52279" lon="6.39489">
        <ele>805.24145507812</ele>
        <time>2013-08-25T07:02:46Z</time>
      </trkpt>
      <trkpt lat="44.52259" lon="6.39453">
        <ele>805.24145507812</ele>
        <time>2013-08-25T07:02:52Z</time>
      </trkpt>
      <trkpt lat="44.52237" lon="6.3943">
        <ele>805.24145507812</ele>
        <time>2013-08-25T07:03:02Z</time>
      </trkpt>
      <trkpt lat="44.52237" lon="6.39429">
        <ele>805.24145507812</ele>
        <time>2013-08-25T07:03:17Z</time>
      </trkpt>
      <trkpt lat="44.52242" lon="6.39432">
        <ele>804.7607421875</ele>
        <time>2013-08-25T07:03:34Z</time>
      </trkpt>
      <trkpt lat="44.52242" lon="6.3943">
        <ele>805.24145507812</ele>
        <time>2013-08-25T07:04:04Z</time>
      </trkpt>
      <trkpt lat="44.52242" lon="6.3943">
        <ele>804.7607421875</ele>
        <time>2013-08-25T07:05:01Z</time>
      </trkpt>
      <trkpt lat="44.52244" lon="6.39427">
        <ele>805.72216796875</ele>
        <time>2013-08-25T07:05:28Z</time>
      </trkpt>
      <trkpt lat="44.52244" lon="6.39426">
        <ele>805.72216796875</ele>
        <time>2013-08-25T07:06:05Z</time>
      </trkpt>
      <trkpt lat="44.52245" lon="6.39427">
        <ele>805.72216796875</ele>
        <time>2013-08-25T07:06:50Z</time>
      </trkpt>
      <trkpt lat="44.52244" lon="6.39429">
        <ele>806.20263671875</ele>
        <time>2013-08-25T07:07:14Z</time>
      </trkpt>
      <trkpt lat="44.52244" lon="6.39428">
        <ele>805.72216796875</ele>
        <time>2013-08-25T07:07:31Z</time>
      </trkpt>
      <trkpt lat="44.52238" lon="6.39434">
        <ele>805.24145507812</ele>
        <time>2013-08-25T07:07:50Z</time>
      </trkpt>
      <trkpt lat="44.52237" lon="6.39431">
        <ele>805.72216796875</ele>
        <time>2013-08-25T07:11:37Z</time>
      </trkpt>
      <trkpt lat="44.5224" lon="6.39429">
        <ele>806.20263671875</ele>
        <time>2013-08-25T07:13:42Z</time>
      </trkpt>
      <trkpt lat="44.5224" lon="6.3943">
        <ele>806.68334960938</ele>
        <time>2013-08-25T07:14:13Z</time>
      </trkpt>
      <trkpt lat="44.52204" lon="6.3941">
        <ele>807.64477539062</ele>
        <time>2013-08-25T07:14:25Z</time>
      </trkpt>
      <trkpt lat="44.52189" lon="6.39402">
        <ele>807.64477539062</ele>
        <time>2013-08-25T07:14:28Z</time>
      </trkpt>
      <trkpt lat="44.52166" lon="6.39379">
        <ele>808.12548828125</ele>
        <time>2013-08-25T07:14:33Z</time>
      </trkpt>
      <trkpt lat="44.52117" lon="6.3929">
        <ele>808.60595703125</ele>
        <time>2013-08-25T07:14:46Z</time>
      </trkpt>
      <trkpt lat="44.52099" lon="6.39265">
        <ele>809.08666992188</ele>
        <time>2013-08-25T07:14:50Z</time>
      </trkpt>
      <trkpt lat="44.52077" lon="6.39221">
        <ele>809.08666992188</ele>
        <time>2013-08-25T07:14:56Z</time>
      </trkpt>
      <trkpt lat="44.52044" lon="6.39164">
        <ele>809.5673828125</ele>
        <time>2013-08-25T07:15:04Z</time>
      </trkpt>
      <trkpt lat="44.5203" lon="6.39144">
        <ele>809.5673828125</ele>
        <time>2013-08-25T07:15:07Z</time>
      </trkpt>
      <trkpt lat="44.51953" lon="6.39024">
        <ele>810.0478515625</ele>
        <time>2013-08-25T07:15:25Z</time>
      </trkpt>
      <trkpt lat="44.51934" lon="6.3899">
        <ele>810.52856445312</ele>
        <time>2013-08-25T07:15:30Z</time>
      </trkpt>
      <trkpt lat="44.5191" lon="6.38877">
        <ele>811.00927734375</ele>
        <time>2013-08-25T07:15:44Z</time>
      </trkpt>
      <trkpt lat="44.5191" lon="6.38869">
        <ele>811.00927734375</ele>
        <time>2013-08-25T07:15:45Z</time>
      </trkpt>
      <trkpt lat="44.51919" lon="6.38783">
        <ele>811.48999023438</ele>
        <time>2013-08-25T07:15:56Z</time>
      </trkpt>
      <trkpt lat="44.5193" lon="6.38654">
        <ele>812.45141601562</ele>
        <time>2013-08-25T07:16:12Z</time>
      </trkpt>
      <trkpt lat="44.51913" lon="6.38555">
        <ele>812.93212890625</ele>
        <time>2013-08-25T07:16:25Z</time>
      </trkpt>
      <trkpt lat="44.51906" lon="6.3854">
        <ele>812.93212890625</ele>
        <time>2013-08-25T07:16:27Z</time>
      </trkpt>
      <trkpt lat="44.5183" lon="6.38452">
        <ele>813.41284179688</ele>
        <time>2013-08-25T07:16:44Z</time>
      </trkpt>
      <trkpt lat="44.51791" lon="6.38413">
        <ele>814.3740234375</ele>
        <time>2013-08-25T07:16:52Z</time>
      </trkpt>
      <trkpt lat="44.51723" lon="6.3833">
        <ele>815.33544921875</ele>
        <time>2013-08-25T07:17:07Z</time>
      </trkpt>
      <trkpt lat="44.51707" lon="6.38305">
        <ele>816.29663085938</ele>
        <time>2013-08-25T07:17:11Z</time>
      </trkpt>
      <trkpt lat="44.51675" lon="6.38227">
        <ele>817.25805664062</ele>
        <time>2013-08-25T07:17:22Z</time>
      </trkpt>
      <trkpt lat="44.51664" lon="6.38198">
        <ele>817.73852539062</ele>
        <time>2013-08-25T07:17:26Z</time>
      </trkpt>
      <trkpt lat="44.51654" lon="6.38168">
        <ele>818.21923828125</ele>
        <time>2013-08-25T07:17:30Z</time>
      </trkpt>
      <trkpt lat="44.51645" lon="6.38128">
        <ele>819.1806640625</ele>
        <time>2013-08-25T07:17:35Z</time>
      </trkpt>
      <trkpt lat="44.51641" lon="6.38105">
        <ele>819.66137695312</ele>
        <time>2013-08-25T07:17:38Z</time>
      </trkpt>
      <trkpt lat="44.51626" lon="6.38023">
        <ele>821.10327148438</ele>
        <time>2013-08-25T07:17:48Z</time>
      </trkpt>
      <trkpt lat="44.51617" lon="6.37993">
        <ele>821.10327148438</ele>
        <time>2013-08-25T07:17:52Z</time>
      </trkpt>
      <trkpt lat="44.51604" lon="6.379">
        <ele>823.50659179688</ele>
        <time>2013-08-25T07:18:04Z</time>
      </trkpt>
      <trkpt lat="44.51592" lon="6.37834">
        <ele>825.90966796875</ele>
        <time>2013-08-25T07:18:14Z</time>
      </trkpt>
      <trkpt lat="44.51575" lon="6.37793">
        <ele>828.31323242188</ele>
        <time>2013-08-25T07:18:22Z</time>
      </trkpt>
      <trkpt lat="44.51558" lon="6.37768">
        <ele>830.23583984375</ele>
        <time>2013-08-25T07:18:28Z</time>
      </trkpt>
      <trkpt lat="44.51552" lon="6.3776">
        <ele>831.197265625</ele>
        <time>2013-08-25T07:18:30Z</time>
      </trkpt>
      <trkpt lat="44.5152" lon="6.37718">
        <ele>834.56176757812</ele>
        <time>2013-08-25T07:18:41Z</time>
      </trkpt>
      <trkpt lat="44.51507" lon="6.37697">
        <ele>836.00366210938</ele>
        <time>2013-08-25T07:18:46Z</time>
      </trkpt>
      <trkpt lat="44.51481" lon="6.37655">
        <ele>839.3681640625</ele>
        <time>2013-08-25T07:18:57Z</time>
      </trkpt>
      <trkpt lat="44.51469" lon="6.37633">
        <ele>841.29077148438</ele>
        <time>2013-08-25T07:19:03Z</time>
      </trkpt>
      <trkpt lat="44.51454" lon="6.3757">
        <ele>844.17504882812</ele>
        <time>2013-08-25T07:19:16Z</time>
      </trkpt>
      <trkpt lat="44.51441" lon="6.37511">
        <ele>847.53955078125</ele>
        <time>2013-08-25T07:19:28Z</time>
      </trkpt>
      <trkpt lat="44.51422" lon="6.37428">
        <ele>850.42358398438</ele>
        <time>2013-08-25T07:19:44Z</time>
      </trkpt>
      <trkpt lat="44.51397" lon="6.37315">
        <ele>853.7880859375</ele>
        <time>2013-08-25T07:20:06Z</time>
      </trkpt>
      <trkpt lat="44.51373" lon="6.3723">
        <ele>854.74926757812</ele>
        <time>2013-08-25T07:20:22Z</time>
      </trkpt>
      <trkpt lat="44.51371" lon="6.37191">
        <ele>855.22998046875</ele>
        <time>2013-08-25T07:20:28Z</time>
      </trkpt>
      <trkpt lat="44.51374" lon="6.37174">
        <ele>855.71069335938</ele>
        <time>2013-08-25T07:20:31Z</time>
      </trkpt>
      <trkpt lat="44.51415" lon="6.37124">
        <ele>858.11401367188</ele>
        <time>2013-08-25T07:20:45Z</time>
      </trkpt>
      <trkpt lat="44.51448" lon="6.37078">
        <ele>860.998046875</ele>
        <time>2013-08-25T07:20:58Z</time>
      </trkpt>
      <trkpt lat="44.51454" lon="6.37009">
        <ele>863.4013671875</ele>
        <time>2013-08-25T07:21:12Z</time>
      </trkpt>
      <trkpt lat="44.5143" lon="6.36941">
        <ele>866.76586914062</ele>
        <time>2013-08-25T07:21:27Z</time>
      </trkpt>
      <trkpt lat="44.51414" lon="6.36894">
        <ele>870.13037109375</ele>
        <time>2013-08-25T07:21:39Z</time>
      </trkpt>
      <trkpt lat="44.51394" lon="6.36841">
        <ele>873.4951171875</ele>
        <time>2013-08-25T07:21:53Z</time>
      </trkpt>
      <trkpt lat="44.51382" lon="6.36791">
        <ele>876.37915039062</ele>
        <time>2013-08-25T07:22:06Z</time>
      </trkpt>
      <trkpt lat="44.51365" lon="6.36749">
        <ele>879.26293945312</ele>
        <time>2013-08-25T07:22:17Z</time>
      </trkpt>
      <trkpt lat="44.51347" lon="6.36702">
        <ele>882.62768554688</ele>
        <time>2013-08-25T07:22:30Z</time>
      </trkpt>
      <trkpt lat="44.51338" lon="6.36664">
        <ele>885.9921875</ele>
        <time>2013-08-25T07:22:40Z</time>
      </trkpt>
      <trkpt lat="44.51339" lon="6.36613">
        <ele>888.87622070312</ele>
        <time>2013-08-25T07:22:53Z</time>
      </trkpt>
      <trkpt lat="44.51356" lon="6.36568">
        <ele>892.24096679688</ele>
        <time>2013-08-25T07:23:05Z</time>
      </trkpt>
      <trkpt lat="44.5137" lon="6.36532">
        <ele>895.60546875</ele>
        <time>2013-08-25T07:23:17Z</time>
      </trkpt>
      <trkpt lat="44.5138" lon="6.36482">
        <ele>898.96997070312</ele>
        <time>2013-08-25T07:23:31Z</time>
      </trkpt>
      <trkpt lat="44.51377" lon="6.36437">
        <ele>902.33447265625</ele>
        <time>2013-08-25T07:23:43Z</time>
      </trkpt>
      <trkpt lat="44.51358" lon="6.36392">
        <ele>905.21850585938</ele>
        <time>2013-08-25T07:23:57Z</time>
      </trkpt>
      <trkpt lat="44.51332" lon="6.36356">
        <ele>908.58325195312</ele>
        <time>2013-08-25T07:24:10Z</time>
      </trkpt>
      <trkpt lat="44.51311" lon="6.36322">
        <ele>911.46728515625</ele>
        <time>2013-08-25T07:24:22Z</time>
      </trkpt>
      <trkpt lat="44.51298" lon="6.36284">
        <ele>914.83178710938</ele>
        <time>2013-08-25T07:24:34Z</time>
      </trkpt>
      <trkpt lat="44.51292" lon="6.36237">
        <ele>917.71557617188</ele>
        <time>2013-08-25T07:24:47Z</time>
      </trkpt>
      <trkpt lat="44.51282" lon="6.36196">
        <ele>921.08032226562</ele>
        <time>2013-08-25T07:24:59Z</time>
      </trkpt>
      <trkpt lat="44.5128" lon="6.3619">
        <ele>921.56079101562</ele>
        <time>2013-08-25T07:25:01Z</time>
      </trkpt>
      <trkpt lat="44.51263" lon="6.3615">
        <ele>924.44506835938</ele>
        <time>2013-08-25T07:25:14Z</time>
      </trkpt>
      <trkpt lat="44.51234" lon="6.36114">
        <ele>927.8095703125</ele>
        <time>2013-08-25T07:25:28Z</time>
      </trkpt>
      <trkpt lat="44.51207" lon="6.36084">
        <ele>930.69360351562</ele>
        <time>2013-08-25T07:25:41Z</time>
      </trkpt>
      <trkpt lat="44.51176" lon="6.36042">
        <ele>934.05810546875</ele>
        <time>2013-08-25T07:25:56Z</time>
      </trkpt>
      <trkpt lat="44.51164" lon="6.35974">
        <ele>936.94189453125</ele>
        <time>2013-08-25T07:26:13Z</time>
      </trkpt>
      <trkpt lat="44.51183" lon="6.35904">
        <ele>940.30688476562</ele>
        <time>2013-08-25T07:26:30Z</time>
      </trkpt>
      <trkpt lat="44.51204" lon="6.35838">
        <ele>943.19067382812</ele>
        <time>2013-08-25T07:26:47Z</time>
      </trkpt>
      <trkpt lat="44.51221" lon="6.35774">
        <ele>946.55541992188</ele>
        <time>2013-08-25T07:27:02Z</time>
      </trkpt>
      <trkpt lat="44.51224" lon="6.35683">
        <ele>948.95849609375</ele>
        <time>2013-08-25T07:27:21Z</time>
      </trkpt>
      <trkpt lat="44.5122" lon="6.35668">
        <ele>949.43920898438</ele>
        <time>2013-08-25T07:27:24Z</time>
      </trkpt>
      <trkpt lat="44.51195" lon="6.35669">
        <ele>949.919921875</ele>
        <time>2013-08-25T07:27:32Z</time>
      </trkpt>
      <trkpt lat="44.51202" lon="6.35698">
        <ele>951.84252929688</ele>
        <time>2013-08-25T07:27:39Z</time>
      </trkpt>
      <trkpt lat="44.51208" lon="6.35744">
        <ele>953.76513671875</ele>
        <time>2013-08-25T07:27:51Z</time>
      </trkpt>
      <trkpt lat="44.5118" lon="6.35806">
        <ele>954.72631835938</ele>
        <time>2013-08-25T07:28:06Z</time>
      </trkpt>
      <trkpt lat="44.51151" lon="6.35857">
        <ele>957.1298828125</ele>
        <time>2013-08-25T07:28:20Z</time>
      </trkpt>
      <trkpt lat="44.51138" lon="6.35874">
        <ele>960.49438476562</ele>
        <time>2013-08-25T07:28:27Z</time>
      </trkpt>
      <trkpt lat="44.5112" lon="6.35894">
        <ele>963.37841796875</ele>
        <time>2013-08-25T07:28:36Z</time>
      </trkpt>
      <trkpt lat="44.51098" lon="6.35924">
        <ele>966.74291992188</ele>
        <time>2013-08-25T07:28:49Z</time>
      </trkpt>
      <trkpt lat="44.51083" lon="6.35951">
        <ele>969.626953125</ele>
        <time>2013-08-25T07:28:59Z</time>
      </trkpt>
      <trkpt lat="44.51055" lon="6.35959">
        <ele>972.99169921875</ele>
        <time>2013-08-25T07:29:11Z</time>
      </trkpt>
      <trkpt lat="44.51032" lon="6.35978">
        <ele>976.35620117188</ele>
        <time>2013-08-25T07:29:23Z</time>
      </trkpt>
      <trkpt lat="44.5102" lon="6.3601">
        <ele>979.23999023438</ele>
        <time>2013-08-25T07:29:34Z</time>
      </trkpt>
      <trkpt lat="44.5101" lon="6.36044">
        <ele>982.1240234375</ele>
        <time>2013-08-25T07:29:45Z</time>
      </trkpt>
      <trkpt lat="44.51009" lon="6.36047">
        <ele>982.60473632812</ele>
        <time>2013-08-25T07:29:46Z</time>
      </trkpt>
      <trkpt lat="44.50999" lon="6.36082">
        <ele>985.48852539062</ele>
        <time>2013-08-25T07:29:58Z</time>
      </trkpt>
      <trkpt lat="44.50992" lon="6.36114">
        <ele>988.853515625</ele>
        <time>2013-08-25T07:30:09Z</time>
      </trkpt>
      <trkpt lat="44.50986" lon="6.36148">
        <ele>991.7373046875</ele>
        <time>2013-08-25T07:30:20Z</time>
      </trkpt>
      <trkpt lat="44.5098" lon="6.36184">
        <ele>995.10180664062</ele>
        <time>2013-08-25T07:30:32Z</time>
      </trkpt>
      <trkpt lat="44.50967" lon="6.36217">
        <ele>997.98583984375</ele>
        <time>2013-08-25T07:30:45Z</time>
      </trkpt>
      <trkpt lat="44.50945" lon="6.36253">
        <ele>1001.3503417969</ele>
        <time>2013-08-25T07:31:00Z</time>
      </trkpt>
      <trkpt lat="44.509" lon="6.36318">
        <ele>1003.2729492188</ele>
        <time>2013-08-25T07:31:24Z</time>
      </trkpt>
      <trkpt lat="44.50869" lon="6.36364">
        <ele>1007.1184082031</ele>
        <time>2013-08-25T07:31:41Z</time>
      </trkpt>
      <trkpt lat="44.50852" lon="6.36396">
        <ele>1010.0021972656</ele>
        <time>2013-08-25T07:31:53Z</time>
      </trkpt>
      <trkpt lat="44.50839" lon="6.36429">
        <ele>1012.8862304688</ele>
        <time>2013-08-25T07:32:04Z</time>
      </trkpt>
      <trkpt lat="44.50824" lon="6.36472">
        <ele>1016.2507324219</ele>
        <time>2013-08-25T07:32:18Z</time>
      </trkpt>
      <trkpt lat="44.50822" lon="6.3649">
        <ele>1016.7314453125</ele>
        <time>2013-08-25T07:32:23Z</time>
      </trkpt>
      <trkpt lat="44.50824" lon="6.36514">
        <ele>1018.1733398438</ele>
        <time>2013-08-25T07:32:30Z</time>
      </trkpt>
      <trkpt lat="44.50858" lon="6.36557">
        <ele>1021.5380859375</ele>
        <time>2013-08-25T07:32:48Z</time>
      </trkpt>
      <trkpt lat="44.50882" lon="6.36579">
        <ele>1023.94140625</ele>
        <time>2013-08-25T07:32:59Z</time>
      </trkpt>
      <trkpt lat="44.50869" lon="6.3659">
        <ele>1025.3833007812</ele>
        <time>2013-08-25T07:33:07Z</time>
      </trkpt>
      <trkpt lat="44.5083" lon="6.36572">
        <ele>1028.748046875</ele>
        <time>2013-08-25T07:33:23Z</time>
      </trkpt>
      <trkpt lat="44.50801" lon="6.36569">
        <ele>1031.6318359375</ele>
        <time>2013-08-25T07:33:35Z</time>
      </trkpt>
      <trkpt lat="44.50773" lon="6.36571">
        <ele>1034.9965820312</ele>
        <time>2013-08-25T07:33:46Z</time>
      </trkpt>
      <trkpt lat="44.50756" lon="6.36576">
        <ele>1036.9191894531</ele>
        <time>2013-08-25T07:33:54Z</time>
      </trkpt>
      <trkpt lat="44.50749" lon="6.36575">
        <ele>1037.3999023438</ele>
        <time>2013-08-25T07:33:57Z</time>
      </trkpt>
      <trkpt lat="44.50743" lon="6.36576">
        <ele>1037.8806152344</ele>
        <time>2013-08-25T07:34:00Z</time>
      </trkpt>
      <trkpt lat="44.50717" lon="6.36568">
        <ele>1042.2065429688</ele>
        <time>2013-08-25T07:34:12Z</time>
      </trkpt>
      <trkpt lat="44.50712" lon="6.36565">
        <ele>1042.2065429688</ele>
        <time>2013-08-25T07:34:15Z</time>
      </trkpt>
      <trkpt lat="44.50703" lon="6.36561">
        <ele>1043.1677246094</ele>
        <time>2013-08-25T07:34:19Z</time>
      </trkpt>
      <trkpt lat="44.50671" lon="6.36556">
        <ele>1047.0129394531</ele>
        <time>2013-08-25T07:34:32Z</time>
      </trkpt>
      <trkpt lat="44.50642" lon="6.36549">
        <ele>1049.8969726562</ele>
        <time>2013-08-25T07:34:43Z</time>
      </trkpt>
      <trkpt lat="44.50615" lon="6.36545">
        <ele>1053.26171875</ele>
        <time>2013-08-25T07:34:54Z</time>
      </trkpt>
      <trkpt lat="44.50584" lon="6.36539">
        <ele>1056.1455078125</ele>
        <time>2013-08-25T07:35:06Z</time>
      </trkpt>
      <trkpt lat="44.50557" lon="6.36528">
        <ele>1059.5102539062</ele>
        <time>2013-08-25T07:35:17Z</time>
      </trkpt>
      <trkpt lat="44.50528" lon="6.36517">
        <ele>1062.8747558594</ele>
        <time>2013-08-25T07:35:30Z</time>
      </trkpt>
      <trkpt lat="44.50505" lon="6.36499">
        <ele>1065.7587890625</ele>
        <time>2013-08-25T07:35:42Z</time>
      </trkpt>
      <trkpt lat="44.50485" lon="6.36477">
        <ele>1069.1235351562</ele>
        <time>2013-08-25T07:35:54Z</time>
      </trkpt>
      <trkpt lat="44.50473" lon="6.36462">
        <ele>1070.5654296875</ele>
        <time>2013-08-25T07:36:01Z</time>
      </trkpt>
      <trkpt lat="44.50457" lon="6.36428">
        <ele>1073.9299316406</ele>
        <time>2013-08-25T07:36:14Z</time>
      </trkpt>
      <trkpt lat="44.50439" lon="6.36396">
        <ele>1077.2946777344</ele>
        <time>2013-08-25T07:36:26Z</time>
      </trkpt>
      <trkpt lat="44.50427" lon="6.36355">
        <ele>1080.6591796875</ele>
        <time>2013-08-25T07:36:39Z</time>
      </trkpt>
      <trkpt lat="44.50413" lon="6.36315">
        <ele>1083.54296875</ele>
        <time>2013-08-25T07:36:52Z</time>
      </trkpt>
      <trkpt lat="44.50393" lon="6.36285">
        <ele>1086.9077148438</ele>
        <time>2013-08-25T07:37:04Z</time>
      </trkpt>
      <trkpt lat="44.50395" lon="6.36246">
        <ele>1089.7917480469</ele>
        <time>2013-08-25T07:37:16Z</time>
      </trkpt>
      <trkpt lat="44.50406" lon="6.36225">
        <ele>1092.1950683594</ele>
        <time>2013-08-25T07:37:26Z</time>
      </trkpt>
      <trkpt lat="44.50421" lon="6.36207">
        <ele>1094.1176757812</ele>
        <time>2013-08-25T07:37:34Z</time>
      </trkpt>
      <trkpt lat="44.50427" lon="6.362">
        <ele>1095.0788574219</ele>
        <time>2013-08-25T07:37:38Z</time>
      </trkpt>
      <trkpt lat="44.50441" lon="6.3618">
        <ele>1097.4821777344</ele>
        <time>2013-08-25T07:37:46Z</time>
      </trkpt>
      <trkpt lat="44.50454" lon="6.36161">
        <ele>1099.8854980469</ele>
        <time>2013-08-25T07:37:55Z</time>
      </trkpt>
      <trkpt lat="44.50455" lon="6.3616">
        <ele>1099.8854980469</ele>
        <time>2013-08-25T07:37:56Z</time>
      </trkpt>
      <trkpt lat="44.50461" lon="6.36136">
        <ele>1102.2888183594</ele>
        <time>2013-08-25T07:38:06Z</time>
      </trkpt>
      <trkpt lat="44.5046" lon="6.36129">
        <ele>1102.76953125</ele>
        <time>2013-08-25T07:38:09Z</time>
      </trkpt>
      <trkpt lat="44.50466" lon="6.36106">
        <ele>1103.7309570312</ele>
        <time>2013-08-25T07:38:14Z</time>
      </trkpt>
      <trkpt lat="44.50475" lon="6.36058">
        <ele>1107.0954589844</ele>
        <time>2013-08-25T07:38:26Z</time>
      </trkpt>
      <trkpt lat="44.50475" lon="6.36011">
        <ele>1108.0568847656</ele>
        <time>2013-08-25T07:38:36Z</time>
      </trkpt>
      <trkpt lat="44.50474" lon="6.35961">
        <ele>1110.4599609375</ele>
        <time>2013-08-25T07:38:45Z</time>
      </trkpt>
      <trkpt lat="44.50453" lon="6.35927">
        <ele>1112.3825683594</ele>
        <time>2013-08-25T07:38:55Z</time>
      </trkpt>
      <trkpt lat="44.5044" lon="6.35885">
        <ele>1114.7858886719</ele>
        <time>2013-08-25T07:39:05Z</time>
      </trkpt>
      <trkpt lat="44.50426" lon="6.35818">
        <ele>1117.669921875</ele>
        <time>2013-08-25T07:39:20Z</time>
      </trkpt>
      <trkpt lat="44.50419" lon="6.35802">
        <ele>1117.669921875</ele>
        <time>2013-08-25T07:39:23Z</time>
      </trkpt>
      <trkpt lat="44.50394" lon="6.35733">
        <ele>1121.0346679688</ele>
        <time>2013-08-25T07:39:37Z</time>
      </trkpt>
      <trkpt lat="44.50382" lon="6.35705">
        <ele>1121.5151367188</ele>
        <time>2013-08-25T07:39:43Z</time>
      </trkpt>
      <trkpt lat="44.50362" lon="6.35667">
        <ele>1121.9958496094</ele>
        <time>2013-08-25T07:39:51Z</time>
      </trkpt>
      <trkpt lat="44.50351" lon="6.35656">
        <ele>1121.9958496094</ele>
        <time>2013-08-25T07:39:54Z</time>
      </trkpt>
      <trkpt lat="44.50303" lon="6.35623">
        <ele>1124.3991699219</ele>
        <time>2013-08-25T07:40:08Z</time>
      </trkpt>
      <trkpt lat="44.50275" lon="6.35613">
        <ele>1124.3991699219</ele>
        <time>2013-08-25T07:40:15Z</time>
      </trkpt>
      <trkpt lat="44.50245" lon="6.35619">
        <ele>1125.8410644531</ele>
        <time>2013-08-25T07:40:22Z</time>
      </trkpt>
      <trkpt lat="44.50234" lon="6.35635">
        <ele>1127.763671875</ele>
        <time>2013-08-25T07:40:26Z</time>
      </trkpt>
      <trkpt lat="44.50232" lon="6.35645">
        <ele>1128.7250976562</ele>
        <time>2013-08-25T07:40:28Z</time>
      </trkpt>
      <trkpt lat="44.50225" lon="6.3572">
        <ele>1132.08984375</ele>
        <time>2013-08-25T07:40:43Z</time>
      </trkpt>
      <trkpt lat="44.50206" lon="6.35739">
        <ele>1135.4543457031</ele>
        <time>2013-08-25T07:40:53Z</time>
      </trkpt>
      <trkpt lat="44.50199" lon="6.35742">
        <ele>1136.4157714844</ele>
        <time>2013-08-25T07:40:56Z</time>
      </trkpt>
      <trkpt lat="44.50189" lon="6.35736">
        <ele>1137.8576660156</ele>
        <time>2013-08-25T07:41:00Z</time>
      </trkpt>
      <trkpt lat="44.5018" lon="6.35724">
        <ele>1139.2995605469</ele>
        <time>2013-08-25T07:41:05Z</time>
      </trkpt>
      <trkpt lat="44.50151" lon="6.35699">
        <ele>1142.6643066406</ele>
        <time>2013-08-25T07:41:18Z</time>
      </trkpt>
      <trkpt lat="44.50122" lon="6.35684">
        <ele>1145.5480957031</ele>
        <time>2013-08-25T07:41:30Z</time>
      </trkpt>
      <trkpt lat="44.50095" lon="6.35667">
        <ele>1148.9128417969</ele>
        <time>2013-08-25T07:41:42Z</time>
      </trkpt>
      <trkpt lat="44.50066" lon="6.35661">
        <ele>1151.796875</ele>
        <time>2013-08-25T07:41:53Z</time>
      </trkpt>
      <trkpt lat="44.50033" lon="6.35675">
        <ele>1155.1613769531</ele>
        <time>2013-08-25T07:42:07Z</time>
      </trkpt>
      <trkpt lat="44.50002" lon="6.3568">
        <ele>1158.0454101562</ele>
        <time>2013-08-25T07:42:20Z</time>
      </trkpt>
      <trkpt lat="44.49971" lon="6.35676">
        <ele>1161.4099121094</ele>
        <time>2013-08-25T07:42:33Z</time>
      </trkpt>
      <trkpt lat="44.49943" lon="6.35665">
        <ele>1164.2939453125</ele>
        <time>2013-08-25T07:42:46Z</time>
      </trkpt>
      <trkpt lat="44.49924" lon="6.35643">
        <ele>1167.6584472656</ele>
        <time>2013-08-25T07:43:00Z</time>
      </trkpt>
      <trkpt lat="44.49903" lon="6.35617">
        <ele>1171.0231933594</ele>
        <time>2013-08-25T07:43:13Z</time>
      </trkpt>
      <trkpt lat="44.49879" lon="6.35588">
        <ele>1173.9069824219</ele>
        <time>2013-08-25T07:43:27Z</time>
      </trkpt>
      <trkpt lat="44.49865" lon="6.35553">
        <ele>1177.2717285156</ele>
        <time>2013-08-25T07:43:40Z</time>
      </trkpt>
      <trkpt lat="44.4984" lon="6.35546">
        <ele>1180.1557617188</ele>
        <time>2013-08-25T07:43:53Z</time>
      </trkpt>
      <trkpt lat="44.49811" lon="6.35551">
        <ele>1183.5202636719</ele>
        <time>2013-08-25T07:44:08Z</time>
      </trkpt>
      <trkpt lat="44.49795" lon="6.35539">
        <ele>1186.404296875</ele>
        <time>2013-08-25T07:44:20Z</time>
      </trkpt>
      <trkpt lat="44.49793" lon="6.35538">
        <ele>1186.884765625</ele>
        <time>2013-08-25T07:44:21Z</time>
      </trkpt>
      <trkpt lat="44.49787" lon="6.35527">
        <ele>1188.8076171875</ele>
        <time>2013-08-25T07:44:28Z</time>
      </trkpt>
      <trkpt lat="44.4979" lon="6.35514">
        <ele>1189.7687988281</ele>
        <time>2013-08-25T07:44:34Z</time>
      </trkpt>
      <trkpt lat="44.49802" lon="6.35482">
        <ele>1193.6140136719</ele>
        <time>2013-08-25T07:44:46Z</time>
      </trkpt>
      <trkpt lat="44.49805" lon="6.3547">
        <ele>1194.5751953125</ele>
        <time>2013-08-25T07:44:50Z</time>
      </trkpt>
      <trkpt lat="44.49811" lon="6.35445">
        <ele>1197.9401855469</ele>
        <time>2013-08-25T07:44:59Z</time>
      </trkpt>
      <trkpt lat="44.49822" lon="6.3542">
        <ele>1199.8627929688</ele>
        <time>2013-08-25T07:45:08Z</time>
      </trkpt>
      <trkpt lat="44.49843" lon="6.35394">
        <ele>1202.2658691406</ele>
        <time>2013-08-25T07:45:19Z</time>
      </trkpt>
      <trkpt lat="44.49843" lon="6.35367">
        <ele>1205.6306152344</ele>
        <time>2013-08-25T07:45:30Z</time>
      </trkpt>
      <trkpt lat="44.49818" lon="6.35343">
        <ele>1208.5144042969</ele>
        <time>2013-08-25T07:45:41Z</time>
      </trkpt>
      <trkpt lat="44.49817" lon="6.3534">
        <ele>1208.9951171875</ele>
        <time>2013-08-25T07:45:42Z</time>
      </trkpt>
      <trkpt lat="44.49808" lon="6.35307">
        <ele>1211.8791503906</ele>
        <time>2013-08-25T07:45:55Z</time>
      </trkpt>
      <trkpt lat="44.49787" lon="6.35276">
        <ele>1215.2438964844</ele>
        <time>2013-08-25T07:46:07Z</time>
      </trkpt>
      <trkpt lat="44.49782" lon="6.35269">
        <ele>1216.6857910156</ele>
        <time>2013-08-25T07:46:11Z</time>
      </trkpt>
      <trkpt lat="44.49757" lon="6.3525">
        <ele>1220.0502929688</ele>
        <time>2013-08-25T07:46:24Z</time>
      </trkpt>
      <trkpt lat="44.49752" lon="6.35245">
        <ele>1221.01171875</ele>
        <time>2013-08-25T07:46:27Z</time>
      </trkpt>
      <trkpt lat="44.49725" lon="6.35235">
        <ele>1224.3762207031</ele>
        <time>2013-08-25T07:46:41Z</time>
      </trkpt>
      <trkpt lat="44.49724" lon="6.35234">
        <ele>1224.3762207031</ele>
        <time>2013-08-25T07:47:00Z</time>
      </trkpt>
      <trkpt lat="44.49724" lon="6.35235">
        <ele>1224.3762207031</ele>
        <time>2013-08-25T07:48:10Z</time>
      </trkpt>
      <trkpt lat="44.49718" lon="6.35241">
        <ele>1225.3374023438</ele>
        <time>2013-08-25T07:48:15Z</time>
      </trkpt>
      <trkpt lat="44.49691" lon="6.35256">
        <ele>1228.7023925781</ele>
        <time>2013-08-25T07:48:28Z</time>
      </trkpt>
      <trkpt lat="44.49669" lon="6.35267">
        <ele>1232.0668945312</ele>
        <time>2013-08-25T07:48:39Z</time>
      </trkpt>
      <trkpt lat="44.49646" lon="6.35275">
        <ele>1235.912109375</ele>
        <time>2013-08-25T07:48:50Z</time>
      </trkpt>
      <trkpt lat="44.4962" lon="6.35275">
        <ele>1238.7961425781</ele>
        <time>2013-08-25T07:49:02Z</time>
      </trkpt>
      <trkpt lat="44.49597" lon="6.35274">
        <ele>1241.6799316406</ele>
        <time>2013-08-25T07:49:14Z</time>
      </trkpt>
      <trkpt lat="44.49572" lon="6.35263">
        <ele>1245.0446777344</ele>
        <time>2013-08-25T07:49:28Z</time>
      </trkpt>
      <trkpt lat="44.49541" lon="6.35252">
        <ele>1247.9287109375</ele>
        <time>2013-08-25T07:49:43Z</time>
      </trkpt>
      <trkpt lat="44.49512" lon="6.35243">
        <ele>1251.2932128906</ele>
        <time>2013-08-25T07:49:57Z</time>
      </trkpt>
      <trkpt lat="44.49487" lon="6.35246">
        <ele>1254.1772460938</ele>
        <time>2013-08-25T07:50:09Z</time>
      </trkpt>
      <trkpt lat="44.49465" lon="6.35263">
        <ele>1257.0610351562</ele>
        <time>2013-08-25T07:50:22Z</time>
      </trkpt>
      <trkpt lat="44.49459" lon="6.35261">
        <ele>1257.5417480469</ele>
        <time>2013-08-25T07:50:25Z</time>
      </trkpt>
      <trkpt lat="44.4945" lon="6.3523">
        <ele>1259.9448242188</ele>
        <time>2013-08-25T07:50:37Z</time>
      </trkpt>
      <trkpt lat="44.49444" lon="6.35221">
        <ele>1261.3872070312</ele>
        <time>2013-08-25T07:50:41Z</time>
      </trkpt>
      <trkpt lat="44.49442" lon="6.35209">
        <ele>1262.3483886719</ele>
        <time>2013-08-25T07:50:46Z</time>
      </trkpt>
      <trkpt lat="44.4944" lon="6.35206">
        <ele>1262.8291015625</ele>
        <time>2013-08-25T07:50:48Z</time>
      </trkpt>
      <trkpt lat="44.49439" lon="6.352">
        <ele>1263.7902832031</ele>
        <time>2013-08-25T07:50:51Z</time>
      </trkpt>
      <trkpt lat="44.4944" lon="6.3519">
        <ele>1264.7517089844</ele>
        <time>2013-08-25T07:50:56Z</time>
      </trkpt>
      <trkpt lat="44.49438" lon="6.35179">
        <ele>1265.7131347656</ele>
        <time>2013-08-25T07:51:01Z</time>
      </trkpt>
      <trkpt lat="44.49439" lon="6.35163">
        <ele>1268.5969238281</ele>
        <time>2013-08-25T07:51:08Z</time>
      </trkpt>
      <trkpt lat="44.49416" lon="6.35128">
        <ele>1271.0002441406</ele>
        <time>2013-08-25T07:51:19Z</time>
      </trkpt>
      <trkpt lat="44.49403" lon="6.35119">
        <ele>1271.9614257812</ele>
        <time>2013-08-25T07:51:24Z</time>
      </trkpt>
      <trkpt lat="44.49387" lon="6.3512">
        <ele>1274.8454589844</ele>
        <time>2013-08-25T07:51:32Z</time>
      </trkpt>
      <trkpt lat="44.49385" lon="6.35119">
        <ele>1275.3259277344</ele>
        <time>2013-08-25T07:51:33Z</time>
      </trkpt>
      <trkpt lat="44.49358" lon="6.35106">
        <ele>1278.6909179688</ele>
        <time>2013-08-25T07:51:47Z</time>
      </trkpt>
      <trkpt lat="44.49319" lon="6.35089">
        <ele>1281.5747070312</ele>
        <time>2013-08-25T07:52:05Z</time>
      </trkpt>
      <trkpt lat="44.49289" lon="6.35086">
        <ele>1284.939453125</ele>
        <time>2013-08-25T07:52:18Z</time>
      </trkpt>
      <trkpt lat="44.49263" lon="6.3508">
        <ele>1286.8618164062</ele>
        <time>2013-08-25T07:52:29Z</time>
      </trkpt>
      <trkpt lat="44.49231" lon="6.35065">
        <ele>1290.2265625</ele>
        <time>2013-08-25T07:52:43Z</time>
      </trkpt>
      <trkpt lat="44.49206" lon="6.35058">
        <ele>1292.6301269531</ele>
        <time>2013-08-25T07:52:54Z</time>
      </trkpt>
      <trkpt lat="44.49178" lon="6.35042">
        <ele>1295.5139160156</ele>
        <time>2013-08-25T07:53:06Z</time>
      </trkpt>
      <trkpt lat="44.49163" lon="6.35037">
        <ele>1296.4753417969</ele>
        <time>2013-08-25T07:53:11Z</time>
      </trkpt>
      <trkpt lat="44.49114" lon="6.35048">
        <ele>1299.3591308594</ele>
        <time>2013-08-25T07:53:28Z</time>
      </trkpt>
      <trkpt lat="44.49091" lon="6.35003">
        <ele>1302.2429199219</ele>
        <time>2013-08-25T07:53:44Z</time>
      </trkpt>
      <trkpt lat="44.49042" lon="6.34985">
        <ele>1302.7236328125</ele>
        <time>2013-08-25T07:53:56Z</time>
      </trkpt>
      <trkpt lat="44.49015" lon="6.34992">
        <ele>1302.7236328125</ele>
        <time>2013-08-25T07:54:01Z</time>
      </trkpt>
      <trkpt lat="44.48978" lon="6.34966">
        <ele>1303.2043457031</ele>
        <time>2013-08-25T07:54:10Z</time>
      </trkpt>
      <trkpt lat="44.48969" lon="6.34946">
        <ele>1303.2043457031</ele>
        <time>2013-08-25T07:54:13Z</time>
      </trkpt>
      <trkpt lat="44.48952" lon="6.34929">
        <ele>1304.1657714844</ele>
        <time>2013-08-25T07:54:17Z</time>
      </trkpt>
      <trkpt lat="44.48894" lon="6.34897">
        <ele>1306.0881347656</ele>
        <time>2013-08-25T07:54:29Z</time>
      </trkpt>
      <trkpt lat="44.48876" lon="6.34879">
        <ele>1306.0881347656</ele>
        <time>2013-08-25T07:54:33Z</time>
      </trkpt>
      <trkpt lat="44.48821" lon="6.34851">
        <ele>1306.5688476562</ele>
        <time>2013-08-25T07:54:43Z</time>
      </trkpt>
      <trkpt lat="44.48804" lon="6.34852">
        <ele>1306.5688476562</ele>
        <time>2013-08-25T07:54:53Z</time>
      </trkpt>
      <trkpt lat="44.48803" lon="6.34852">
        <ele>1307.0495605469</ele>
        <time>2013-08-25T07:55:20Z</time>
      </trkpt>
      <trkpt lat="44.48804" lon="6.34854">
        <ele>1306.5688476562</ele>
        <time>2013-08-25T07:55:45Z</time>
      </trkpt>
      <trkpt lat="44.48802" lon="6.34854">
        <ele>1307.0495605469</ele>
        <time>2013-08-25T07:56:58Z</time>
      </trkpt>
      <trkpt lat="44.48798" lon="6.34855">
        <ele>1307.0495605469</ele>
        <time>2013-08-25T07:58:16Z</time>
      </trkpt>
      <trkpt lat="44.48791" lon="6.34855">
        <ele>1307.5302734375</ele>
        <time>2013-08-25T08:00:36Z</time>
      </trkpt>
      <trkpt lat="44.48777" lon="6.34857">
        <ele>1307.0495605469</ele>
        <time>2013-08-25T08:00:40Z</time>
      </trkpt>
      <trkpt lat="44.48737" lon="6.34876">
        <ele>1303.2043457031</ele>
        <time>2013-08-25T08:00:46Z</time>
      </trkpt>
      <trkpt lat="44.48711" lon="6.34884">
        <ele>1301.7624511719</ele>
        <time>2013-08-25T08:00:49Z</time>
      </trkpt>
      <trkpt lat="44.48671" lon="6.34886">
        <ele>1299.83984375</ele>
        <time>2013-08-25T08:00:54Z</time>
      </trkpt>
      <trkpt lat="44.48646" lon="6.34899">
        <ele>1298.8784179688</ele>
        <time>2013-08-25T08:00:58Z</time>
      </trkpt>
      <trkpt lat="44.48628" lon="6.3492">
        <ele>1297.9172363281</ele>
        <time>2013-08-25T08:01:01Z</time>
      </trkpt>
      <trkpt lat="44.486" lon="6.34932">
        <ele>1295.033203125</ele>
        <time>2013-08-25T08:01:05Z</time>
      </trkpt>
      <trkpt lat="44.48575" lon="6.34927">
        <ele>1292.6301269531</ele>
        <time>2013-08-25T08:01:08Z</time>
      </trkpt>
      <trkpt lat="44.48531" lon="6.3495">
        <ele>1287.8232421875</ele>
        <time>2013-08-25T08:01:14Z</time>
      </trkpt>
      <trkpt lat="44.48525" lon="6.34958">
        <ele>1287.3425292969</ele>
        <time>2013-08-25T08:01:15Z</time>
      </trkpt>
      <trkpt lat="44.48489" lon="6.34992">
        <ele>1282.5361328125</ele>
        <time>2013-08-25T08:01:20Z</time>
      </trkpt>
      <trkpt lat="44.48461" lon="6.35008">
        <ele>1278.2102050781</ele>
        <time>2013-08-25T08:01:23Z</time>
      </trkpt>
      <trkpt lat="44.48425" lon="6.35035">
        <ele>1273.4035644531</ele>
        <time>2013-08-25T08:01:27Z</time>
      </trkpt>
      <trkpt lat="44.48375" lon="6.35071">
        <ele>1268.5969238281</ele>
        <time>2013-08-25T08:01:32Z</time>
      </trkpt>
      <trkpt lat="44.48354" lon="6.35088">
        <ele>1265.7131347656</ele>
        <time>2013-08-25T08:01:34Z</time>
      </trkpt>
      <trkpt lat="44.48322" lon="6.35113">
        <ele>1262.3483886719</ele>
        <time>2013-08-25T08:01:37Z</time>
      </trkpt>
      <trkpt lat="44.48294" lon="6.35134">
        <ele>1258.9836425781</ele>
        <time>2013-08-25T08:01:40Z</time>
      </trkpt>
      <trkpt lat="44.48277" lon="6.35147">
        <ele>1257.0610351562</ele>
        <time>2013-08-25T08:01:42Z</time>
      </trkpt>
      <trkpt lat="44.48224" lon="6.35172">
        <ele>1253.2158203125</ele>
        <time>2013-08-25T08:01:48Z</time>
      </trkpt>
      <trkpt lat="44.48196" lon="6.35188">
        <ele>1250.8125</ele>
        <time>2013-08-25T08:01:52Z</time>
      </trkpt>
      <trkpt lat="44.48172" lon="6.35206">
        <ele>1249.3706054688</ele>
        <time>2013-08-25T08:01:57Z</time>
      </trkpt>
      <trkpt lat="44.48156" lon="6.35217">
        <ele>1248.4091796875</ele>
        <time>2013-08-25T08:02:00Z</time>
      </trkpt>
      <trkpt lat="44.48114" lon="6.35227">
        <ele>1244.0834960938</ele>
        <time>2013-08-25T08:02:05Z</time>
      </trkpt>
      <trkpt lat="44.48085" lon="6.35229">
        <ele>1241.19921875</ele>
        <time>2013-08-25T08:02:08Z</time>
      </trkpt>
      <trkpt lat="44.48061" lon="6.35229">
        <ele>1237.8347167969</ele>
        <time>2013-08-25T08:02:11Z</time>
      </trkpt>
      <trkpt lat="44.48055" lon="6.35229">
        <ele>1236.3928222656</ele>
        <time>2013-08-25T08:02:12Z</time>
      </trkpt>
      <trkpt lat="44.48058" lon="6.35257">
        <ele>1233.0280761719</ele>
        <time>2013-08-25T08:02:18Z</time>
      </trkpt>
      <trkpt lat="44.48072" lon="6.35268">
        <ele>1232.0668945312</ele>
        <time>2013-08-25T08:02:20Z</time>
      </trkpt>
      <trkpt lat="44.48103" lon="6.35293">
        <ele>1228.2216796875</ele>
        <time>2013-08-25T08:02:24Z</time>
      </trkpt>
      <trkpt lat="44.48123" lon="6.3533">
        <ele>1224.3762207031</ele>
        <time>2013-08-25T08:02:28Z</time>
      </trkpt>
      <trkpt lat="44.48125" lon="6.35341">
        <ele>1223.4150390625</ele>
        <time>2013-08-25T08:02:29Z</time>
      </trkpt>
      <trkpt lat="44.48132" lon="6.35375">
        <ele>1220.5310058594</ele>
        <time>2013-08-25T08:02:32Z</time>
      </trkpt>
      <trkpt lat="44.48149" lon="6.35417">
        <ele>1216.205078125</ele>
        <time>2013-08-25T08:02:37Z</time>
      </trkpt>
      <trkpt lat="44.48164" lon="6.35466">
        <ele>1210.9177246094</ele>
        <time>2013-08-25T08:02:43Z</time>
      </trkpt>
      <trkpt lat="44.4817" lon="6.35522">
        <ele>1207.5532226562</ele>
        <time>2013-08-25T08:02:48Z</time>
      </trkpt>
      <trkpt lat="44.48172" lon="6.35534">
        <ele>1206.1110839844</ele>
        <time>2013-08-25T08:02:49Z</time>
      </trkpt>
      <trkpt lat="44.48181" lon="6.35567">
        <ele>1202.2658691406</ele>
        <time>2013-08-25T08:02:53Z</time>
      </trkpt>
      <trkpt lat="44.48172" lon="6.35568">
        <ele>1200.8239746094</ele>
        <time>2013-08-25T08:02:58Z</time>
      </trkpt>
      <trkpt lat="44.48159" lon="6.35548">
        <ele>1198.9013671875</ele>
        <time>2013-08-25T08:03:01Z</time>
      </trkpt>
      <trkpt lat="44.48122" lon="6.35509">
        <ele>1194.0947265625</ele>
        <time>2013-08-25T08:03:06Z</time>
      </trkpt>
      <trkpt lat="44.48114" lon="6.35502">
        <ele>1193.6140136719</ele>
        <time>2013-08-25T08:03:07Z</time>
      </trkpt>
      <trkpt lat="44.48078" lon="6.3548">
        <ele>1188.8076171875</ele>
        <time>2013-08-25T08:03:11Z</time>
      </trkpt>
      <trkpt lat="44.48057" lon="6.35471">
        <ele>1188.8076171875</ele>
        <time>2013-08-25T08:03:13Z</time>
      </trkpt>
      <trkpt lat="44.48048" lon="6.35467">
        <ele>1184.9624023438</ele>
        <time>2013-08-25T08:03:14Z</time>
      </trkpt>
      <trkpt lat="44.4803" lon="6.35459">
        <ele>1184.9624023438</ele>
        <time>2013-08-25T08:03:16Z</time>
      </trkpt>
      <trkpt lat="44.48022" lon="6.35456">
        <ele>1181.59765625</ele>
        <time>2013-08-25T08:03:17Z</time>
      </trkpt>
      <trkpt lat="44.47997" lon="6.35446">
        <ele>1178.7136230469</ele>
        <time>2013-08-25T08:03:20Z</time>
      </trkpt>
      <trkpt lat="44.47969" lon="6.35428">
        <ele>1173.9069824219</ele>
        <time>2013-08-25T08:03:24Z</time>
      </trkpt>
      <trkpt lat="44.4795" lon="6.35416">
        <ele>1171.5036621094</ele>
        <time>2013-08-25T08:03:27Z</time>
      </trkpt>
      <trkpt lat="44.47934" lon="6.35413">
        <ele>1169.5812988281</ele>
        <time>2013-08-25T08:03:30Z</time>
      </trkpt>
      <trkpt lat="44.47928" lon="6.35416">
        <ele>1168.6198730469</ele>
        <time>2013-08-25T08:03:31Z</time>
      </trkpt>
      <trkpt lat="44.47915" lon="6.35425">
        <ele>1167.1779785156</ele>
        <time>2013-08-25T08:03:33Z</time>
      </trkpt>
      <trkpt lat="44.47881" lon="6.35429">
        <ele>1162.37109375</ele>
        <time>2013-08-25T08:03:38Z</time>
      </trkpt>
      <trkpt lat="44.47864" lon="6.35419">
        <ele>1159.0065917969</ele>
        <time>2013-08-25T08:03:41Z</time>
      </trkpt>
      <trkpt lat="44.47858" lon="6.35408">
        <ele>1157.083984375</ele>
        <time>2013-08-25T08:03:43Z</time>
      </trkpt>
      <trkpt lat="44.47848" lon="6.35398">
        <ele>1155.1613769531</ele>
        <time>2013-08-25T08:03:47Z</time>
      </trkpt>
      <trkpt lat="44.47859" lon="6.35431">
        <ele>1151.796875</ele>
        <time>2013-08-25T08:03:52Z</time>
      </trkpt>
      <trkpt lat="44.47866" lon="6.3544">
        <ele>1150.8354492188</ele>
        <time>2013-08-25T08:03:54Z</time>
      </trkpt>
      <trkpt lat="44.47867" lon="6.35449">
        <ele>1149.8742675781</ele>
        <time>2013-08-25T08:03:56Z</time>
      </trkpt>
      <trkpt lat="44.47847" lon="6.35439">
        <ele>1147.470703125</ele>
        <time>2013-08-25T08:04:00Z</time>
      </trkpt>
      <trkpt lat="44.47828" lon="6.35414">
        <ele>1144.5866699219</ele>
        <time>2013-08-25T08:04:03Z</time>
      </trkpt>
      <trkpt lat="44.47799" lon="6.35392">
        <ele>1139.7802734375</ele>
        <time>2013-08-25T08:04:07Z</time>
      </trkpt>
      <trkpt lat="44.4778" lon="6.35371">
        <ele>1136.8962402344</ele>
        <time>2013-08-25T08:04:10Z</time>
      </trkpt>
      <trkpt lat="44.47764" lon="6.35342">
        <ele>1132.5705566406</ele>
        <time>2013-08-25T08:04:14Z</time>
      </trkpt>
      <trkpt lat="44.4775" lon="6.35339">
        <ele>1130.6477050781</ele>
        <time>2013-08-25T08:04:17Z</time>
      </trkpt>
      <trkpt lat="44.47737" lon="6.35346">
        <ele>1130.1669921875</ele>
        <time>2013-08-25T08:04:19Z</time>
      </trkpt>
      <trkpt lat="44.47724" lon="6.35357">
        <ele>1128.2443847656</ele>
        <time>2013-08-25T08:04:21Z</time>
      </trkpt>
      <trkpt lat="44.47684" lon="6.35364">
        <ele>1123.9184570312</ele>
        <time>2013-08-25T08:04:26Z</time>
      </trkpt>
      <trkpt lat="44.47669" lon="6.35365">
        <ele>1121.0346679688</ele>
        <time>2013-08-25T08:04:28Z</time>
      </trkpt>
      <trkpt lat="44.47657" lon="6.35383">
        <ele>1117.189453125</ele>
        <time>2013-08-25T08:04:33Z</time>
      </trkpt>
      <trkpt lat="44.47672" lon="6.35399">
        <ele>1115.7473144531</ele>
        <time>2013-08-25T08:04:36Z</time>
      </trkpt>
      <trkpt lat="44.47689" lon="6.3541">
        <ele>1113.3439941406</ele>
        <time>2013-08-25T08:04:39Z</time>
      </trkpt>
      <trkpt lat="44.47681" lon="6.35426">
        <ele>1110.9406738281</ele>
        <time>2013-08-25T08:04:44Z</time>
      </trkpt>
      <trkpt lat="44.47668" lon="6.35431">
        <ele>1110.4599609375</ele>
        <time>2013-08-25T08:04:46Z</time>
      </trkpt>
      <trkpt lat="44.47647" lon="6.35442">
        <ele>1108.0568847656</ele>
        <time>2013-08-25T08:04:49Z</time>
      </trkpt>
      <trkpt lat="44.47628" lon="6.35439">
        <ele>1104.6921386719</ele>
        <time>2013-08-25T08:04:53Z</time>
      </trkpt>
      <trkpt lat="44.47625" lon="6.35432">
        <ele>1104.2116699219</ele>
        <time>2013-08-25T08:04:54Z</time>
      </trkpt>
      <trkpt lat="44.47605" lon="6.3537">
        <ele>1099.4047851562</ele>
        <time>2013-08-25T08:05:00Z</time>
      </trkpt>
      <trkpt lat="44.47594" lon="6.3534">
        <ele>1096.0402832031</ele>
        <time>2013-08-25T08:05:03Z</time>
      </trkpt>
      <trkpt lat="44.47591" lon="6.35295">
        <ele>1092.1950683594</ele>
        <time>2013-08-25T08:05:07Z</time>
      </trkpt>
      <trkpt lat="44.47592" lon="6.3527">
        <ele>1088.8305664062</ele>
        <time>2013-08-25T08:05:11Z</time>
      </trkpt>
      <trkpt lat="44.47576" lon="6.35288">
        <ele>1085.9465332031</ele>
        <time>2013-08-25T08:05:16Z</time>
      </trkpt>
      <trkpt lat="44.47568" lon="6.35341">
        <ele>1082.5817871094</ele>
        <time>2013-08-25T08:05:21Z</time>
      </trkpt>
      <trkpt lat="44.47568" lon="6.35353">
        <ele>1082.1010742188</ele>
        <time>2013-08-25T08:05:22Z</time>
      </trkpt>
      <trkpt lat="44.47568" lon="6.35377">
        <ele>1080.1784667969</ele>
        <time>2013-08-25T08:05:24Z</time>
      </trkpt>
      <trkpt lat="44.47562" lon="6.35408">
        <ele>1077.2946777344</ele>
        <time>2013-08-25T08:05:27Z</time>
      </trkpt>
      <trkpt lat="44.4757" lon="6.35439">
        <ele>1073.4494628906</ele>
        <time>2013-08-25T08:05:31Z</time>
      </trkpt>
      <trkpt lat="44.47566" lon="6.35451">
        <ele>1071.0461425781</ele>
        <time>2013-08-25T08:05:36Z</time>
      </trkpt>
      <trkpt lat="44.47559" lon="6.3544">
        <ele>1070.0847167969</ele>
        <time>2013-08-25T08:05:38Z</time>
      </trkpt>
      <trkpt lat="44.4755" lon="6.35424">
        <ele>1068.6428222656</ele>
        <time>2013-08-25T08:05:40Z</time>
      </trkpt>
      <trkpt lat="44.47531" lon="6.35381">
        <ele>1065.7587890625</ele>
        <time>2013-08-25T08:05:44Z</time>
      </trkpt>
      <trkpt lat="44.47505" lon="6.35341">
        <ele>1060.9521484375</ele>
        <time>2013-08-25T08:05:48Z</time>
      </trkpt>
      <trkpt lat="44.47488" lon="6.3532">
        <ele>1057.1069335938</ele>
        <time>2013-08-25T08:05:51Z</time>
      </trkpt>
      <trkpt lat="44.47473" lon="6.35305">
        <ele>1054.2231445312</ele>
        <time>2013-08-25T08:05:55Z</time>
      </trkpt>
      <trkpt lat="44.47465" lon="6.35302">
        <ele>1051.8195800781</ele>
        <time>2013-08-25T08:06:05Z</time>
      </trkpt>
      <trkpt lat="44.47465" lon="6.35303">
        <ele>1051.3388671875</ele>
        <time>2013-08-25T08:08:59Z</time>
      </trkpt>
      <trkpt lat="44.47462" lon="6.35339">
        <ele>1048.4548339844</ele>
        <time>2013-08-25T08:09:07Z</time>
      </trkpt>
      <trkpt lat="44.47465" lon="6.35351">
        <ele>1047.9743652344</ele>
        <time>2013-08-25T08:09:09Z</time>
      </trkpt>
      <trkpt lat="44.47445" lon="6.35358">
        <ele>1045.0903320312</ele>
        <time>2013-08-25T08:09:15Z</time>
      </trkpt>
      <trkpt lat="44.47427" lon="6.35344">
        <ele>1042.6872558594</ele>
        <time>2013-08-25T08:09:18Z</time>
      </trkpt>
      <trkpt lat="44.47421" lon="6.35303">
        <ele>1038.361328125</ele>
        <time>2013-08-25T08:09:24Z</time>
      </trkpt>
      <trkpt lat="44.47425" lon="6.35295">
        <ele>1037.8806152344</ele>
        <time>2013-08-25T08:09:25Z</time>
      </trkpt>
      <trkpt lat="44.47432" lon="6.35284">
        <ele>1036.4387207031</ele>
        <time>2013-08-25T08:09:27Z</time>
      </trkpt>
      <trkpt lat="44.47429" lon="6.35273">
        <ele>1034.9965820312</ele>
        <time>2013-08-25T08:09:30Z</time>
      </trkpt>
      <trkpt lat="44.47419" lon="6.35279">
        <ele>1034.03515625</ele>
        <time>2013-08-25T08:09:32Z</time>
      </trkpt>
      <trkpt lat="44.47408" lon="6.35292">
        <ele>1033.0737304688</ele>
        <time>2013-08-25T08:09:34Z</time>
      </trkpt>
      <trkpt lat="44.47379" lon="6.35323">
        <ele>1030.1899414062</ele>
        <time>2013-08-25T08:09:38Z</time>
      </trkpt>
      <trkpt lat="44.47372" lon="6.35332">
        <ele>1029.7092285156</ele>
        <time>2013-08-25T08:09:39Z</time>
      </trkpt>
      <trkpt lat="44.4735" lon="6.35373">
        <ele>1024.9028320312</ele>
        <time>2013-08-25T08:09:43Z</time>
      </trkpt>
      <trkpt lat="44.47326" lon="6.35404">
        <ele>1021.0576171875</ele>
        <time>2013-08-25T08:09:48Z</time>
      </trkpt>
      <trkpt lat="44.47285" lon="6.35375">
        <ele>1019.6154785156</ele>
        <time>2013-08-25T08:09:55Z</time>
      </trkpt>
      <trkpt lat="44.47282" lon="6.35355">
        <ele>1019.6154785156</ele>
        <time>2013-08-25T08:09:57Z</time>
      </trkpt>
      <trkpt lat="44.47279" lon="6.35336">
        <ele>1018.1733398438</ele>
        <time>2013-08-25T08:09:59Z</time>
      </trkpt>
      <trkpt lat="44.4726" lon="6.35316">
        <ele>1015.7702636719</ele>
        <time>2013-08-25T08:10:03Z</time>
      </trkpt>
      <trkpt lat="44.47253" lon="6.35317">
        <ele>1015.2895507812</ele>
        <time>2013-08-25T08:10:04Z</time>
      </trkpt>
      <trkpt lat="44.47232" lon="6.35322">
        <ele>1013.8474121094</ele>
        <time>2013-08-25T08:10:07Z</time>
      </trkpt>
      <trkpt lat="44.47197" lon="6.35329">
        <ele>1010.9636230469</ele>
        <time>2013-08-25T08:10:11Z</time>
      </trkpt>
      <trkpt lat="44.47188" lon="6.35333">
        <ele>1010.4829101562</ele>
        <time>2013-08-25T08:10:12Z</time>
      </trkpt>
      <trkpt lat="44.47157" lon="6.35358">
        <ele>1007.5991210938</ele>
        <time>2013-08-25T08:10:16Z</time>
      </trkpt>
      <trkpt lat="44.47141" lon="6.35391">
        <ele>1004.7150878906</ele>
        <time>2013-08-25T08:10:19Z</time>
      </trkpt>
      <trkpt lat="44.47136" lon="6.35416">
        <ele>1003.7536621094</ele>
        <time>2013-08-25T08:10:21Z</time>
      </trkpt>
      <trkpt lat="44.47133" lon="6.35442">
        <ele>1001.3503417969</ele>
        <time>2013-08-25T08:10:23Z</time>
      </trkpt>
      <trkpt lat="44.47123" lon="6.3548">
        <ele>999.427734375</ele>
        <time>2013-08-25T08:10:26Z</time>
      </trkpt>
      <trkpt lat="44.47094" lon="6.35537">
        <ele>995.58251953125</ele>
        <time>2013-08-25T08:10:31Z</time>
      </trkpt>
      <trkpt lat="44.47078" lon="6.35577">
        <ele>991.7373046875</ele>
        <time>2013-08-25T08:10:34Z</time>
      </trkpt>
      <trkpt lat="44.4705" lon="6.35627">
        <ele>986.44995117188</ele>
        <time>2013-08-25T08:10:38Z</time>
      </trkpt>
      <trkpt lat="44.47043" lon="6.35638">
        <ele>985.96923828125</ele>
        <time>2013-08-25T08:10:39Z</time>
      </trkpt>
      <trkpt lat="44.47025" lon="6.35682">
        <ele>980.20141601562</ele>
        <time>2013-08-25T08:10:43Z</time>
      </trkpt>
      <trkpt lat="44.47021" lon="6.35714">
        <ele>975.87548828125</ele>
        <time>2013-08-25T08:10:47Z</time>
      </trkpt>
      <trkpt lat="44.47016" lon="6.35725">
        <ele>974.43359375</ele>
        <time>2013-08-25T08:10:51Z</time>
      </trkpt>
      <trkpt lat="44.47014" lon="6.3572">
        <ele>973.95288085938</ele>
        <time>2013-08-25T08:10:52Z</time>
      </trkpt>
      <trkpt lat="44.47003" lon="6.35686">
        <ele>972.0302734375</ele>
        <time>2013-08-25T08:10:56Z</time>
      </trkpt>
      <trkpt lat="44.47003" lon="6.35646">
        <ele>969.14624023438</ele>
        <time>2013-08-25T08:11:00Z</time>
      </trkpt>
      <trkpt lat="44.47012" lon="6.35619">
        <ele>966.26220703125</ele>
        <time>2013-08-25T08:11:03Z</time>
      </trkpt>
      <trkpt lat="44.47007" lon="6.35603">
        <ele>963.85888671875</ele>
        <time>2013-08-25T08:11:07Z</time>
      </trkpt>
      <trkpt lat="44.47" lon="6.35613">
        <ele>962.89770507812</ele>
        <time>2013-08-25T08:11:09Z</time>
      </trkpt>
      <trkpt lat="44.46991" lon="6.3563">
        <ele>961.9365234375</ele>
        <time>2013-08-25T08:11:11Z</time>
      </trkpt>
      <trkpt lat="44.46959" lon="6.35674">
        <ele>957.61059570312</ele>
        <time>2013-08-25T08:11:16Z</time>
      </trkpt>
      <trkpt lat="44.46947" lon="6.35715">
        <ele>953.76513671875</ele>
        <time>2013-08-25T08:11:20Z</time>
      </trkpt>
      <trkpt lat="44.46947" lon="6.35725">
        <ele>953.28442382812</ele>
        <time>2013-08-25T08:11:21Z</time>
      </trkpt>
      <trkpt lat="44.46947" lon="6.35742">
        <ele>950.88110351562</ele>
        <time>2013-08-25T08:11:23Z</time>
      </trkpt>
      <trkpt lat="44.46932" lon="6.35733">
        <ele>947.99731445312</ele>
        <time>2013-08-25T08:11:29Z</time>
      </trkpt>
      <trkpt lat="44.4693" lon="6.35723">
        <ele>947.5166015625</ele>
        <time>2013-08-25T08:11:30Z</time>
      </trkpt>
      <trkpt lat="44.46924" lon="6.35703">
        <ele>945.59399414062</ele>
        <time>2013-08-25T08:11:32Z</time>
      </trkpt>
      <trkpt lat="44.46921" lon="6.35686">
        <ele>943.19067382812</ele>
        <time>2013-08-25T08:11:34Z</time>
      </trkpt>
      <trkpt lat="44.46915" lon="6.35682">
        <ele>942.71020507812</ele>
        <time>2013-08-25T08:11:36Z</time>
      </trkpt>
      <trkpt lat="44.46908" lon="6.35701">
        <ele>940.78735351562</ele>
        <time>2013-08-25T08:11:39Z</time>
      </trkpt>
      <trkpt lat="44.46904" lon="6.35722">
        <ele>940.30688476562</ele>
        <time>2013-08-25T08:11:41Z</time>
      </trkpt>
      <trkpt lat="44.46897" lon="6.35753">
        <ele>936.94189453125</ele>
        <time>2013-08-25T08:11:44Z</time>
      </trkpt>
      <trkpt lat="44.46911" lon="6.35816">
        <ele>933.57739257812</ele>
        <time>2013-08-25T08:11:50Z</time>
      </trkpt>
      <trkpt lat="44.46916" lon="6.35823">
        <ele>932.13549804688</ele>
        <time>2013-08-25T08:11:51Z</time>
      </trkpt>
      <trkpt lat="44.46909" lon="6.35847">
        <ele>926.36767578125</ele>
        <time>2013-08-25T08:11:58Z</time>
      </trkpt>
      <trkpt lat="44.46895" lon="6.35837">
        <ele>924.92578125</ele>
        <time>2013-08-25T08:12:00Z</time>
      </trkpt>
      <trkpt lat="44.4688" lon="6.35823">
        <ele>923.48364257812</ele>
        <time>2013-08-25T08:12:02Z</time>
      </trkpt>
      <trkpt lat="44.46859" lon="6.35802">
        <ele>920.11889648438</ele>
        <time>2013-08-25T08:12:05Z</time>
      </trkpt>
      <trkpt lat="44.46818" lon="6.35806">
        <ele>915.3125</ele>
        <time>2013-08-25T08:12:11Z</time>
      </trkpt>
      <trkpt lat="44.46797" lon="6.35788">
        <ele>910.02514648438</ele>
        <time>2013-08-25T08:12:18Z</time>
      </trkpt>
      <trkpt lat="44.46803" lon="6.35758">
        <ele>907.14111328125</ele>
        <time>2013-08-25T08:12:21Z</time>
      </trkpt>
      <trkpt lat="44.468" lon="6.35742">
        <ele>905.21850585938</ele>
        <time>2013-08-25T08:12:25Z</time>
      </trkpt>
      <trkpt lat="44.46793" lon="6.35753">
        <ele>904.25732421875</ele>
        <time>2013-08-25T08:12:27Z</time>
      </trkpt>
      <trkpt lat="44.46786" lon="6.35769">
        <ele>903.2958984375</ele>
        <time>2013-08-25T08:12:29Z</time>
      </trkpt>
      <trkpt lat="44.46768" lon="6.35819">
        <ele>898.96997070312</ele>
        <time>2013-08-25T08:12:34Z</time>
      </trkpt>
      <trkpt lat="44.4677" lon="6.35865">
        <ele>894.16357421875</ele>
        <time>2013-08-25T08:12:39Z</time>
      </trkpt>
      <trkpt lat="44.46759" lon="6.35874">
        <ele>891.76000976562</ele>
        <time>2013-08-25T08:12:46Z</time>
      </trkpt>
      <trkpt lat="44.46745" lon="6.35845">
        <ele>888.87622070312</ele>
        <time>2013-08-25T08:12:49Z</time>
      </trkpt>
      <trkpt lat="44.46739" lon="6.35826">
        <ele>887.43408203125</ele>
        <time>2013-08-25T08:12:51Z</time>
      </trkpt>
      <trkpt lat="44.46707" lon="6.35823">
        <ele>882.62768554688</ele>
        <time>2013-08-25T08:12:57Z</time>
      </trkpt>
      <trkpt lat="44.46673" lon="6.35838">
        <ele>878.78247070312</ele>
        <time>2013-08-25T08:13:02Z</time>
      </trkpt>
      <trkpt lat="44.46628" lon="6.3587">
        <ele>873.01440429688</ele>
        <time>2013-08-25T08:13:09Z</time>
      </trkpt>
      <trkpt lat="44.46623" lon="6.35877">
        <ele>872.05297851562</ele>
        <time>2013-08-25T08:13:10Z</time>
      </trkpt>
      <trkpt lat="44.46611" lon="6.35904">
        <ele>868.20776367188</ele>
        <time>2013-08-25T08:13:14Z</time>
      </trkpt>
      <trkpt lat="44.46623" lon="6.35924">
        <ele>866.28515625</ele>
        <time>2013-08-25T08:13:18Z</time>
      </trkpt>
      <trkpt lat="44.46608" lon="6.35916">
        <ele>864.36254882812</ele>
        <time>2013-08-25T08:13:23Z</time>
      </trkpt>
      <trkpt lat="44.46606" lon="6.35876">
        <ele>860.998046875</ele>
        <time>2013-08-25T08:13:28Z</time>
      </trkpt>
      <trkpt lat="44.46616" lon="6.35865">
        <ele>859.0751953125</ele>
        <time>2013-08-25T08:13:30Z</time>
      </trkpt>
      <trkpt lat="44.46625" lon="6.35859">
        <ele>858.59448242188</ele>
        <time>2013-08-25T08:13:32Z</time>
      </trkpt>
      <trkpt lat="44.46615" lon="6.35852">
        <ele>856.19116210938</ele>
        <time>2013-08-25T08:13:37Z</time>
      </trkpt>
      <trkpt lat="44.46604" lon="6.35861">
        <ele>854.74926757812</ele>
        <time>2013-08-25T08:13:39Z</time>
      </trkpt>
      <trkpt lat="44.46587" lon="6.35886">
        <ele>852.34594726562</ele>
        <time>2013-08-25T08:13:43Z</time>
      </trkpt>
      <trkpt lat="44.46585" lon="6.35913">
        <ele>849.94287109375</ele>
        <time>2013-08-25T08:13:46Z</time>
      </trkpt>
      <trkpt lat="44.46583" lon="6.35925">
        <ele>848.50073242188</ele>
        <time>2013-08-25T08:13:48Z</time>
      </trkpt>
      <trkpt lat="44.46576" lon="6.35928">
        <ele>847.05883789062</ele>
        <time>2013-08-25T08:13:51Z</time>
      </trkpt>
      <trkpt lat="44.46576" lon="6.35918">
        <ele>846.09765625</ele>
        <time>2013-08-25T08:13:53Z</time>
      </trkpt>
      <trkpt lat="44.46579" lon="6.35904">
        <ele>845.61694335938</ele>
        <time>2013-08-25T08:13:55Z</time>
      </trkpt>
      <trkpt lat="44.46582" lon="6.35878">
        <ele>843.69409179688</ele>
        <time>2013-08-25T08:13:58Z</time>
      </trkpt>
      <trkpt lat="44.46588" lon="6.35865">
        <ele>842.73291015625</ele>
        <time>2013-08-25T08:14:00Z</time>
      </trkpt>
      <trkpt lat="44.46597" lon="6.35857">
        <ele>842.25219726562</ele>
        <time>2013-08-25T08:14:02Z</time>
      </trkpt>
      <trkpt lat="44.46578" lon="6.35854">
        <ele>839.3681640625</ele>
        <time>2013-08-25T08:14:07Z</time>
      </trkpt>
      <trkpt lat="44.46571" lon="6.35874">
        <ele>838.40698242188</ele>
        <time>2013-08-25T08:14:09Z</time>
      </trkpt>
      <trkpt lat="44.46564" lon="6.35894">
        <ele>836.00366210938</ele>
        <time>2013-08-25T08:14:11Z</time>
      </trkpt>
      <trkpt lat="44.46549" lon="6.35922">
        <ele>832.63916015625</ele>
        <time>2013-08-25T08:14:15Z</time>
      </trkpt>
      <trkpt lat="44.46553" lon="6.35959">
        <ele>828.31323242188</ele>
        <time>2013-08-25T08:14:20Z</time>
      </trkpt>
      <trkpt lat="44.46576" lon="6.35981">
        <ele>824.94848632812</ele>
        <time>2013-08-25T08:14:24Z</time>
      </trkpt>
      <trkpt lat="44.46582" lon="6.35984">
        <ele>823.98706054688</ele>
        <time>2013-08-25T08:14:25Z</time>
      </trkpt>
      <trkpt lat="44.46601" lon="6.35994">
        <ele>822.064453125</ele>
        <time>2013-08-25T08:14:28Z</time>
      </trkpt>
      <trkpt lat="44.46623" lon="6.36011">
        <ele>818.21923828125</ele>
        <time>2013-08-25T08:14:32Z</time>
      </trkpt>
      <trkpt lat="44.46627" lon="6.36015">
        <ele>817.73852539062</ele>
        <time>2013-08-25T08:14:33Z</time>
      </trkpt>
      <trkpt lat="44.46627" lon="6.36021">
        <ele>816.77734375</ele>
        <time>2013-08-25T08:14:35Z</time>
      </trkpt>
      <trkpt lat="44.46614" lon="6.36018">
        <ele>815.33544921875</ele>
        <time>2013-08-25T08:14:38Z</time>
      </trkpt>
      <trkpt lat="44.46603" lon="6.3601">
        <ele>814.85473632812</ele>
        <time>2013-08-25T08:14:40Z</time>
      </trkpt>
      <trkpt lat="44.46556" lon="6.35991">
        <ele>810.52856445312</ele>
        <time>2013-08-25T08:14:46Z</time>
      </trkpt>
      <trkpt lat="44.4653" lon="6.3598">
        <ele>807.64477539062</ele>
        <time>2013-08-25T08:14:50Z</time>
      </trkpt>
      <trkpt lat="44.46527" lon="6.3598">
        <ele>807.64477539062</ele>
        <time>2013-08-25T08:14:51Z</time>
      </trkpt>
      <trkpt lat="44.46521" lon="6.3598">
        <ele>806.20263671875</ele>
        <time>2013-08-25T08:14:59Z</time>
      </trkpt>
      <trkpt lat="44.46519" lon="6.35982">
        <ele>806.20263671875</ele>
        <time>2013-08-25T08:15:27Z</time>
      </trkpt>
      <trkpt lat="44.46515" lon="6.35998">
        <ele>806.20263671875</ele>
        <time>2013-08-25T08:15:31Z</time>
      </trkpt>
      <trkpt lat="44.4652" lon="6.36058">
        <ele>805.24145507812</ele>
        <time>2013-08-25T08:15:38Z</time>
      </trkpt>
      <trkpt lat="44.46489" lon="6.3614">
        <ele>805.24145507812</ele>
        <time>2013-08-25T08:15:48Z</time>
      </trkpt>
      <trkpt lat="44.46472" lon="6.36153">
        <ele>804.7607421875</ele>
        <time>2013-08-25T08:15:51Z</time>
      </trkpt>
      <trkpt lat="44.4644" lon="6.36174">
        <ele>804.7607421875</ele>
        <time>2013-08-25T08:15:56Z</time>
      </trkpt>
      <trkpt lat="44.46349" lon="6.36218">
        <ele>803.31884765625</ele>
        <time>2013-08-25T08:16:11Z</time>
      </trkpt>
      <trkpt lat="44.46312" lon="6.36239">
        <ele>803.31884765625</ele>
        <time>2013-08-25T08:16:17Z</time>
      </trkpt>
      <trkpt lat="44.46282" lon="6.36315">
        <ele>802.357421875</ele>
        <time>2013-08-25T08:16:26Z</time>
      </trkpt>
      <trkpt lat="44.46283" lon="6.36335">
        <ele>802.357421875</ele>
        <time>2013-08-25T08:16:28Z</time>
      </trkpt>
      <trkpt lat="44.46304" lon="6.36478">
        <ele>805.72216796875</ele>
        <time>2013-08-25T08:16:45Z</time>
      </trkpt>
      <trkpt lat="44.46347" lon="6.36589">
        <ele>808.12548828125</ele>
        <time>2013-08-25T08:17:02Z</time>
      </trkpt>
      <trkpt lat="44.46379" lon="6.36645">
        <ele>807.1640625</ele>
        <time>2013-08-25T08:17:10Z</time>
      </trkpt>
      <trkpt lat="44.46387" lon="6.3673">
        <ele>804.2802734375</ele>
        <time>2013-08-25T08:17:18Z</time>
      </trkpt>
      <trkpt lat="44.46383" lon="6.36741">
        <ele>804.2802734375</ele>
        <time>2013-08-25T08:17:19Z</time>
      </trkpt>
      <trkpt lat="44.46373" lon="6.36762">
        <ele>804.2802734375</ele>
        <time>2013-08-25T08:17:21Z</time>
      </trkpt>
      <trkpt lat="44.46312" lon="6.3685">
        <ele>802.83813476562</ele>
        <time>2013-08-25T08:17:33Z</time>
      </trkpt>
      <trkpt lat="44.46228" lon="6.3697">
        <ele>801.876953125</ele>
        <time>2013-08-25T08:17:49Z</time>
      </trkpt>
      <trkpt lat="44.46205" lon="6.37005">
        <ele>802.357421875</ele>
        <time>2013-08-25T08:17:54Z</time>
      </trkpt>
      <trkpt lat="44.46177" lon="6.37122">
        <ele>803.31884765625</ele>
        <time>2013-08-25T08:18:08Z</time>
      </trkpt>
      <trkpt lat="44.46169" lon="6.37176">
        <ele>803.31884765625</ele>
        <time>2013-08-25T08:18:14Z</time>
      </trkpt>
      <trkpt lat="44.46148" lon="6.37239">
        <ele>802.357421875</ele>
        <time>2013-08-25T08:18:21Z</time>
      </trkpt>
      <trkpt lat="44.46053" lon="6.37391">
        <ele>800.91552734375</ele>
        <time>2013-08-25T08:18:42Z</time>
      </trkpt>
      <trkpt lat="44.46001" lon="6.37511">
        <ele>801.39624023438</ele>
        <time>2013-08-25T08:18:58Z</time>
      </trkpt>
      <trkpt lat="44.45952" lon="6.37696">
        <ele>804.2802734375</ele>
        <time>2013-08-25T08:19:23Z</time>
      </trkpt>
      <trkpt lat="44.45884" lon="6.37818">
        <ele>807.1640625</ele>
        <time>2013-08-25T08:19:44Z</time>
      </trkpt>
      <trkpt lat="44.45834" lon="6.37887">
        <ele>808.60595703125</ele>
        <time>2013-08-25T08:19:58Z</time>
      </trkpt>
      <trkpt lat="44.45764" lon="6.38028">
        <ele>811.48999023438</ele>
        <time>2013-08-25T08:20:23Z</time>
      </trkpt>
      <trkpt lat="44.45751" lon="6.38056">
        <ele>812.45141601562</ele>
        <time>2013-08-25T08:20:28Z</time>
      </trkpt>
      <trkpt lat="44.45733" lon="6.38235">
        <ele>814.85473632812</ele>
        <time>2013-08-25T08:20:47Z</time>
      </trkpt>
      <trkpt lat="44.45724" lon="6.3838">
        <ele>817.25805664062</ele>
        <time>2013-08-25T08:21:08Z</time>
      </trkpt>
      <trkpt lat="44.45707" lon="6.38489">
        <ele>818.69995117188</ele>
        <time>2013-08-25T08:21:25Z</time>
      </trkpt>
      <trkpt lat="44.45678" lon="6.38553">
        <ele>820.14184570312</ele>
        <time>2013-08-25T08:21:36Z</time>
      </trkpt>
      <trkpt lat="44.45613" lon="6.38629">
        <ele>819.66137695312</ele>
        <time>2013-08-25T08:21:53Z</time>
      </trkpt>
      <trkpt lat="44.4555" lon="6.38676">
        <ele>816.29663085938</ele>
        <time>2013-08-25T08:22:03Z</time>
      </trkpt>
      <trkpt lat="44.45501" lon="6.38696">
        <ele>813.89331054688</ele>
        <time>2013-08-25T08:22:09Z</time>
      </trkpt>
      <trkpt lat="44.45415" lon="6.38679">
        <ele>810.0478515625</ele>
        <time>2013-08-25T08:22:18Z</time>
      </trkpt>
      <trkpt lat="44.45406" lon="6.38676">
        <ele>810.0478515625</ele>
        <time>2013-08-25T08:22:19Z</time>
      </trkpt>
      <trkpt lat="44.4529" lon="6.38645">
        <ele>806.68334960938</ele>
        <time>2013-08-25T08:22:33Z</time>
      </trkpt>
      <trkpt lat="44.45282" lon="6.38643">
        <ele>806.68334960938</ele>
        <time>2013-08-25T08:22:34Z</time>
      </trkpt>
      <trkpt lat="44.45239" lon="6.38671">
        <ele>804.7607421875</ele>
        <time>2013-08-25T08:22:41Z</time>
      </trkpt>
      <trkpt lat="44.45217" lon="6.38749">
        <ele>807.1640625</ele>
        <time>2013-08-25T08:22:53Z</time>
      </trkpt>
      <trkpt lat="44.45212" lon="6.38828">
        <ele>809.5673828125</ele>
        <time>2013-08-25T08:23:09Z</time>
      </trkpt>
      <trkpt lat="44.45227" lon="6.38901">
        <ele>812.93212890625</ele>
        <time>2013-08-25T08:23:25Z</time>
      </trkpt>
      <trkpt lat="44.45249" lon="6.38976">
        <ele>815.81616210938</ele>
        <time>2013-08-25T08:23:41Z</time>
      </trkpt>
      <trkpt lat="44.45218" lon="6.39036">
        <ele>818.69995117188</ele>
        <time>2013-08-25T08:23:56Z</time>
      </trkpt>
      <trkpt lat="44.45172" lon="6.39088">
        <ele>822.064453125</ele>
        <time>2013-08-25T08:24:12Z</time>
      </trkpt>
      <trkpt lat="44.45141" lon="6.39114">
        <ele>823.50659179688</ele>
        <time>2013-08-25T08:24:22Z</time>
      </trkpt>
      <trkpt lat="44.45107" lon="6.39143">
        <ele>825.90966796875</ele>
        <time>2013-08-25T08:24:33Z</time>
      </trkpt>
      <trkpt lat="44.45101" lon="6.39148">
        <ele>826.39038085938</ele>
        <time>2013-08-25T08:24:35Z</time>
      </trkpt>
      <trkpt lat="44.45047" lon="6.39181">
        <ele>829.75512695312</ele>
        <time>2013-08-25T08:24:52Z</time>
      </trkpt>
      <trkpt lat="44.45017" lon="6.39227">
        <ele>832.15844726562</ele>
        <time>2013-08-25T08:25:05Z</time>
      </trkpt>
      <trkpt lat="44.45018" lon="6.39294">
        <ele>835.04248046875</ele>
        <time>2013-08-25T08:25:20Z</time>
      </trkpt>
      <trkpt lat="44.44986" lon="6.3932">
        <ele>837.44555664062</ele>
        <time>2013-08-25T08:25:32Z</time>
      </trkpt>
      <trkpt lat="44.44946" lon="6.39337">
        <ele>840.32958984375</ele>
        <time>2013-08-25T08:25:44Z</time>
      </trkpt>
      <trkpt lat="44.44923" lon="6.39387">
        <ele>842.25219726562</ele>
        <time>2013-08-25T08:25:56Z</time>
      </trkpt>
      <trkpt lat="44.4494" lon="6.3947">
        <ele>845.13623046875</ele>
        <time>2013-08-25T08:26:12Z</time>
      </trkpt>
      <trkpt lat="44.44937" lon="6.39529">
        <ele>847.53955078125</ele>
        <time>2013-08-25T08:26:24Z</time>
      </trkpt>
      <trkpt lat="44.4492" lon="6.39608">
        <ele>850.42358398438</ele>
        <time>2013-08-25T08:26:41Z</time>
      </trkpt>
      <trkpt lat="44.44887" lon="6.39677">
        <ele>853.7880859375</ele>
        <time>2013-08-25T08:26:57Z</time>
      </trkpt>
      <trkpt lat="44.44852" lon="6.39745">
        <ele>856.671875</ele>
        <time>2013-08-25T08:27:14Z</time>
      </trkpt>
      <trkpt lat="44.44843" lon="6.398">
        <ele>860.03662109375</ele>
        <time>2013-08-25T08:27:26Z</time>
      </trkpt>
      <trkpt lat="44.44849" lon="6.39884">
        <ele>863.4013671875</ele>
        <time>2013-08-25T08:27:43Z</time>
      </trkpt>
      <trkpt lat="44.44877" lon="6.39981">
        <ele>866.76586914062</ele>
        <time>2013-08-25T08:28:03Z</time>
      </trkpt>
      <trkpt lat="44.44893" lon="6.40076">
        <ele>868.6884765625</ele>
        <time>2013-08-25T08:28:20Z</time>
      </trkpt>
      <trkpt lat="44.44897" lon="6.40178">
        <ele>872.05297851562</ele>
        <time>2013-08-25T08:28:38Z</time>
      </trkpt>
      <trkpt lat="44.44894" lon="6.40202">
        <ele>872.53369140625</ele>
        <time>2013-08-25T08:28:42Z</time>
      </trkpt>
      <trkpt lat="44.44889" lon="6.40218">
        <ele>873.01440429688</ele>
        <time>2013-08-25T08:28:45Z</time>
      </trkpt>
      <trkpt lat="44.44838" lon="6.40281">
        <ele>876.85986328125</ele>
        <time>2013-08-25T08:29:02Z</time>
      </trkpt>
      <trkpt lat="44.44799" lon="6.4034">
        <ele>879.74365234375</ele>
        <time>2013-08-25T08:29:17Z</time>
      </trkpt>
      <trkpt lat="44.4478" lon="6.4043">
        <ele>883.10815429688</ele>
        <time>2013-08-25T08:29:34Z</time>
      </trkpt>
      <trkpt lat="44.44771" lon="6.40527">
        <ele>885.9921875</ele>
        <time>2013-08-25T08:29:52Z</time>
      </trkpt>
      <trkpt lat="44.44735" lon="6.40595">
        <ele>889.35668945312</ele>
        <time>2013-08-25T08:30:08Z</time>
      </trkpt>
      <trkpt lat="44.44713" lon="6.40628">
        <ele>889.83740234375</ele>
        <time>2013-08-25T08:30:16Z</time>
      </trkpt>
      <trkpt lat="44.44664" lon="6.40701">
        <ele>893.2021484375</ele>
        <time>2013-08-25T08:30:34Z</time>
      </trkpt>
      <trkpt lat="44.44639" lon="6.40758">
        <ele>896.08618164062</ele>
        <time>2013-08-25T08:30:47Z</time>
      </trkpt>
      <trkpt lat="44.44629" lon="6.40846">
        <ele>898.96997070312</ele>
        <time>2013-08-25T08:31:04Z</time>
      </trkpt>
      <trkpt lat="44.44608" lon="6.40912">
        <ele>902.33447265625</ele>
        <time>2013-08-25T08:31:18Z</time>
      </trkpt>
      <trkpt lat="44.446" lon="6.40988">
        <ele>904.73779296875</ele>
        <time>2013-08-25T08:31:33Z</time>
      </trkpt>
      <trkpt lat="44.44577" lon="6.41078">
        <ele>908.10278320312</ele>
        <time>2013-08-25T08:31:51Z</time>
      </trkpt>
      <trkpt lat="44.44535" lon="6.41138">
        <ele>910.505859375</ele>
        <time>2013-08-25T08:32:07Z</time>
      </trkpt>
      <trkpt lat="44.44517" lon="6.41154">
        <ele>910.98657226562</ele>
        <time>2013-08-25T08:32:12Z</time>
      </trkpt>
      <trkpt lat="44.44484" lon="6.41169">
        <ele>911.94799804688</ele>
        <time>2013-08-25T08:32:19Z</time>
      </trkpt>
      <trkpt lat="44.44464" lon="6.41178">
        <ele>911.94799804688</ele>
        <time>2013-08-25T08:32:23Z</time>
      </trkpt>
      <trkpt lat="44.44445" lon="6.41187">
        <ele>911.94799804688</ele>
        <time>2013-08-25T08:32:27Z</time>
      </trkpt>
      <trkpt lat="44.44438" lon="6.41197">
        <ele>911.94799804688</ele>
        <time>2013-08-25T08:32:29Z</time>
      </trkpt>
      <trkpt lat="44.44386" lon="6.41239">
        <ele>913.38989257812</ele>
        <time>2013-08-25T08:32:41Z</time>
      </trkpt>
      <trkpt lat="44.44377" lon="6.41244">
        <ele>913.38989257812</ele>
        <time>2013-08-25T08:32:43Z</time>
      </trkpt>
      <trkpt lat="44.44335" lon="6.41267">
        <ele>913.87036132812</ele>
        <time>2013-08-25T08:32:52Z</time>
      </trkpt>
      <trkpt lat="44.4431" lon="6.4129">
        <ele>914.35107421875</ele>
        <time>2013-08-25T08:32:58Z</time>
      </trkpt>
      <trkpt lat="44.4427" lon="6.41329">
        <ele>914.35107421875</ele>
        <time>2013-08-25T08:33:08Z</time>
      </trkpt>
      <trkpt lat="44.44206" lon="6.41373">
        <ele>915.79321289062</ele>
        <time>2013-08-25T08:33:22Z</time>
      </trkpt>
      <trkpt lat="44.44191" lon="6.41384">
        <ele>915.79321289062</ele>
        <time>2013-08-25T08:33:25Z</time>
      </trkpt>
      <trkpt lat="44.44133" lon="6.41448">
        <ele>916.75439453125</ele>
        <time>2013-08-25T08:33:39Z</time>
      </trkpt>
      <trkpt lat="44.44128" lon="6.41453">
        <ele>916.75439453125</ele>
        <time>2013-08-25T08:33:40Z</time>
      </trkpt>
      <trkpt lat="44.44118" lon="6.41461">
        <ele>917.23510742188</ele>
        <time>2013-08-25T08:33:42Z</time>
      </trkpt>
      <trkpt lat="44.44097" lon="6.41475">
        <ele>917.71557617188</ele>
        <time>2013-08-25T08:33:46Z</time>
      </trkpt>
      <trkpt lat="44.4406" lon="6.41505">
        <ele>917.71557617188</ele>
        <time>2013-08-25T08:33:53Z</time>
      </trkpt>
      <trkpt lat="44.44042" lon="6.41543">
        <ele>918.1962890625</ele>
        <time>2013-08-25T08:33:58Z</time>
      </trkpt>
      <trkpt lat="44.43958" lon="6.41624">
        <ele>918.67700195312</ele>
        <time>2013-08-25T08:34:15Z</time>
      </trkpt>
      <trkpt lat="44.4388" lon="6.41681">
        <ele>919.63842773438</ele>
        <time>2013-08-25T08:34:33Z</time>
      </trkpt>
      <trkpt lat="44.43848" lon="6.41722">
        <ele>919.63842773438</ele>
        <time>2013-08-25T08:34:43Z</time>
      </trkpt>
      <trkpt lat="44.43818" lon="6.41771">
        <ele>920.11889648438</ele>
        <time>2013-08-25T08:34:56Z</time>
      </trkpt>
      <trkpt lat="44.43811" lon="6.4177">
        <ele>919.15771484375</ele>
        <time>2013-08-25T08:35:07Z</time>
      </trkpt>
      <trkpt lat="44.43808" lon="6.41769">
        <ele>919.15771484375</ele>
        <time>2013-08-25T08:35:30Z</time>
      </trkpt>
      <trkpt lat="44.43808" lon="6.41769">
        <ele>919.15771484375</ele>
        <time>2013-08-25T08:35:32Z</time>
      </trkpt>
      <trkpt lat="44.4381" lon="6.41764">
        <ele>919.63842773438</ele>
        <time>2013-08-25T08:35:36Z</time>
      </trkpt>
      <trkpt lat="44.43847" lon="6.41719">
        <ele>921.56079101562</ele>
        <time>2013-08-25T08:35:47Z</time>
      </trkpt>
      <trkpt lat="44.43913" lon="6.41648">
        <ele>924.44506835938</ele>
        <time>2013-08-25T08:36:02Z</time>
      </trkpt>
      <trkpt lat="44.43976" lon="6.41592">
        <ele>927.8095703125</ele>
        <time>2013-08-25T08:36:16Z</time>
      </trkpt>
      <trkpt lat="44.44048" lon="6.41511">
        <ele>930.69360351562</ele>
        <time>2013-08-25T08:36:33Z</time>
      </trkpt>
      <trkpt lat="44.44131" lon="6.41435">
        <ele>934.05810546875</ele>
        <time>2013-08-25T08:36:50Z</time>
      </trkpt>
      <trkpt lat="44.44223" lon="6.41329">
        <ele>936.94189453125</ele>
        <time>2013-08-25T08:37:10Z</time>
      </trkpt>
      <trkpt lat="44.44287" lon="6.41276">
        <ele>939.82592773438</ele>
        <time>2013-08-25T08:37:23Z</time>
      </trkpt>
      <trkpt lat="44.44357" lon="6.41207">
        <ele>943.19067382812</ele>
        <time>2013-08-25T08:37:38Z</time>
      </trkpt>
      <trkpt lat="44.4443" lon="6.41153">
        <ele>946.07470703125</ele>
        <time>2013-08-25T08:37:54Z</time>
      </trkpt>
      <trkpt lat="44.44506" lon="6.41087">
        <ele>948.95849609375</ele>
        <time>2013-08-25T08:38:12Z</time>
      </trkpt>
      <trkpt lat="44.44535" lon="6.41058">
        <ele>949.919921875</ele>
        <time>2013-08-25T08:38:19Z</time>
      </trkpt>
      <trkpt lat="44.44549" lon="6.41018">
        <ele>950.40063476562</ele>
        <time>2013-08-25T08:38:25Z</time>
      </trkpt>
      <trkpt lat="44.44571" lon="6.4083">
        <ele>950.88110351562</ele>
        <time>2013-08-25T08:38:49Z</time>
      </trkpt>
      <trkpt lat="44.44579" lon="6.40718">
        <ele>954.24584960938</ele>
        <time>2013-08-25T08:39:04Z</time>
      </trkpt>
      <trkpt lat="44.44591" lon="6.40645">
        <ele>957.61059570312</ele>
        <time>2013-08-25T08:39:15Z</time>
      </trkpt>
      <trkpt lat="44.44612" lon="6.40578">
        <ele>960.49438476562</ele>
        <time>2013-08-25T08:39:26Z</time>
      </trkpt>
      <trkpt lat="44.44617" lon="6.4056">
        <ele>961.9365234375</ele>
        <time>2013-08-25T08:39:29Z</time>
      </trkpt>
      <trkpt lat="44.44627" lon="6.4048">
        <ele>964.8203125</ele>
        <time>2013-08-25T08:39:42Z</time>
      </trkpt>
      <trkpt lat="44.44638" lon="6.40398">
        <ele>968.18481445312</ele>
        <time>2013-08-25T08:39:55Z</time>
      </trkpt>
      <trkpt lat="44.44654" lon="6.40331">
        <ele>971.54931640625</ele>
        <time>2013-08-25T08:40:06Z</time>
      </trkpt>
      <trkpt lat="44.4468" lon="6.40251">
        <ele>974.43359375</ele>
        <time>2013-08-25T08:40:20Z</time>
      </trkpt>
      <trkpt lat="44.44707" lon="6.40191">
        <ele>977.79809570312</ele>
        <time>2013-08-25T08:40:33Z</time>
      </trkpt>
      <trkpt lat="44.44724" lon="6.401">
        <ele>981.16284179688</ele>
        <time>2013-08-25T08:40:50Z</time>
      </trkpt>
      <trkpt lat="44.44723" lon="6.40035">
        <ele>984.04663085938</ele>
        <time>2013-08-25T08:41:02Z</time>
      </trkpt>
      <trkpt lat="44.44698" lon="6.39952">
        <ele>987.4111328125</ele>
        <time>2013-08-25T08:41:18Z</time>
      </trkpt>
      <trkpt lat="44.44676" lon="6.39888">
        <ele>990.29541015625</ele>
        <time>2013-08-25T08:41:31Z</time>
      </trkpt>
      <trkpt lat="44.44669" lon="6.39821">
        <ele>993.65991210938</ele>
        <time>2013-08-25T08:41:43Z</time>
      </trkpt>
      <trkpt lat="44.44663" lon="6.39743">
        <ele>996.5439453125</ele>
        <time>2013-08-25T08:41:57Z</time>
      </trkpt>
      <trkpt lat="44.44643" lon="6.3966">
        <ele>999.90844726562</ele>
        <time>2013-08-25T08:42:12Z</time>
      </trkpt>
      <trkpt lat="44.44622" lon="6.39581">
        <ele>1002.7922363281</ele>
        <time>2013-08-25T08:42:26Z</time>
      </trkpt>
      <trkpt lat="44.44621" lon="6.39576">
        <ele>1002.7922363281</ele>
        <time>2013-08-25T08:42:27Z</time>
      </trkpt>
      <trkpt lat="44.44621" lon="6.39484">
        <ele>1006.6376953125</ele>
        <time>2013-08-25T08:42:42Z</time>
      </trkpt>
      <trkpt lat="44.4463" lon="6.39412">
        <ele>1009.5217285156</ele>
        <time>2013-08-25T08:42:54Z</time>
      </trkpt>
      <trkpt lat="44.44642" lon="6.39368">
        <ele>1011.9250488281</ele>
        <time>2013-08-25T08:43:02Z</time>
      </trkpt>
      <trkpt lat="44.44644" lon="6.39345">
        <ele>1012.8862304688</ele>
        <time>2013-08-25T08:43:06Z</time>
      </trkpt>
      <trkpt lat="44.44638" lon="6.3931">
        <ele>1013.8474121094</ele>
        <time>2013-08-25T08:43:12Z</time>
      </trkpt>
      <trkpt lat="44.44621" lon="6.3928">
        <ele>1015.7702636719</ele>
        <time>2013-08-25T08:43:18Z</time>
      </trkpt>
      <trkpt lat="44.44555" lon="6.39239">
        <ele>1019.134765625</ele>
        <time>2013-08-25T08:43:35Z</time>
      </trkpt>
      <trkpt lat="44.44508" lon="6.39206">
        <ele>1022.0187988281</ele>
        <time>2013-08-25T08:43:48Z</time>
      </trkpt>
      <trkpt lat="44.4446" lon="6.39181">
        <ele>1025.3833007812</ele>
        <time>2013-08-25T08:44:02Z</time>
      </trkpt>
      <trkpt lat="44.44409" lon="6.39167">
        <ele>1028.748046875</ele>
        <time>2013-08-25T08:44:16Z</time>
      </trkpt>
      <trkpt lat="44.44355" lon="6.39163">
        <ele>1031.6318359375</ele>
        <time>2013-08-25T08:44:30Z</time>
      </trkpt>
      <trkpt lat="44.4433" lon="6.39137">
        <ele>1034.03515625</ele>
        <time>2013-08-25T08:44:40Z</time>
      </trkpt>
      <trkpt lat="44.44329" lon="6.39133">
        <ele>1034.5158691406</ele>
        <time>2013-08-25T08:44:41Z</time>
      </trkpt>
      <trkpt lat="44.44331" lon="6.39114">
        <ele>1035.4770507812</ele>
        <time>2013-08-25T08:44:45Z</time>
      </trkpt>
      <trkpt lat="44.44343" lon="6.39086">
        <ele>1036.9191894531</ele>
        <time>2013-08-25T08:44:52Z</time>
      </trkpt>
      <trkpt lat="44.44363" lon="6.39036">
        <ele>1039.8032226562</ele>
        <time>2013-08-25T08:45:03Z</time>
      </trkpt>
      <trkpt lat="44.44356" lon="6.3899">
        <ele>1042.2065429688</ele>
        <time>2013-08-25T08:45:13Z</time>
      </trkpt>
      <trkpt lat="44.44345" lon="6.38978">
        <ele>1042.6872558594</ele>
        <time>2013-08-25T08:45:17Z</time>
      </trkpt>
      <trkpt lat="44.44319" lon="6.38939">
        <ele>1046.0517578125</ele>
        <time>2013-08-25T08:45:28Z</time>
      </trkpt>
      <trkpt lat="44.44326" lon="6.38912">
        <ele>1047.0129394531</ele>
        <time>2013-08-25T08:45:34Z</time>
      </trkpt>
      <trkpt lat="44.44352" lon="6.38864">
        <ele>1049.4162597656</ele>
        <time>2013-08-25T08:45:45Z</time>
      </trkpt>
      <trkpt lat="44.44362" lon="6.38853">
        <ele>1050.3776855469</ele>
        <time>2013-08-25T08:45:48Z</time>
      </trkpt>
      <trkpt lat="44.44425" lon="6.38827">
        <ele>1053.7424316406</ele>
        <time>2013-08-25T08:46:04Z</time>
      </trkpt>
      <trkpt lat="44.44446" lon="6.38812">
        <ele>1054.7036132812</ele>
        <time>2013-08-25T08:46:10Z</time>
      </trkpt>
      <trkpt lat="44.44457" lon="6.38769">
        <ele>1056.1455078125</ele>
        <time>2013-08-25T08:46:18Z</time>
      </trkpt>
      <trkpt lat="44.44456" lon="6.38762">
        <ele>1056.6262207031</ele>
        <time>2013-08-25T08:46:19Z</time>
      </trkpt>
      <trkpt lat="44.44439" lon="6.38666">
        <ele>1059.5102539062</ele>
        <time>2013-08-25T08:46:35Z</time>
      </trkpt>
      <trkpt lat="44.44428" lon="6.38609">
        <ele>1061.4328613281</ele>
        <time>2013-08-25T08:46:45Z</time>
      </trkpt>
      <trkpt lat="44.44424" lon="6.38591">
        <ele>1062.3940429688</ele>
        <time>2013-08-25T08:46:48Z</time>
      </trkpt>
      <trkpt lat="44.44407" lon="6.38492">
        <ele>1065.7587890625</ele>
        <time>2013-08-25T08:47:05Z</time>
      </trkpt>
      <trkpt lat="44.44393" lon="6.38411">
        <ele>1069.1235351562</ele>
        <time>2013-08-25T08:47:19Z</time>
      </trkpt>
      <trkpt lat="44.44379" lon="6.38334">
        <ele>1072.0073242188</ele>
        <time>2013-08-25T08:47:32Z</time>
      </trkpt>
      <trkpt lat="44.44365" lon="6.38255">
        <ele>1075.3718261719</ele>
        <time>2013-08-25T08:47:46Z</time>
      </trkpt>
      <trkpt lat="44.44356" lon="6.38173">
        <ele>1078.255859375</ele>
        <time>2013-08-25T08:48:00Z</time>
      </trkpt>
      <trkpt lat="44.44381" lon="6.38103">
        <ele>1081.1398925781</ele>
        <time>2013-08-25T08:48:14Z</time>
      </trkpt>
      <trkpt lat="44.44425" lon="6.38027">
        <ele>1084.5046386719</ele>
        <time>2013-08-25T08:48:30Z</time>
      </trkpt>
      <trkpt lat="44.44463" lon="6.37965">
        <ele>1087.3884277344</ele>
        <time>2013-08-25T08:48:43Z</time>
      </trkpt>
      <trkpt lat="44.4451" lon="6.37908">
        <ele>1090.2724609375</ele>
        <time>2013-08-25T08:48:57Z</time>
      </trkpt>
      <trkpt lat="44.4458" lon="6.37856">
        <ele>1093.6369628906</ele>
        <time>2013-08-25T08:49:14Z</time>
      </trkpt>
      <trkpt lat="44.44636" lon="6.37822">
        <ele>1097.0014648438</ele>
        <time>2013-08-25T08:49:28Z</time>
      </trkpt>
      <trkpt lat="44.44702" lon="6.37758">
        <ele>1099.8854980469</ele>
        <time>2013-08-25T08:49:46Z</time>
      </trkpt>
      <trkpt lat="44.44767" lon="6.37722">
        <ele>1103.7309570312</ele>
        <time>2013-08-25T08:50:02Z</time>
      </trkpt>
      <trkpt lat="44.44835" lon="6.377">
        <ele>1107.0954589844</ele>
        <time>2013-08-25T08:50:18Z</time>
      </trkpt>
      <trkpt lat="44.44899" lon="6.37679">
        <ele>1109.9792480469</ele>
        <time>2013-08-25T08:50:35Z</time>
      </trkpt>
      <trkpt lat="44.44959" lon="6.3766">
        <ele>1113.3439941406</ele>
        <time>2013-08-25T08:50:50Z</time>
      </trkpt>
      <trkpt lat="44.45025" lon="6.37625">
        <ele>1116.2280273438</ele>
        <time>2013-08-25T08:51:07Z</time>
      </trkpt>
      <trkpt lat="44.45085" lon="6.37593">
        <ele>1119.1120605469</ele>
        <time>2013-08-25T08:51:24Z</time>
      </trkpt>
      <trkpt lat="44.45131" lon="6.37577">
        <ele>1122.4765625</ele>
        <time>2013-08-25T08:51:39Z</time>
      </trkpt>
      <trkpt lat="44.4518" lon="6.37545">
        <ele>1124.3991699219</ele>
        <time>2013-08-25T08:51:55Z</time>
      </trkpt>
      <trkpt lat="44.45186" lon="6.37536">
        <ele>1125.3603515625</ele>
        <time>2013-08-25T08:51:57Z</time>
      </trkpt>
      <trkpt lat="44.45212" lon="6.37478">
        <ele>1126.8024902344</ele>
        <time>2013-08-25T08:52:08Z</time>
      </trkpt>
      <trkpt lat="44.45235" lon="6.37413">
        <ele>1129.2055664062</ele>
        <time>2013-08-25T08:52:22Z</time>
      </trkpt>
      <trkpt lat="44.45222" lon="6.37378">
        <ele>1130.1669921875</ele>
        <time>2013-08-25T08:52:32Z</time>
      </trkpt>
      <trkpt lat="44.45206" lon="6.37325">
        <ele>1131.6088867188</ele>
        <time>2013-08-25T08:52:41Z</time>
      </trkpt>
      <trkpt lat="44.45205" lon="6.37305">
        <ele>1132.5705566406</ele>
        <time>2013-08-25T08:52:44Z</time>
      </trkpt>
      <trkpt lat="44.45205" lon="6.3726">
        <ele>1134.9738769531</ele>
        <time>2013-08-25T08:52:51Z</time>
      </trkpt>
      <trkpt lat="44.45205" lon="6.37248">
        <ele>1134.9738769531</ele>
        <time>2013-08-25T08:52:53Z</time>
      </trkpt>
      <trkpt lat="44.45198" lon="6.37219">
        <ele>1136.4157714844</ele>
        <time>2013-08-25T08:52:58Z</time>
      </trkpt>
      <trkpt lat="44.45183" lon="6.37196">
        <ele>1137.376953125</ele>
        <time>2013-08-25T08:53:03Z</time>
      </trkpt>
      <trkpt lat="44.45172" lon="6.37186">
        <ele>1137.8576660156</ele>
        <time>2013-08-25T08:53:06Z</time>
      </trkpt>
      <trkpt lat="44.45107" lon="6.37161">
        <ele>1140.7414550781</ele>
        <time>2013-08-25T08:53:21Z</time>
      </trkpt>
      <trkpt lat="44.45033" lon="6.37123">
        <ele>1144.1062011719</ele>
        <time>2013-08-25T08:53:39Z</time>
      </trkpt>
      <trkpt lat="44.44957" lon="6.37093">
        <ele>1146.0288085938</ele>
        <time>2013-08-25T08:53:57Z</time>
      </trkpt>
      <trkpt lat="44.44872" lon="6.3708">
        <ele>1143.1447753906</ele>
        <time>2013-08-25T08:54:09Z</time>
      </trkpt>
      <trkpt lat="44.44802" lon="6.37063">
        <ele>1139.7802734375</ele>
        <time>2013-08-25T08:54:16Z</time>
      </trkpt>
      <trkpt lat="44.44746" lon="6.37049">
        <ele>1136.4157714844</ele>
        <time>2013-08-25T08:54:21Z</time>
      </trkpt>
      <trkpt lat="44.44735" lon="6.37046">
        <ele>1136.4157714844</ele>
        <time>2013-08-25T08:54:22Z</time>
      </trkpt>
      <trkpt lat="44.44689" lon="6.37033">
        <ele>1133.0510253906</ele>
        <time>2013-08-25T08:54:26Z</time>
      </trkpt>
      <trkpt lat="44.44643" lon="6.37012">
        <ele>1129.6862792969</ele>
        <time>2013-08-25T08:54:30Z</time>
      </trkpt>
      <trkpt lat="44.44595" lon="6.36986">
        <ele>1126.3217773438</ele>
        <time>2013-08-25T08:54:34Z</time>
      </trkpt>
      <trkpt lat="44.44547" lon="6.36925">
        <ele>1122.4765625</ele>
        <time>2013-08-25T08:54:39Z</time>
      </trkpt>
      <trkpt lat="44.44525" lon="6.36878">
        <ele>1120.5539550781</ele>
        <time>2013-08-25T08:54:42Z</time>
      </trkpt>
      <trkpt lat="44.44488" lon="6.36822">
        <ele>1117.189453125</ele>
        <time>2013-08-25T08:54:46Z</time>
      </trkpt>
      <trkpt lat="44.44443" lon="6.36748">
        <ele>1113.8244628906</ele>
        <time>2013-08-25T08:54:51Z</time>
      </trkpt>
      <trkpt lat="44.44411" lon="6.36686">
        <ele>1110.4599609375</ele>
        <time>2013-08-25T08:54:55Z</time>
      </trkpt>
      <trkpt lat="44.44403" lon="6.3667">
        <ele>1109.9792480469</ele>
        <time>2013-08-25T08:54:56Z</time>
      </trkpt>
      <trkpt lat="44.44387" lon="6.36638">
        <ele>1108.0568847656</ele>
        <time>2013-08-25T08:54:58Z</time>
      </trkpt>
      <trkpt lat="44.44375" lon="6.36583">
        <ele>1105.6535644531</ele>
        <time>2013-08-25T08:55:01Z</time>
      </trkpt>
      <trkpt lat="44.4438" lon="6.36526">
        <ele>1102.2888183594</ele>
        <time>2013-08-25T08:55:04Z</time>
      </trkpt>
      <trkpt lat="44.44428" lon="6.36457">
        <ele>1099.4047851562</ele>
        <time>2013-08-25T08:55:09Z</time>
      </trkpt>
      <trkpt lat="44.44466" lon="6.36433">
        <ele>1096.5209960938</ele>
        <time>2013-08-25T08:55:12Z</time>
      </trkpt>
      <trkpt lat="44.44521" lon="6.36424">
        <ele>1093.15625</ele>
        <time>2013-08-25T08:55:16Z</time>
      </trkpt>
      <trkpt lat="44.44548" lon="6.36435">
        <ele>1091.2336425781</ele>
        <time>2013-08-25T08:55:18Z</time>
      </trkpt>
      <trkpt lat="44.44573" lon="6.36451">
        <ele>1089.7917480469</ele>
        <time>2013-08-25T08:55:20Z</time>
      </trkpt>
      <trkpt lat="44.44599" lon="6.36461">
        <ele>1089.3110351562</ele>
        <time>2013-08-25T08:55:22Z</time>
      </trkpt>
      <trkpt lat="44.44638" lon="6.36451">
        <ele>1085.4658203125</ele>
        <time>2013-08-25T08:55:25Z</time>
      </trkpt>
      <trkpt lat="44.44672" lon="6.36396">
        <ele>1082.5817871094</ele>
        <time>2013-08-25T08:55:29Z</time>
      </trkpt>
      <trkpt lat="44.44678" lon="6.36341">
        <ele>1078.7365722656</ele>
        <time>2013-08-25T08:55:32Z</time>
      </trkpt>
      <trkpt lat="44.44674" lon="6.36246">
        <ele>1073.9299316406</ele>
        <time>2013-08-25T08:55:37Z</time>
      </trkpt>
      <trkpt lat="44.44685" lon="6.36149">
        <ele>1070.0847167969</ele>
        <time>2013-08-25T08:55:42Z</time>
      </trkpt>
      <trkpt lat="44.44689" lon="6.3613">
        <ele>1069.6042480469</ele>
        <time>2013-08-25T08:55:43Z</time>
      </trkpt>
      <trkpt lat="44.44707" lon="6.36036">
        <ele>1066.2392578125</ele>
        <time>2013-08-25T08:55:48Z</time>
      </trkpt>
      <trkpt lat="44.44722" lon="6.35959">
        <ele>1062.8747558594</ele>
        <time>2013-08-25T08:55:52Z</time>
      </trkpt>
      <trkpt lat="44.44737" lon="6.35881">
        <ele>1059.5102539062</ele>
        <time>2013-08-25T08:55:56Z</time>
      </trkpt>
      <trkpt lat="44.44751" lon="6.35805">
        <ele>1056.6262207031</ele>
        <time>2013-08-25T08:56:00Z</time>
      </trkpt>
      <trkpt lat="44.44755" lon="6.35766">
        <ele>1054.7036132812</ele>
        <time>2013-08-25T08:56:02Z</time>
      </trkpt>
      <trkpt lat="44.44755" lon="6.35727">
        <ele>1053.7424316406</ele>
        <time>2013-08-25T08:56:04Z</time>
      </trkpt>
      <trkpt lat="44.44743" lon="6.35672">
        <ele>1050.3776855469</ele>
        <time>2013-08-25T08:56:07Z</time>
      </trkpt>
      <trkpt lat="44.4472" lon="6.35622">
        <ele>1047.9743652344</ele>
        <time>2013-08-25T08:56:10Z</time>
      </trkpt>
      <trkpt lat="44.44672" lon="6.35548">
        <ele>1044.1291503906</ele>
        <time>2013-08-25T08:56:15Z</time>
      </trkpt>
      <trkpt lat="44.44629" lon="6.35494">
        <ele>1040.7644042969</ele>
        <time>2013-08-25T08:56:19Z</time>
      </trkpt>
      <trkpt lat="44.44582" lon="6.35448">
        <ele>1037.3999023438</ele>
        <time>2013-08-25T08:56:23Z</time>
      </trkpt>
      <trkpt lat="44.44559" lon="6.35426">
        <ele>1036.4387207031</ele>
        <time>2013-08-25T08:56:25Z</time>
      </trkpt>
      <trkpt lat="44.44514" lon="6.35378">
        <ele>1033.0737304688</ele>
        <time>2013-08-25T08:56:29Z</time>
      </trkpt>
      <trkpt lat="44.44475" lon="6.35323">
        <ele>1029.7092285156</ele>
        <time>2013-08-25T08:56:33Z</time>
      </trkpt>
      <trkpt lat="44.44466" lon="6.35309">
        <ele>1029.7092285156</ele>
        <time>2013-08-25T08:56:34Z</time>
      </trkpt>
      <trkpt lat="44.44429" lon="6.35255">
        <ele>1026.8254394531</ele>
        <time>2013-08-25T08:56:38Z</time>
      </trkpt>
      <trkpt lat="44.44384" lon="6.35187">
        <ele>1023.94140625</ele>
        <time>2013-08-25T08:56:43Z</time>
      </trkpt>
      <trkpt lat="44.44353" lon="6.35128">
        <ele>1020.5769042969</ele>
        <time>2013-08-25T08:56:47Z</time>
      </trkpt>
      <trkpt lat="44.44347" lon="6.35112">
        <ele>1020.5769042969</ele>
        <time>2013-08-25T08:56:48Z</time>
      </trkpt>
      <trkpt lat="44.44326" lon="6.35008">
        <ele>1016.2507324219</ele>
        <time>2013-08-25T08:56:54Z</time>
      </trkpt>
      <trkpt lat="44.44324" lon="6.3499">
        <ele>1016.2507324219</ele>
        <time>2013-08-25T08:56:55Z</time>
      </trkpt>
      <trkpt lat="44.44321" lon="6.34918">
        <ele>1012.8862304688</ele>
        <time>2013-08-25T08:56:59Z</time>
      </trkpt>
      <trkpt lat="44.44337" lon="6.34758">
        <ele>1012.4055175781</ele>
        <time>2013-08-25T08:57:09Z</time>
      </trkpt>
      <trkpt lat="44.44357" lon="6.34595">
        <ele>1011.4443359375</ele>
        <time>2013-08-25T08:57:22Z</time>
      </trkpt>
      <trkpt lat="44.44397" lon="6.34319">
        <ele>1012.4055175781</ele>
        <time>2013-08-25T08:57:47Z</time>
      </trkpt>
      <trkpt lat="44.44445" lon="6.34216">
        <ele>1013.3669433594</ele>
        <time>2013-08-25T08:57:59Z</time>
      </trkpt>
      <trkpt lat="44.44523" lon="6.34106">
        <ele>1015.7702636719</ele>
        <time>2013-08-25T08:58:18Z</time>
      </trkpt>
      <trkpt lat="44.44574" lon="6.34033">
        <ele>1019.134765625</ele>
        <time>2013-08-25T08:58:34Z</time>
      </trkpt>
      <trkpt lat="44.44624" lon="6.33963">
        <ele>1022.0187988281</ele>
        <time>2013-08-25T08:58:50Z</time>
      </trkpt>
      <trkpt lat="44.44665" lon="6.33902">
        <ele>1025.3833007812</ele>
        <time>2013-08-25T08:59:04Z</time>
      </trkpt>
      <trkpt lat="44.44717" lon="6.3383">
        <ele>1028.2673339844</ele>
        <time>2013-08-25T08:59:22Z</time>
      </trkpt>
      <trkpt lat="44.44748" lon="6.33774">
        <ele>1029.228515625</ele>
        <time>2013-08-25T08:59:38Z</time>
      </trkpt>
      <trkpt lat="44.44782" lon="6.33682">
        <ele>1027.7866210938</ele>
        <time>2013-08-25T08:59:56Z</time>
      </trkpt>
      <trkpt lat="44.44831" lon="6.33549">
        <ele>1024.9028320312</ele>
        <time>2013-08-25T09:00:16Z</time>
      </trkpt>
      <trkpt lat="44.44861" lon="6.33431">
        <ele>1022.0187988281</ele>
        <time>2013-08-25T09:00:30Z</time>
      </trkpt>
      <trkpt lat="44.44862" lon="6.33371">
        <ele>1018.6540527344</ele>
        <time>2013-08-25T09:00:35Z</time>
      </trkpt>
      <trkpt lat="44.44861" lon="6.33358">
        <ele>1018.6540527344</ele>
        <time>2013-08-25T09:00:36Z</time>
      </trkpt>
      <trkpt lat="44.44845" lon="6.33267">
        <ele>1015.2895507812</ele>
        <time>2013-08-25T09:00:43Z</time>
      </trkpt>
      <trkpt lat="44.44813" lon="6.33193">
        <ele>1012.4055175781</ele>
        <time>2013-08-25T09:00:49Z</time>
      </trkpt>
      <trkpt lat="44.44756" lon="6.3312">
        <ele>1008.5603027344</ele>
        <time>2013-08-25T09:00:56Z</time>
      </trkpt>
      <trkpt lat="44.44746" lon="6.33112">
        <ele>1008.0798339844</ele>
        <time>2013-08-25T09:00:57Z</time>
      </trkpt>
      <trkpt lat="44.44697" lon="6.3307">
        <ele>1004.7150878906</ele>
        <time>2013-08-25T09:01:02Z</time>
      </trkpt>
      <trkpt lat="44.44627" lon="6.33013">
        <ele>1001.3503417969</ele>
        <time>2013-08-25T09:01:09Z</time>
      </trkpt>
      <trkpt lat="44.44599" lon="6.32988">
        <ele>1000.8696289062</ele>
        <time>2013-08-25T09:01:12Z</time>
      </trkpt>
      <trkpt lat="44.44564" lon="6.32888">
        <ele>998.46630859375</ele>
        <time>2013-08-25T09:01:20Z</time>
      </trkpt>
      <trkpt lat="44.44595" lon="6.32799">
        <ele>996.06323242188</ele>
        <time>2013-08-25T09:01:27Z</time>
      </trkpt>
      <trkpt lat="44.44603" lon="6.32789">
        <ele>996.06323242188</ele>
        <time>2013-08-25T09:01:28Z</time>
      </trkpt>
      <trkpt lat="44.4475" lon="6.32631">
        <ele>994.140625</ele>
        <time>2013-08-25T09:01:47Z</time>
      </trkpt>
      <trkpt lat="44.44788" lon="6.32581">
        <ele>990.77587890625</ele>
        <time>2013-08-25T09:01:52Z</time>
      </trkpt>
      <trkpt lat="44.44805" lon="6.32561">
        <ele>989.333984375</ele>
        <time>2013-08-25T09:01:54Z</time>
      </trkpt>
      <trkpt lat="44.44849" lon="6.32509">
        <ele>985.96923828125</ele>
        <time>2013-08-25T09:01:59Z</time>
      </trkpt>
      <trkpt lat="44.44896" lon="6.32456">
        <ele>984.04663085938</ele>
        <time>2013-08-25T09:02:04Z</time>
      </trkpt>
      <trkpt lat="44.44988" lon="6.32328">
        <ele>985.48852539062</ele>
        <time>2013-08-25T09:02:17Z</time>
      </trkpt>
      <trkpt lat="44.45075" lon="6.32179">
        <ele>988.37280273438</ele>
        <time>2013-08-25T09:02:35Z</time>
      </trkpt>
      <trkpt lat="44.45142" lon="6.3206">
        <ele>989.81469726562</ele>
        <time>2013-08-25T09:02:53Z</time>
      </trkpt>
      <trkpt lat="44.45213" lon="6.31938">
        <ele>990.77587890625</ele>
        <time>2013-08-25T09:03:14Z</time>
      </trkpt>
      <trkpt lat="44.45302" lon="6.31845">
        <ele>990.29541015625</ele>
        <time>2013-08-25T09:03:30Z</time>
      </trkpt>
      <trkpt lat="44.45451" lon="6.31689">
        <ele>990.77587890625</ele>
        <time>2013-08-25T09:03:54Z</time>
      </trkpt>
      <trkpt lat="44.4551" lon="6.3155">
        <ele>988.853515625</ele>
        <time>2013-08-25T09:04:10Z</time>
      </trkpt>
      <trkpt lat="44.45569" lon="6.31402">
        <ele>989.81469726562</ele>
        <time>2013-08-25T09:04:29Z</time>
      </trkpt>
      <trkpt lat="44.4559" lon="6.3135">
        <ele>992.69873046875</ele>
        <time>2013-08-25T09:04:38Z</time>
      </trkpt>
      <trkpt lat="44.45612" lon="6.31283">
        <ele>996.06323242188</ele>
        <time>2013-08-25T09:04:51Z</time>
      </trkpt>
      <trkpt lat="44.45626" lon="6.31227">
        <ele>998.94702148438</ele>
        <time>2013-08-25T09:05:02Z</time>
      </trkpt>
      <trkpt lat="44.45641" lon="6.311">
        <ele>1001.8310546875</ele>
        <time>2013-08-25T09:05:26Z</time>
      </trkpt>
      <trkpt lat="44.45642" lon="6.30993">
        <ele>998.46630859375</ele>
        <time>2013-08-25T09:05:38Z</time>
      </trkpt>
      <trkpt lat="44.45632" lon="6.30899">
        <ele>995.58251953125</ele>
        <time>2013-08-25T09:05:45Z</time>
      </trkpt>
      <trkpt lat="44.45623" lon="6.30855">
        <ele>993.65991210938</ele>
        <time>2013-08-25T09:05:48Z</time>
      </trkpt>
      <trkpt lat="44.45609" lon="6.30796">
        <ele>990.77587890625</ele>
        <time>2013-08-25T09:05:52Z</time>
      </trkpt>
      <trkpt lat="44.45594" lon="6.30733">
        <ele>987.89184570312</ele>
        <time>2013-08-25T09:05:56Z</time>
      </trkpt>
      <trkpt lat="44.45583" lon="6.30652">
        <ele>984.04663085938</ele>
        <time>2013-08-25T09:06:01Z</time>
      </trkpt>
      <trkpt lat="44.45576" lon="6.30568">
        <ele>981.16284179688</ele>
        <time>2013-08-25T09:06:06Z</time>
      </trkpt>
      <trkpt lat="44.4557" lon="6.30484">
        <ele>977.31762695312</ele>
        <time>2013-08-25T09:06:11Z</time>
      </trkpt>
      <trkpt lat="44.45564" lon="6.30399">
        <ele>974.43359375</ele>
        <time>2013-08-25T09:06:16Z</time>
      </trkpt>
      <trkpt lat="44.45557" lon="6.30331">
        <ele>970.107421875</ele>
        <time>2013-08-25T09:06:20Z</time>
      </trkpt>
      <trkpt lat="44.4553" lon="6.30253">
        <ele>966.74291992188</ele>
        <time>2013-08-25T09:06:25Z</time>
      </trkpt>
      <trkpt lat="44.45502" lon="6.30216">
        <ele>963.37841796875</ele>
        <time>2013-08-25T09:06:28Z</time>
      </trkpt>
      <trkpt lat="44.45479" lon="6.30197">
        <ele>961.9365234375</ele>
        <time>2013-08-25T09:06:30Z</time>
      </trkpt>
      <trkpt lat="44.4544" lon="6.30179">
        <ele>960.013671875</ele>
        <time>2013-08-25T09:06:33Z</time>
      </trkpt>
      <trkpt lat="44.45362" lon="6.3016">
        <ele>956.64916992188</ele>
        <time>2013-08-25T09:06:39Z</time>
      </trkpt>
      <trkpt lat="44.4525" lon="6.30134">
        <ele>955.68774414062</ele>
        <time>2013-08-25T09:06:50Z</time>
      </trkpt>
      <trkpt lat="44.45152" lon="6.30104">
        <ele>954.24584960938</ele>
        <time>2013-08-25T09:07:03Z</time>
      </trkpt>
      <trkpt lat="44.45101" lon="6.30023">
        <ele>951.36181640625</ele>
        <time>2013-08-25T09:07:12Z</time>
      </trkpt>
      <trkpt lat="44.45109" lon="6.29935">
        <ele>949.919921875</ele>
        <time>2013-08-25T09:07:19Z</time>
      </trkpt>
      <trkpt lat="44.45131" lon="6.29895">
        <ele>947.99731445312</ele>
        <time>2013-08-25T09:07:23Z</time>
      </trkpt>
      <trkpt lat="44.45193" lon="6.29818">
        <ele>945.59399414062</ele>
        <time>2013-08-25T09:07:34Z</time>
      </trkpt>
      <trkpt lat="44.45193" lon="6.29816">
        <ele>944.63256835938</ele>
        <time>2013-08-25T09:07:43Z</time>
      </trkpt>
      <trkpt lat="44.45194" lon="6.29815">
        <ele>946.55541992188</ele>
        <time>2013-08-25T09:07:47Z</time>
      </trkpt>
      <trkpt lat="44.45194" lon="6.29815">
        <ele>945.11328125</ele>
        <time>2013-08-25T09:07:48Z</time>
      </trkpt>
      <trkpt lat="44.45194" lon="6.29814">
        <ele>944.63256835938</ele>
        <time>2013-08-25T09:07:54Z</time>
      </trkpt>
      <trkpt lat="44.45174" lon="6.29844">
        <ele>945.11328125</ele>
        <time>2013-08-25T09:08:06Z</time>
      </trkpt>
      <trkpt lat="44.4519" lon="6.29849">
        <ele>944.15209960938</ele>
        <time>2013-08-25T09:08:11Z</time>
      </trkpt>
      <trkpt lat="44.45209" lon="6.29839">
        <ele>943.19067382812</ele>
        <time>2013-08-25T09:08:14Z</time>
      </trkpt>
      <trkpt lat="44.45232" lon="6.29829">
        <ele>942.71020507812</ele>
        <time>2013-08-25T09:08:17Z</time>
      </trkpt>
      <trkpt lat="44.45246" lon="6.29821">
        <ele>941.74877929688</ele>
        <time>2013-08-25T09:08:19Z</time>
      </trkpt>
      <trkpt lat="44.45343" lon="6.29773">
        <ele>939.82592773438</ele>
        <time>2013-08-25T09:08:35Z</time>
      </trkpt>
      <trkpt lat="44.45387" lon="6.29726">
        <ele>939.34521484375</ele>
        <time>2013-08-25T09:08:43Z</time>
      </trkpt>
      <trkpt lat="44.45417" lon="6.29712">
        <ele>938.86474609375</ele>
        <time>2013-08-25T09:08:48Z</time>
      </trkpt>
      <trkpt lat="44.45441" lon="6.29711">
        <ele>939.34521484375</ele>
        <time>2013-08-25T09:08:52Z</time>
      </trkpt>
      <trkpt lat="44.4546" lon="6.29705">
        <ele>939.34521484375</ele>
        <time>2013-08-25T09:08:56Z</time>
      </trkpt>
      <trkpt lat="44.45502" lon="6.29669">
        <ele>939.34521484375</ele>
        <time>2013-08-25T09:09:06Z</time>
      </trkpt>
      <trkpt lat="44.45522" lon="6.29657">
        <ele>938.38403320312</ele>
        <time>2013-08-25T09:09:10Z</time>
      </trkpt>
      <trkpt lat="44.45553" lon="6.29609">
        <ele>937.9033203125</ele>
        <time>2013-08-25T09:09:17Z</time>
      </trkpt>
      <trkpt lat="44.45604" lon="6.29476">
        <ele>937.9033203125</ele>
        <time>2013-08-25T09:09:35Z</time>
      </trkpt>
      <trkpt lat="44.45609" lon="6.29467">
        <ele>937.9033203125</ele>
        <time>2013-08-25T09:09:37Z</time>
      </trkpt>
      <trkpt lat="44.45612" lon="6.29467">
        <ele>937.42260742188</ele>
        <time>2013-08-25T09:09:49Z</time>
      </trkpt>
      <trkpt lat="44.45613" lon="6.29465">
        <ele>937.42260742188</ele>
        <time>2013-08-25T09:10:47Z</time>
      </trkpt>
      <trkpt lat="44.45612" lon="6.29466">
        <ele>937.42260742188</ele>
        <time>2013-08-25T09:11:26Z</time>
      </trkpt>
      <trkpt lat="44.45612" lon="6.29467">
        <ele>937.9033203125</ele>
        <time>2013-08-25T09:12:15Z</time>
      </trkpt>
      <trkpt lat="44.45613" lon="6.29467">
        <ele>937.42260742188</ele>
        <time>2013-08-25T09:13:21Z</time>
      </trkpt>
      <trkpt lat="44.45616" lon="6.29467">
        <ele>937.42260742188</ele>
        <time>2013-08-25T09:14:51Z</time>
      </trkpt>
      <trkpt lat="44.45617" lon="6.29467">
        <ele>937.42260742188</ele>
        <time>2013-08-25T09:16:57Z</time>
      </trkpt>
      <trkpt lat="44.45617" lon="6.29467">
        <ele>937.42260742188</ele>
        <time>2013-08-25T09:16:59Z</time>
      </trkpt>
      <trkpt lat="44.4562" lon="6.2946">
        <ele>937.42260742188</ele>
        <time>2013-08-25T09:17:03Z</time>
      </trkpt>
      <trkpt lat="44.45658" lon="6.29422">
        <ele>937.42260742188</ele>
        <time>2013-08-25T09:17:17Z</time>
      </trkpt>
      <trkpt lat="44.45693" lon="6.29357">
        <ele>937.42260742188</ele>
        <time>2013-08-25T09:17:31Z</time>
      </trkpt>
      <trkpt lat="44.45705" lon="6.29319">
        <ele>936.94189453125</ele>
        <time>2013-08-25T09:17:39Z</time>
      </trkpt>
      <trkpt lat="44.45718" lon="6.29287">
        <ele>935.98071289062</ele>
        <time>2013-08-25T09:17:44Z</time>
      </trkpt>
      <trkpt lat="44.45728" lon="6.29265">
        <ele>935.01953125</ele>
        <time>2013-08-25T09:17:48Z</time>
      </trkpt>
      <trkpt lat="44.45742" lon="6.29226">
        <ele>934.53881835938</ele>
        <time>2013-08-25T09:17:54Z</time>
      </trkpt>
      <trkpt lat="44.45749" lon="6.29195">
        <ele>933.57739257812</ele>
        <time>2013-08-25T09:17:58Z</time>
      </trkpt>
      <trkpt lat="44.45758" lon="6.29163">
        <ele>933.0966796875</ele>
        <time>2013-08-25T09:18:02Z</time>
      </trkpt>
      <trkpt lat="44.45779" lon="6.2908">
        <ele>932.6162109375</ele>
        <time>2013-08-25T09:18:13Z</time>
      </trkpt>
      <trkpt lat="44.45783" lon="6.29048">
        <ele>932.6162109375</ele>
        <time>2013-08-25T09:18:19Z</time>
      </trkpt>
      <trkpt lat="44.4583" lon="6.2898">
        <ele>930.212890625</ele>
        <time>2013-08-25T09:18:30Z</time>
      </trkpt>
      <trkpt lat="44.45872" lon="6.28928">
        <ele>926.84838867188</ele>
        <time>2013-08-25T09:18:37Z</time>
      </trkpt>
      <trkpt lat="44.45906" lon="6.289">
        <ele>924.92578125</ele>
        <time>2013-08-25T09:18:41Z</time>
      </trkpt>
      <trkpt lat="44.45956" lon="6.28877">
        <ele>922.04150390625</ele>
        <time>2013-08-25T09:18:46Z</time>
      </trkpt>
      <trkpt lat="44.45998" lon="6.28858">
        <ele>919.63842773438</ele>
        <time>2013-08-25T09:18:50Z</time>
      </trkpt>
      <trkpt lat="44.46042" lon="6.28839">
        <ele>916.27368164062</ele>
        <time>2013-08-25T09:18:54Z</time>
      </trkpt>
      <trkpt lat="44.46112" lon="6.28807">
        <ele>912.9091796875</ele>
        <time>2013-08-25T09:19:00Z</time>
      </trkpt>
      <trkpt lat="44.46147" lon="6.28797">
        <ele>910.505859375</ele>
        <time>2013-08-25T09:19:03Z</time>
      </trkpt>
      <trkpt lat="44.4617" lon="6.28796">
        <ele>909.54467773438</ele>
        <time>2013-08-25T09:19:05Z</time>
      </trkpt>
      <trkpt lat="44.46194" lon="6.28802">
        <ele>908.58325195312</ele>
        <time>2013-08-25T09:19:07Z</time>
      </trkpt>
      <trkpt lat="44.46217" lon="6.28811">
        <ele>907.62182617188</ele>
        <time>2013-08-25T09:19:09Z</time>
      </trkpt>
      <trkpt lat="44.46265" lon="6.28832">
        <ele>904.25732421875</ele>
        <time>2013-08-25T09:19:13Z</time>
      </trkpt>
      <trkpt lat="44.4629" lon="6.28842">
        <ele>902.33447265625</ele>
        <time>2013-08-25T09:19:15Z</time>
      </trkpt>
      <trkpt lat="44.46366" lon="6.28831">
        <ele>898.4892578125</ele>
        <time>2013-08-25T09:19:21Z</time>
      </trkpt>
      <trkpt lat="44.4639" lon="6.28812">
        <ele>897.04736328125</ele>
        <time>2013-08-25T09:19:23Z</time>
      </trkpt>
      <trkpt lat="44.46434" lon="6.28741">
        <ele>893.68286132812</ele>
        <time>2013-08-25T09:19:28Z</time>
      </trkpt>
      <trkpt lat="44.46448" lon="6.28666">
        <ele>891.76000976562</ele>
        <time>2013-08-25T09:19:32Z</time>
      </trkpt>
      <trkpt lat="44.46446" lon="6.28628">
        <ele>889.83740234375</ele>
        <time>2013-08-25T09:19:34Z</time>
      </trkpt>
      <trkpt lat="44.46435" lon="6.28551">
        <ele>885.9921875</ele>
        <time>2013-08-25T09:19:38Z</time>
      </trkpt>
      <trkpt lat="44.46427" lon="6.28494">
        <ele>884.55029296875</ele>
        <time>2013-08-25T09:19:41Z</time>
      </trkpt>
      <trkpt lat="44.46414" lon="6.2842">
        <ele>881.18579101562</ele>
        <time>2013-08-25T09:19:45Z</time>
      </trkpt>
      <trkpt lat="44.46395" lon="6.28331">
        <ele>877.34057617188</ele>
        <time>2013-08-25T09:19:50Z</time>
      </trkpt>
      <trkpt lat="44.46373" lon="6.28263">
        <ele>873.4951171875</ele>
        <time>2013-08-25T09:19:54Z</time>
      </trkpt>
      <trkpt lat="44.4635" lon="6.28195">
        <ele>869.64990234375</ele>
        <time>2013-08-25T09:19:58Z</time>
      </trkpt>
      <trkpt lat="44.46333" lon="6.28143">
        <ele>866.28515625</ele>
        <time>2013-08-25T09:20:01Z</time>
      </trkpt>
      <trkpt lat="44.46311" lon="6.28074">
        <ele>862.92065429688</ele>
        <time>2013-08-25T09:20:05Z</time>
      </trkpt>
      <trkpt lat="44.46287" lon="6.28003">
        <ele>860.51733398438</ele>
        <time>2013-08-25T09:20:09Z</time>
      </trkpt>
      <trkpt lat="44.46269" lon="6.2795">
        <ele>857.15258789062</ele>
        <time>2013-08-25T09:20:12Z</time>
      </trkpt>
      <trkpt lat="44.46251" lon="6.27896">
        <ele>854.26879882812</ele>
        <time>2013-08-25T09:20:15Z</time>
      </trkpt>
      <trkpt lat="44.46232" lon="6.27824">
        <ele>851.384765625</ele>
        <time>2013-08-25T09:20:19Z</time>
      </trkpt>
      <trkpt lat="44.46222" lon="6.27768">
        <ele>848.02026367188</ele>
        <time>2013-08-25T09:20:22Z</time>
      </trkpt>
      <trkpt lat="44.46213" lon="6.27694">
        <ele>844.65551757812</ele>
        <time>2013-08-25T09:20:26Z</time>
      </trkpt>
      <trkpt lat="44.46211" lon="6.27676">
        <ele>844.17504882812</ele>
        <time>2013-08-25T09:20:27Z</time>
      </trkpt>
      <trkpt lat="44.46202" lon="6.27607">
        <ele>842.73291015625</ele>
        <time>2013-08-25T09:20:31Z</time>
      </trkpt>
      <trkpt lat="44.46178" lon="6.2742">
        <ele>839.3681640625</ele>
        <time>2013-08-25T09:20:43Z</time>
      </trkpt>
      <trkpt lat="44.46173" lon="6.27375">
        <ele>838.40698242188</ele>
        <time>2013-08-25T09:20:46Z</time>
      </trkpt>
      <trkpt lat="44.46196" lon="6.27277">
        <ele>836.96484375</ele>
        <time>2013-08-25T09:20:53Z</time>
      </trkpt>
      <trkpt lat="44.46214" lon="6.27241">
        <ele>836.00366210938</ele>
        <time>2013-08-25T09:20:56Z</time>
      </trkpt>
      <trkpt lat="44.46227" lon="6.27167">
        <ele>832.63916015625</ele>
        <time>2013-08-25T09:21:01Z</time>
      </trkpt>
      <trkpt lat="44.46222" lon="6.27085">
        <ele>828.7939453125</ele>
        <time>2013-08-25T09:21:06Z</time>
      </trkpt>
      <trkpt lat="44.4622" lon="6.27034">
        <ele>826.39038085938</ele>
        <time>2013-08-25T09:21:09Z</time>
      </trkpt>
      <trkpt lat="44.46258" lon="6.26949">
        <ele>822.54516601562</ele>
        <time>2013-08-25T09:21:15Z</time>
      </trkpt>
      <trkpt lat="44.46282" lon="6.26935">
        <ele>821.10327148438</ele>
        <time>2013-08-25T09:21:17Z</time>
      </trkpt>
      <trkpt lat="44.46308" lon="6.26933">
        <ele>820.14184570312</ele>
        <time>2013-08-25T09:21:19Z</time>
      </trkpt>
      <trkpt lat="44.46377" lon="6.26897">
        <ele>815.33544921875</ele>
        <time>2013-08-25T09:21:25Z</time>
      </trkpt>
      <trkpt lat="44.46379" lon="6.26828">
        <ele>812.45141601562</ele>
        <time>2013-08-25T09:21:29Z</time>
      </trkpt>
      <trkpt lat="44.46373" lon="6.26812">
        <ele>811.970703125</ele>
        <time>2013-08-25T09:21:30Z</time>
      </trkpt>
      <trkpt lat="44.46341" lon="6.26733">
        <ele>808.60595703125</ele>
        <time>2013-08-25T09:21:35Z</time>
      </trkpt>
      <trkpt lat="44.46318" lon="6.26668">
        <ele>805.24145507812</ele>
        <time>2013-08-25T09:21:39Z</time>
      </trkpt>
      <trkpt lat="44.46297" lon="6.26603">
        <ele>802.357421875</ele>
        <time>2013-08-25T09:21:43Z</time>
      </trkpt>
      <trkpt lat="44.46278" lon="6.26535">
        <ele>799.4736328125</ele>
        <time>2013-08-25T09:21:47Z</time>
      </trkpt>
      <trkpt lat="44.46264" lon="6.26464">
        <ele>796.10913085938</ele>
        <time>2013-08-25T09:21:51Z</time>
      </trkpt>
      <trkpt lat="44.4626" lon="6.26447">
        <ele>796.10913085938</ele>
        <time>2013-08-25T09:21:52Z</time>
      </trkpt>
      <trkpt lat="44.46241" lon="6.26359">
        <ele>792.74438476562</ele>
        <time>2013-08-25T09:21:57Z</time>
      </trkpt>
      <trkpt lat="44.4622" lon="6.26275">
        <ele>789.37963867188</ele>
        <time>2013-08-25T09:22:02Z</time>
      </trkpt>
      <trkpt lat="44.46194" lon="6.26215">
        <ele>786.01513671875</ele>
        <time>2013-08-25T09:22:06Z</time>
      </trkpt>
      <trkpt lat="44.46181" lon="6.26185">
        <ele>784.09252929688</ele>
        <time>2013-08-25T09:22:08Z</time>
      </trkpt>
      <trkpt lat="44.46172" lon="6.26102">
        <ele>781.20874023438</ele>
        <time>2013-08-25T09:22:13Z</time>
      </trkpt>
      <trkpt lat="44.4618" lon="6.25984">
        <ele>778.32446289062</ele>
        <time>2013-08-25T09:22:20Z</time>
      </trkpt>
      <trkpt lat="44.46158" lon="6.25885">
        <ele>773.99853515625</ele>
        <time>2013-08-25T09:22:26Z</time>
      </trkpt>
      <trkpt lat="44.46145" lon="6.25836">
        <ele>773.03735351562</ele>
        <time>2013-08-25T09:22:29Z</time>
      </trkpt>
      <trkpt lat="44.46123" lon="6.25749">
        <ele>769.6728515625</ele>
        <time>2013-08-25T09:22:34Z</time>
      </trkpt>
      <trkpt lat="44.46086" lon="6.2559">
        <ele>766.30810546875</ele>
        <time>2013-08-25T09:22:43Z</time>
      </trkpt>
      <trkpt lat="44.46077" lon="6.25554">
        <ele>765.34692382812</ele>
        <time>2013-08-25T09:22:45Z</time>
      </trkpt>
      <trkpt lat="44.46054" lon="6.25483">
        <ele>761.98217773438</ele>
        <time>2013-08-25T09:22:52Z</time>
      </trkpt>
      <trkpt lat="44.46045" lon="6.25455">
        <ele>760.5400390625</ele>
        <time>2013-08-25T09:22:54Z</time>
      </trkpt>
      <trkpt lat="44.46025" lon="6.25397">
        <ele>757.65625</ele>
        <time>2013-08-25T09:22:58Z</time>
      </trkpt>
      <trkpt lat="44.46002" lon="6.25322">
        <ele>753.81103515625</ele>
        <time>2013-08-25T09:23:03Z</time>
      </trkpt>
      <trkpt lat="44.45982" lon="6.25259">
        <ele>750.92700195312</ele>
        <time>2013-08-25T09:23:07Z</time>
      </trkpt>
      <trkpt lat="44.45965" lon="6.25194">
        <ele>748.04321289062</ele>
        <time>2013-08-25T09:23:11Z</time>
      </trkpt>
      <trkpt lat="44.45946" lon="6.25128">
        <ele>744.19775390625</ele>
        <time>2013-08-25T09:23:15Z</time>
      </trkpt>
      <trkpt lat="44.45942" lon="6.25111">
        <ele>744.19775390625</ele>
        <time>2013-08-25T09:23:16Z</time>
      </trkpt>
      <trkpt lat="44.45924" lon="6.25043">
        <ele>740.8330078125</ele>
        <time>2013-08-25T09:23:20Z</time>
      </trkpt>
      <trkpt lat="44.45903" lon="6.24974">
        <ele>737.46850585938</ele>
        <time>2013-08-25T09:23:24Z</time>
      </trkpt>
      <trkpt lat="44.45898" lon="6.24957">
        <ele>736.98779296875</ele>
        <time>2013-08-25T09:23:25Z</time>
      </trkpt>
      <trkpt lat="44.45888" lon="6.24882">
        <ele>733.62329101562</ele>
        <time>2013-08-25T09:23:29Z</time>
      </trkpt>
      <trkpt lat="44.45887" lon="6.24844">
        <ele>732.18139648438</ele>
        <time>2013-08-25T09:23:31Z</time>
      </trkpt>
      <trkpt lat="44.45877" lon="6.24787">
        <ele>730.7392578125</ele>
        <time>2013-08-25T09:23:34Z</time>
      </trkpt>
      <trkpt lat="44.45861" lon="6.24733">
        <ele>727.37475585938</ele>
        <time>2013-08-25T09:23:37Z</time>
      </trkpt>
      <trkpt lat="44.45851" lon="6.24697">
        <ele>725.45190429688</ele>
        <time>2013-08-25T09:23:39Z</time>
      </trkpt>
      <trkpt lat="44.45846" lon="6.24602">
        <ele>721.12622070312</ele>
        <time>2013-08-25T09:23:44Z</time>
      </trkpt>
      <trkpt lat="44.45846" lon="6.24583">
        <ele>720.16479492188</ele>
        <time>2013-08-25T09:23:45Z</time>
      </trkpt>
      <trkpt lat="44.45836" lon="6.24509">
        <ele>716.80029296875</ele>
        <time>2013-08-25T09:23:49Z</time>
      </trkpt>
      <trkpt lat="44.45811" lon="6.24418">
        <ele>712.47412109375</ele>
        <time>2013-08-25T09:23:54Z</time>
      </trkpt>
      <trkpt lat="44.45789" lon="6.24345">
        <ele>709.10961914062</ele>
        <time>2013-08-25T09:23:58Z</time>
      </trkpt>
      <trkpt lat="44.45774" lon="6.24291">
        <ele>705.7451171875</ele>
        <time>2013-08-25T09:24:01Z</time>
      </trkpt>
      <trkpt lat="44.45754" lon="6.24216">
        <ele>702.38037109375</ele>
        <time>2013-08-25T09:24:05Z</time>
      </trkpt>
      <trkpt lat="44.45746" lon="6.24137">
        <ele>699.49633789062</ele>
        <time>2013-08-25T09:24:09Z</time>
      </trkpt>
      <trkpt lat="44.45745" lon="6.24097">
        <ele>698.05444335938</ele>
        <time>2013-08-25T09:24:11Z</time>
      </trkpt>
      <trkpt lat="44.45745" lon="6.24057">
        <ele>696.1318359375</ele>
        <time>2013-08-25T09:24:13Z</time>
      </trkpt>
      <trkpt lat="44.4577" lon="6.23968">
        <ele>691.80590820312</ele>
        <time>2013-08-25T09:24:18Z</time>
      </trkpt>
      <trkpt lat="44.458" lon="6.2393">
        <ele>690.84448242188</ele>
        <time>2013-08-25T09:24:21Z</time>
      </trkpt>
      <trkpt lat="44.45913" lon="6.23823">
        <ele>687.47998046875</ele>
        <time>2013-08-25T09:24:33Z</time>
      </trkpt>
      <trkpt lat="44.45978" lon="6.23776">
        <ele>685.07690429688</ele>
        <time>2013-08-25T09:24:40Z</time>
      </trkpt>
      <trkpt lat="44.46038" lon="6.23746">
        <ele>681.7119140625</ele>
        <time>2013-08-25T09:24:46Z</time>
      </trkpt>
      <trkpt lat="44.46108" lon="6.23713">
        <ele>679.30859375</ele>
        <time>2013-08-25T09:24:53Z</time>
      </trkpt>
      <trkpt lat="44.46243" lon="6.23649">
        <ele>677.38623046875</ele>
        <time>2013-08-25T09:25:09Z</time>
      </trkpt>
      <trkpt lat="44.46354" lon="6.23588">
        <ele>676.90551757812</ele>
        <time>2013-08-25T09:25:26Z</time>
      </trkpt>
      <trkpt lat="44.46448" lon="6.23537">
        <ele>675.94409179688</ele>
        <time>2013-08-25T09:25:45Z</time>
      </trkpt>
      <trkpt lat="44.46503" lon="6.23509">
        <ele>676.4248046875</ele>
        <time>2013-08-25T09:25:57Z</time>
      </trkpt>
      <trkpt lat="44.46532" lon="6.23535">
        <ele>676.4248046875</ele>
        <time>2013-08-25T09:26:06Z</time>
      </trkpt>
      <trkpt lat="44.46534" lon="6.23541">
        <ele>675.94409179688</ele>
        <time>2013-08-25T09:26:07Z</time>
      </trkpt>
      <trkpt lat="44.46559" lon="6.23671">
        <ele>674.50219726562</ele>
        <time>2013-08-25T09:26:24Z</time>
      </trkpt>
      <trkpt lat="44.46576" lon="6.23763">
        <ele>674.98291015625</ele>
        <time>2013-08-25T09:26:35Z</time>
      </trkpt>
      <trkpt lat="44.46584" lon="6.23802">
        <ele>664.86328125</ele>
        <time>2013-08-25T09:26:40Z</time>
      </trkpt>
      <trkpt lat="44.46603" lon="6.23887">
        <ele>665.84375</ele>
        <time>2013-08-25T09:26:51Z</time>
      </trkpt>
      <trkpt lat="44.46604" lon="6.23892">
        <ele>666.17578125</ele>
        <time>2013-08-25T09:26:52Z</time>
      </trkpt>
      <trkpt lat="44.46612" lon="6.23916">
        <ele>668.640625</ele>
        <time>2013-08-25T09:26:56Z</time>
      </trkpt>
      <trkpt lat="44.46627" lon="6.23962">
        <ele>674</ele>
        <time>2013-08-25T09:27:03Z</time>
      </trkpt>
      <trkpt lat="44.46637" lon="6.24003">
        <ele>675.828125</ele>
        <time>2013-08-25T09:27:09Z</time>
      </trkpt>
      <trkpt lat="44.4664" lon="6.24017">
        <ele>675.61328125</ele>
        <time>2013-08-25T09:27:11Z</time>
      </trkpt>
      <trkpt lat="44.46642" lon="6.24022">
        <ele>676.125</ele>
        <time>2013-08-25T09:27:12Z</time>
      </trkpt>
      <trkpt lat="44.46643" lon="6.24029">
        <ele>676.05078125</ele>
        <time>2013-08-25T09:27:13Z</time>
      </trkpt>
      <trkpt lat="44.46644" lon="6.24037">
        <ele>675.87109375</ele>
        <time>2013-08-25T09:27:14Z</time>
      </trkpt>
      <trkpt lat="44.46645" lon="6.24045">
        <ele>675.76953125</ele>
        <time>2013-08-25T09:27:15Z</time>
      </trkpt>
      <trkpt lat="44.46646" lon="6.24053">
        <ele>675.62109375</ele>
        <time>2013-08-25T09:27:16Z</time>
      </trkpt>
      <trkpt lat="44.46647" lon="6.24061">
        <ele>675.4375</ele>
        <time>2013-08-25T09:27:17Z</time>
      </trkpt>
      <trkpt lat="44.46649" lon="6.24077">
        <ele>676.22265625</ele>
        <time>2013-08-25T09:27:19Z</time>
      </trkpt>
      <trkpt lat="44.46649" lon="6.24086">
        <ele>676.6875</ele>
        <time>2013-08-25T09:27:20Z</time>
      </trkpt>
      <trkpt lat="44.4665" lon="6.2411">
        <ele>677.78515625</ele>
        <time>2013-08-25T09:27:23Z</time>
      </trkpt>
      <trkpt lat="44.46649" lon="6.24118">
        <ele>677.7265625</ele>
        <time>2013-08-25T09:27:24Z</time>
      </trkpt>
      <trkpt lat="44.46649" lon="6.24126">
        <ele>677.9921875</ele>
        <time>2013-08-25T09:27:25Z</time>
      </trkpt>
      <trkpt lat="44.4665" lon="6.24136">
        <ele>678.57421875</ele>
        <time>2013-08-25T09:27:26Z</time>
      </trkpt>
      <trkpt lat="44.46649" lon="6.24144">
        <ele>678.6875</ele>
        <time>2013-08-25T09:27:27Z</time>
      </trkpt>
      <trkpt lat="44.46649" lon="6.24152">
        <ele>678.95703125</ele>
        <time>2013-08-25T09:27:28Z</time>
      </trkpt>
      <trkpt lat="44.46649" lon="6.24161">
        <ele>679.359375</ele>
        <time>2013-08-25T09:27:29Z</time>
      </trkpt>
      <trkpt lat="44.46648" lon="6.24169">
        <ele>679.58984375</ele>
        <time>2013-08-25T09:27:30Z</time>
      </trkpt>
      <trkpt lat="44.46647" lon="6.24177">
        <ele>679.8671875</ele>
        <time>2013-08-25T09:27:31Z</time>
      </trkpt>
      <trkpt lat="44.46647" lon="6.24185">
        <ele>680.0625</ele>
        <time>2013-08-25T09:27:32Z</time>
      </trkpt>
      <trkpt lat="44.46646" lon="6.24194">
        <ele>680.30078125</ele>
        <time>2013-08-25T09:27:33Z</time>
      </trkpt>
      <trkpt lat="44.46645" lon="6.24202">
        <ele>680.52734375</ele>
        <time>2013-08-25T09:27:34Z</time>
      </trkpt>
      <trkpt lat="44.46644" lon="6.2421">
        <ele>681.0859375</ele>
        <time>2013-08-25T09:27:35Z</time>
      </trkpt>
      <trkpt lat="44.46643" lon="6.24218">
        <ele>681.75390625</ele>
        <time>2013-08-25T09:27:36Z</time>
      </trkpt>
      <trkpt lat="44.46643" lon="6.24226">
        <ele>682.453125</ele>
        <time>2013-08-25T09:27:37Z</time>
      </trkpt>
      <trkpt lat="44.46642" lon="6.24241">
        <ele>683.7734375</ele>
        <time>2013-08-25T09:27:39Z</time>
      </trkpt>
      <trkpt lat="44.46641" lon="6.24255">
        <ele>685.10546875</ele>
        <time>2013-08-25T09:27:41Z</time>
      </trkpt>
      <trkpt lat="44.46639" lon="6.24269">
        <ele>685.765625</ele>
        <time>2013-08-25T09:27:43Z</time>
      </trkpt>
      <trkpt lat="44.46636" lon="6.24289">
        <ele>685.49609375</ele>
        <time>2013-08-25T09:27:46Z</time>
      </trkpt>
      <trkpt lat="44.46634" lon="6.24311">
        <ele>684.4140625</ele>
        <time>2013-08-25T09:27:49Z</time>
      </trkpt>
      <trkpt lat="44.46632" lon="6.24325">
        <ele>683.140625</ele>
        <time>2013-08-25T09:27:51Z</time>
      </trkpt>
      <trkpt lat="44.46631" lon="6.24345">
        <ele>681.74609375</ele>
        <time>2013-08-25T09:27:54Z</time>
      </trkpt>
      <trkpt lat="44.46629" lon="6.24365">
        <ele>682.32421875</ele>
        <time>2013-08-25T09:27:57Z</time>
      </trkpt>
      <trkpt lat="44.46627" lon="6.24388">
        <ele>683.578125</ele>
        <time>2013-08-25T09:28:00Z</time>
      </trkpt>
      <trkpt lat="44.46625" lon="6.24411">
        <ele>685.21484375</ele>
        <time>2013-08-25T09:28:03Z</time>
      </trkpt>
      <trkpt lat="44.46623" lon="6.24435">
        <ele>686.28515625</ele>
        <time>2013-08-25T09:28:06Z</time>
      </trkpt>
      <trkpt lat="44.46622" lon="6.24461">
        <ele>686.88671875</ele>
        <time>2013-08-25T09:28:09Z</time>
      </trkpt>
      <trkpt lat="44.46619" lon="6.24488">
        <ele>687.05859375</ele>
        <time>2013-08-25T09:28:12Z</time>
      </trkpt>
      <trkpt lat="44.46616" lon="6.24526">
        <ele>687.1796875</ele>
        <time>2013-08-25T09:28:16Z</time>
      </trkpt>
      <trkpt lat="44.46613" lon="6.24563">
        <ele>683.734375</ele>
        <time>2013-08-25T09:28:20Z</time>
      </trkpt>
      <trkpt lat="44.4661" lon="6.24601">
        <ele>679.234375</ele>
        <time>2013-08-25T09:28:24Z</time>
      </trkpt>
      <trkpt lat="44.46608" lon="6.2463">
        <ele>675.97265625</ele>
        <time>2013-08-25T09:28:27Z</time>
      </trkpt>
      <trkpt lat="44.46609" lon="6.24659">
        <ele>673.6171875</ele>
        <time>2013-08-25T09:28:30Z</time>
      </trkpt>
      <trkpt lat="44.46616" lon="6.24707">
        <ele>671.1376953125</ele>
        <time>2013-08-25T09:28:35Z</time>
      </trkpt>
      <trkpt lat="44.46622" lon="6.24736">
        <ele>669.69580078125</ele>
        <time>2013-08-25T09:28:38Z</time>
      </trkpt>
      <trkpt lat="44.46627" lon="6.24766">
        <ele>668.25366210938</ele>
        <time>2013-08-25T09:28:41Z</time>
      </trkpt>
      <trkpt lat="44.46632" lon="6.24794">
        <ele>667.77270507812</ele>
        <time>2013-08-25T09:28:44Z</time>
      </trkpt>
      <trkpt lat="44.46638" lon="6.2482">
        <ele>667.29223632812</ele>
        <time>2013-08-25T09:28:47Z</time>
      </trkpt>
      <trkpt lat="44.46674" lon="6.24994">
        <ele>663.92749023438</ele>
        <time>2013-08-25T09:29:07Z</time>
      </trkpt>
      <trkpt lat="44.46721" lon="6.25137">
        <ele>663.44702148438</ele>
        <time>2013-08-25T09:29:26Z</time>
      </trkpt>
      <trkpt lat="44.46746" lon="6.25291">
        <ele>662.96630859375</ele>
        <time>2013-08-25T09:29:44Z</time>
      </trkpt>
      <trkpt lat="44.46766" lon="6.25458">
        <ele>665.36962890625</ele>
        <time>2013-08-25T09:30:06Z</time>
      </trkpt>
      <trkpt lat="44.46781" lon="6.25594">
        <ele>664.88891601562</ele>
        <time>2013-08-25T09:30:25Z</time>
      </trkpt>
      <trkpt lat="44.46812" lon="6.25735">
        <ele>665.36962890625</ele>
        <time>2013-08-25T09:30:44Z</time>
      </trkpt>
      <trkpt lat="44.46856" lon="6.25943">
        <ele>665.85034179688</ele>
        <time>2013-08-25T09:31:11Z</time>
      </trkpt>
      <trkpt lat="44.46864" lon="6.26074">
        <ele>665.85034179688</ele>
        <time>2013-08-25T09:31:27Z</time>
      </trkpt>
      <trkpt lat="44.46864" lon="6.26148">
        <ele>668.734375</ele>
        <time>2013-08-25T09:31:39Z</time>
      </trkpt>
      <trkpt lat="44.46871" lon="6.26198">
        <ele>672.09887695312</ele>
        <time>2013-08-25T09:31:52Z</time>
      </trkpt>
      <trkpt lat="44.46888" lon="6.26244">
        <ele>674.98291015625</ele>
        <time>2013-08-25T09:32:05Z</time>
      </trkpt>
      <trkpt lat="44.46903" lon="6.26291">
        <ele>678.34741210938</ele>
        <time>2013-08-25T09:32:17Z</time>
      </trkpt>
      <trkpt lat="44.46907" lon="6.26343">
        <ele>681.2314453125</ele>
        <time>2013-08-25T09:32:31Z</time>
      </trkpt>
      <trkpt lat="44.46899" lon="6.26387">
        <ele>684.59619140625</ele>
        <time>2013-08-25T09:32:42Z</time>
      </trkpt>
      <trkpt lat="44.4689" lon="6.26441">
        <ele>687.96069335938</ele>
        <time>2013-08-25T09:32:56Z</time>
      </trkpt>
      <trkpt lat="44.46882" lon="6.26491">
        <ele>690.84448242188</ele>
        <time>2013-08-25T09:33:09Z</time>
      </trkpt>
      <trkpt lat="44.4688" lon="6.26543">
        <ele>694.20922851562</ele>
        <time>2013-08-25T09:33:22Z</time>
      </trkpt>
      <trkpt lat="44.46887" lon="6.26595">
        <ele>697.09301757812</ele>
        <time>2013-08-25T09:33:35Z</time>
      </trkpt>
      <trkpt lat="44.46895" lon="6.26641">
        <ele>699.97705078125</ele>
        <time>2013-08-25T09:33:47Z</time>
      </trkpt>
      <trkpt lat="44.46903" lon="6.26687">
        <ele>703.341796875</ele>
        <time>2013-08-25T09:33:59Z</time>
      </trkpt>
      <trkpt lat="44.46924" lon="6.26697">
        <ele>704.30322265625</ele>
        <time>2013-08-25T09:34:06Z</time>
      </trkpt>
      <trkpt lat="44.46949" lon="6.26662">
        <ele>704.78369140625</ele>
        <time>2013-08-25T09:34:14Z</time>
      </trkpt>
      <trkpt lat="44.46968" lon="6.26644">
        <ele>706.2255859375</ele>
        <time>2013-08-25T09:34:20Z</time>
      </trkpt>
      <trkpt lat="44.47006" lon="6.26626">
        <ele>709.59033203125</ele>
        <time>2013-08-25T09:34:33Z</time>
      </trkpt>
      <trkpt lat="44.47044" lon="6.2661">
        <ele>712.95483398438</ele>
        <time>2013-08-25T09:34:46Z</time>
      </trkpt>
      <trkpt lat="44.47081" lon="6.26609">
        <ele>715.8388671875</ele>
        <time>2013-08-25T09:34:58Z</time>
      </trkpt>
      <trkpt lat="44.47109" lon="6.26583">
        <ele>719.20361328125</ele>
        <time>2013-08-25T09:35:09Z</time>
      </trkpt>
      <trkpt lat="44.47139" lon="6.2654">
        <ele>722.56811523438</ele>
        <time>2013-08-25T09:35:23Z</time>
      </trkpt>
      <trkpt lat="44.47138" lon="6.26499">
        <ele>724.97143554688</ele>
        <time>2013-08-25T09:35:34Z</time>
      </trkpt>
      <trkpt lat="44.47107" lon="6.26498">
        <ele>726.89404296875</ele>
        <time>2013-08-25T09:35:44Z</time>
      </trkpt>
      <trkpt lat="44.47089" lon="6.26544">
        <ele>729.77783203125</ele>
        <time>2013-08-25T09:35:57Z</time>
      </trkpt>
      <trkpt lat="44.47057" lon="6.26566">
        <ele>733.142578125</ele>
        <time>2013-08-25T09:36:10Z</time>
      </trkpt>
      <trkpt lat="44.47024" lon="6.26575">
        <ele>736.02661132812</ele>
        <time>2013-08-25T09:36:22Z</time>
      </trkpt>
      <trkpt lat="44.46985" lon="6.26582">
        <ele>739.39111328125</ele>
        <time>2013-08-25T09:36:36Z</time>
      </trkpt>
      <trkpt lat="44.46963" lon="6.26553">
        <ele>742.27514648438</ele>
        <time>2013-08-25T09:36:48Z</time>
      </trkpt>
      <trkpt lat="44.46976" lon="6.26506">
        <ele>745.15893554688</ele>
        <time>2013-08-25T09:37:01Z</time>
      </trkpt>
      <trkpt lat="44.47005" lon="6.26474">
        <ele>748.52368164062</ele>
        <time>2013-08-25T09:37:14Z</time>
      </trkpt>
      <trkpt lat="44.47037" lon="6.26441">
        <ele>751.40771484375</ele>
        <time>2013-08-25T09:37:28Z</time>
      </trkpt>
      <trkpt lat="44.47068" lon="6.26408">
        <ele>754.77221679688</ele>
        <time>2013-08-25T09:37:41Z</time>
      </trkpt>
      <trkpt lat="44.47098" lon="6.26377">
        <ele>758.13696289062</ele>
        <time>2013-08-25T09:37:54Z</time>
      </trkpt>
      <trkpt lat="44.47121" lon="6.26324">
        <ele>761.02075195312</ele>
        <time>2013-08-25T09:38:09Z</time>
      </trkpt>
      <trkpt lat="44.47117" lon="6.26266">
        <ele>764.38549804688</ele>
        <time>2013-08-25T09:38:23Z</time>
      </trkpt>
      <trkpt lat="44.471" lon="6.26221">
        <ele>766.78881835938</ele>
        <time>2013-08-25T09:38:35Z</time>
      </trkpt>
      <trkpt lat="44.47114" lon="6.26214">
        <ele>768.23071289062</ele>
        <time>2013-08-25T09:38:42Z</time>
      </trkpt>
      <trkpt lat="44.47117" lon="6.26221">
        <ele>768.71142578125</ele>
        <time>2013-08-25T09:38:44Z</time>
      </trkpt>
      <trkpt lat="44.47129" lon="6.26272">
        <ele>772.07592773438</ele>
        <time>2013-08-25T09:38:57Z</time>
      </trkpt>
      <trkpt lat="44.47151" lon="6.26316">
        <ele>775.4404296875</ele>
        <time>2013-08-25T09:39:09Z</time>
      </trkpt>
      <trkpt lat="44.47184" lon="6.26347">
        <ele>778.80517578125</ele>
        <time>2013-08-25T09:39:21Z</time>
      </trkpt>
      <trkpt lat="44.47206" lon="6.26387">
        <ele>781.68920898438</ele>
        <time>2013-08-25T09:39:34Z</time>
      </trkpt>
      <trkpt lat="44.47223" lon="6.26419">
        <ele>785.05395507812</ele>
        <time>2013-08-25T09:39:45Z</time>
      </trkpt>
      <trkpt lat="44.47253" lon="6.26447">
        <ele>788.41845703125</ele>
        <time>2013-08-25T09:39:58Z</time>
      </trkpt>
      <trkpt lat="44.47275" lon="6.26461">
        <ele>790.34106445312</ele>
        <time>2013-08-25T09:40:07Z</time>
      </trkpt>
      <trkpt lat="44.47288" lon="6.26435">
        <ele>792.74438476562</ele>
        <time>2013-08-25T09:40:17Z</time>
      </trkpt>
      <trkpt lat="44.47282" lon="6.26425">
        <ele>793.22485351562</ele>
        <time>2013-08-25T09:40:20Z</time>
      </trkpt>
      <trkpt lat="44.47252" lon="6.26386">
        <ele>796.58984375</ele>
        <time>2013-08-25T09:40:33Z</time>
      </trkpt>
      <trkpt lat="44.47229" lon="6.26345">
        <ele>799.95434570312</ele>
        <time>2013-08-25T09:40:45Z</time>
      </trkpt>
      <trkpt lat="44.4721" lon="6.26305">
        <ele>802.83813476562</ele>
        <time>2013-08-25T09:40:56Z</time>
      </trkpt>
      <trkpt lat="44.47228" lon="6.26292">
        <ele>805.24145507812</ele>
        <time>2013-08-25T09:41:04Z</time>
      </trkpt>
      <trkpt lat="44.47263" lon="6.26317">
        <ele>808.60595703125</ele>
        <time>2013-08-25T09:41:18Z</time>
      </trkpt>
      <trkpt lat="44.47288" lon="6.26352">
        <ele>811.970703125</ele>
        <time>2013-08-25T09:41:31Z</time>
      </trkpt>
      <trkpt lat="44.47305" lon="6.26386">
        <ele>814.85473632812</ele>
        <time>2013-08-25T09:41:42Z</time>
      </trkpt>
      <trkpt lat="44.47329" lon="6.26433">
        <ele>818.21923828125</ele>
        <time>2013-08-25T09:41:57Z</time>
      </trkpt>
      <trkpt lat="44.47359" lon="6.26473">
        <ele>821.58374023438</ele>
        <time>2013-08-25T09:42:12Z</time>
      </trkpt>
      <trkpt lat="44.47385" lon="6.26495">
        <ele>824.94848632812</ele>
        <time>2013-08-25T09:42:24Z</time>
      </trkpt>
      <trkpt lat="44.47388" lon="6.26541">
        <ele>827.83227539062</ele>
        <time>2013-08-25T09:42:38Z</time>
      </trkpt>
      <trkpt lat="44.47391" lon="6.26586">
        <ele>831.197265625</ele>
        <time>2013-08-25T09:42:50Z</time>
      </trkpt>
      <trkpt lat="44.47419" lon="6.26631">
        <ele>834.56176757812</ele>
        <time>2013-08-25T09:43:05Z</time>
      </trkpt>
      <trkpt lat="44.47436" lon="6.26677">
        <ele>837.92626953125</ele>
        <time>2013-08-25T09:43:19Z</time>
      </trkpt>
      <trkpt lat="44.47448" lon="6.26718">
        <ele>840.81005859375</ele>
        <time>2013-08-25T09:43:31Z</time>
      </trkpt>
      <trkpt lat="44.47454" lon="6.26766">
        <ele>844.17504882812</ele>
        <time>2013-08-25T09:43:44Z</time>
      </trkpt>
      <trkpt lat="44.47456" lon="6.26809">
        <ele>847.05883789062</ele>
        <time>2013-08-25T09:43:56Z</time>
      </trkpt>
      <trkpt lat="44.47463" lon="6.26857">
        <ele>850.42358398438</ele>
        <time>2013-08-25T09:44:09Z</time>
      </trkpt>
      <trkpt lat="44.47486" lon="6.269">
        <ele>853.30737304688</ele>
        <time>2013-08-25T09:44:23Z</time>
      </trkpt>
      <trkpt lat="44.4751" lon="6.26948">
        <ele>856.671875</ele>
        <time>2013-08-25T09:44:39Z</time>
      </trkpt>
      <trkpt lat="44.47537" lon="6.27011">
        <ele>858.59448242188</ele>
        <time>2013-08-25T09:44:55Z</time>
      </trkpt>
      <trkpt lat="44.47551" lon="6.27069">
        <ele>860.03662109375</ele>
        <time>2013-08-25T09:45:08Z</time>
      </trkpt>
      <trkpt lat="44.47563" lon="6.27108">
        <ele>859.0751953125</ele>
        <time>2013-08-25T09:45:22Z</time>
      </trkpt>
      <trkpt lat="44.47563" lon="6.27108">
        <ele>860.03662109375</ele>
        <time>2013-08-25T09:46:55Z</time>
      </trkpt>
      <trkpt lat="44.47566" lon="6.27106">
        <ele>860.998046875</ele>
        <time>2013-08-25T09:48:20Z</time>
      </trkpt>
      <trkpt lat="44.4757" lon="6.2711">
        <ele>860.51733398438</ele>
        <time>2013-08-25T09:48:41Z</time>
      </trkpt>
      <trkpt lat="44.47586" lon="6.27166">
        <ele>859.0751953125</ele>
        <time>2013-08-25T09:48:53Z</time>
      </trkpt>
      <trkpt lat="44.47597" lon="6.27198">
        <ele>858.59448242188</ele>
        <time>2013-08-25T09:48:57Z</time>
      </trkpt>
      <trkpt lat="44.47615" lon="6.27231">
        <ele>856.671875</ele>
        <time>2013-08-25T09:49:01Z</time>
      </trkpt>
      <trkpt lat="44.47656" lon="6.27261">
        <ele>853.30737304688</ele>
        <time>2013-08-25T09:49:06Z</time>
      </trkpt>
      <trkpt lat="44.47688" lon="6.27266">
        <ele>849.94287109375</ele>
        <time>2013-08-25T09:49:09Z</time>
      </trkpt>
      <trkpt lat="44.477" lon="6.27264">
        <ele>849.46215820312</ele>
        <time>2013-08-25T09:49:10Z</time>
      </trkpt>
      <trkpt lat="44.47748" lon="6.27249">
        <ele>845.61694335938</ele>
        <time>2013-08-25T09:49:14Z</time>
      </trkpt>
      <trkpt lat="44.47788" lon="6.27236">
        <ele>843.21337890625</ele>
        <time>2013-08-25T09:49:17Z</time>
      </trkpt>
      <trkpt lat="44.4783" lon="6.27223">
        <ele>839.84887695312</ele>
        <time>2013-08-25T09:49:20Z</time>
      </trkpt>
      <trkpt lat="44.47876" lon="6.27209">
        <ele>836.96484375</ele>
        <time>2013-08-25T09:49:23Z</time>
      </trkpt>
      <trkpt lat="44.47922" lon="6.27194">
        <ele>832.63916015625</ele>
        <time>2013-08-25T09:49:26Z</time>
      </trkpt>
      <trkpt lat="44.47952" lon="6.27186">
        <ele>828.7939453125</ele>
        <time>2013-08-25T09:49:28Z</time>
      </trkpt>
      <trkpt lat="44.47994" lon="6.27175">
        <ele>824.94848632812</ele>
        <time>2013-08-25T09:49:31Z</time>
      </trkpt>
      <trkpt lat="44.48017" lon="6.27167">
        <ele>822.064453125</ele>
        <time>2013-08-25T09:49:33Z</time>
      </trkpt>
      <trkpt lat="44.48055" lon="6.27131">
        <ele>820.14184570312</ele>
        <time>2013-08-25T09:49:37Z</time>
      </trkpt>
      <trkpt lat="44.48065" lon="6.27063">
        <ele>816.77734375</ele>
        <time>2013-08-25T09:49:41Z</time>
      </trkpt>
      <trkpt lat="44.48077" lon="6.26979">
        <ele>811.48999023438</ele>
        <time>2013-08-25T09:49:46Z</time>
      </trkpt>
      <trkpt lat="44.4813" lon="6.26943">
        <ele>808.12548828125</ele>
        <time>2013-08-25T09:49:51Z</time>
      </trkpt>
      <trkpt lat="44.48142" lon="6.26945">
        <ele>807.64477539062</ele>
        <time>2013-08-25T09:49:52Z</time>
      </trkpt>
      <trkpt lat="44.48166" lon="6.2695">
        <ele>806.20263671875</ele>
        <time>2013-08-25T09:49:54Z</time>
      </trkpt>
      <trkpt lat="44.48296" lon="6.26985">
        <ele>804.7607421875</ele>
        <time>2013-08-25T09:50:06Z</time>
      </trkpt>
      <trkpt lat="44.48344" lon="6.27033">
        <ele>806.68334960938</ele>
        <time>2013-08-25T09:50:14Z</time>
      </trkpt>
      <trkpt lat="44.48362" lon="6.27089">
        <ele>810.0478515625</ele>
        <time>2013-08-25T09:50:26Z</time>
      </trkpt>
      <trkpt lat="44.48364" lon="6.27097">
        <ele>810.52856445312</ele>
        <time>2013-08-25T09:50:28Z</time>
      </trkpt>
      <trkpt lat="44.48367" lon="6.27114">
        <ele>812.45141601562</ele>
        <time>2013-08-25T09:50:32Z</time>
      </trkpt>
      <trkpt lat="44.48376" lon="6.27166">
        <ele>815.33544921875</ele>
        <time>2013-08-25T09:50:44Z</time>
      </trkpt>
      <trkpt lat="44.48385" lon="6.27218">
        <ele>818.69995117188</ele>
        <time>2013-08-25T09:50:57Z</time>
      </trkpt>
      <trkpt lat="44.48393" lon="6.27265">
        <ele>821.58374023438</ele>
        <time>2013-08-25T09:51:09Z</time>
      </trkpt>
      <trkpt lat="44.4839" lon="6.27323">
        <ele>824.94848632812</ele>
        <time>2013-08-25T09:51:23Z</time>
      </trkpt>
      <trkpt lat="44.48372" lon="6.27363">
        <ele>827.83227539062</ele>
        <time>2013-08-25T09:51:35Z</time>
      </trkpt>
      <trkpt lat="44.48351" lon="6.27405">
        <ele>831.197265625</ele>
        <time>2013-08-25T09:51:48Z</time>
      </trkpt>
      <trkpt lat="44.48368" lon="6.27432">
        <ele>833.11962890625</ele>
        <time>2013-08-25T09:51:57Z</time>
      </trkpt>
      <trkpt lat="44.48399" lon="6.27393">
        <ele>834.56176757812</ele>
        <time>2013-08-25T09:52:09Z</time>
      </trkpt>
      <trkpt lat="44.48422" lon="6.27352">
        <ele>837.92626953125</ele>
        <time>2013-08-25T09:52:21Z</time>
      </trkpt>
      <trkpt lat="44.48436" lon="6.27308">
        <ele>841.29077148438</ele>
        <time>2013-08-25T09:52:33Z</time>
      </trkpt>
      <trkpt lat="44.48453" lon="6.27262">
        <ele>844.65551757812</ele>
        <time>2013-08-25T09:52:46Z</time>
      </trkpt>
      <trkpt lat="44.48467" lon="6.27216">
        <ele>847.53955078125</ele>
        <time>2013-08-25T09:52:58Z</time>
      </trkpt>
      <trkpt lat="44.4848" lon="6.27172">
        <ele>850.42358398438</ele>
        <time>2013-08-25T09:53:10Z</time>
      </trkpt>
      <trkpt lat="44.48497" lon="6.27123">
        <ele>853.7880859375</ele>
        <time>2013-08-25T09:53:24Z</time>
      </trkpt>
      <trkpt lat="44.48512" lon="6.27078">
        <ele>857.15258789062</ele>
        <time>2013-08-25T09:53:37Z</time>
      </trkpt>
      <trkpt lat="44.48535" lon="6.27043">
        <ele>860.03662109375</ele>
        <time>2013-08-25T09:53:50Z</time>
      </trkpt>
      <trkpt lat="44.4855" lon="6.27027">
        <ele>862.43994140625</ele>
        <time>2013-08-25T09:53:57Z</time>
      </trkpt>
      <trkpt lat="44.48591" lon="6.27006">
        <ele>865.8046875</ele>
        <time>2013-08-25T09:54:13Z</time>
      </trkpt>
      <trkpt lat="44.48625" lon="6.27008">
        <ele>869.16918945312</ele>
        <time>2013-08-25T09:54:26Z</time>
      </trkpt>
      <trkpt lat="44.48659" lon="6.27018">
        <ele>872.05297851562</ele>
        <time>2013-08-25T09:54:39Z</time>
      </trkpt>
      <trkpt lat="44.48692" lon="6.2703">
        <ele>875.41748046875</ele>
        <time>2013-08-25T09:54:51Z</time>
      </trkpt>
      <trkpt lat="44.48726" lon="6.27047">
        <ele>878.3017578125</ele>
        <time>2013-08-25T09:55:04Z</time>
      </trkpt>
      <trkpt lat="44.4872" lon="6.27087">
        <ele>881.66625976562</ele>
        <time>2013-08-25T09:55:16Z</time>
      </trkpt>
      <trkpt lat="44.48689" lon="6.27104">
        <ele>884.55029296875</ele>
        <time>2013-08-25T09:55:28Z</time>
      </trkpt>
      <trkpt lat="44.48657" lon="6.27123">
        <ele>887.91479492188</ele>
        <time>2013-08-25T09:55:40Z</time>
      </trkpt>
      <trkpt lat="44.48631" lon="6.27152">
        <ele>890.79858398438</ele>
        <time>2013-08-25T09:55:52Z</time>
      </trkpt>
      <trkpt lat="44.48611" lon="6.27193">
        <ele>894.16357421875</ele>
        <time>2013-08-25T09:56:05Z</time>
      </trkpt>
      <trkpt lat="44.48602" lon="6.27239">
        <ele>897.04736328125</ele>
        <time>2013-08-25T09:56:18Z</time>
      </trkpt>
      <trkpt lat="44.48604" lon="6.2729">
        <ele>899.93139648438</ele>
        <time>2013-08-25T09:56:31Z</time>
      </trkpt>
      <trkpt lat="44.48615" lon="6.27343">
        <ele>903.2958984375</ele>
        <time>2013-08-25T09:56:45Z</time>
      </trkpt>
      <trkpt lat="44.48633" lon="6.27398">
        <ele>906.66040039062</ele>
        <time>2013-08-25T09:57:00Z</time>
      </trkpt>
      <trkpt lat="44.48653" lon="6.27468">
        <ele>909.54467773438</ele>
        <time>2013-08-25T09:57:18Z</time>
      </trkpt>
      <trkpt lat="44.48662" lon="6.27487">
        <ele>910.505859375</ele>
        <time>2013-08-25T09:57:23Z</time>
      </trkpt>
      <trkpt lat="44.4869" lon="6.27593">
        <ele>914.35107421875</ele>
        <time>2013-08-25T09:57:40Z</time>
      </trkpt>
      <trkpt lat="44.48818" lon="6.28088">
        <ele>937.42260742188</ele>
        <time>2013-08-25T09:59:36Z</time>
      </trkpt>
      <trkpt lat="44.48837" lon="6.28087">
        <ele>938.38403320312</ele>
        <time>2013-08-25T09:59:40Z</time>
      </trkpt>
      <trkpt lat="44.48882" lon="6.28079">
        <ele>941.26806640625</ele>
        <time>2013-08-25T09:59:55Z</time>
      </trkpt>
      <trkpt lat="44.48919" lon="6.28069">
        <ele>944.63256835938</ele>
        <time>2013-08-25T10:00:08Z</time>
      </trkpt>
      <trkpt lat="44.48951" lon="6.28058">
        <ele>947.5166015625</ele>
        <time>2013-08-25T10:00:20Z</time>
      </trkpt>
      <trkpt lat="44.48989" lon="6.28065">
        <ele>950.88110351562</ele>
        <time>2013-08-25T10:00:34Z</time>
      </trkpt>
      <trkpt lat="44.49021" lon="6.28076">
        <ele>953.76513671875</ele>
        <time>2013-08-25T10:00:47Z</time>
      </trkpt>
      <trkpt lat="44.49058" lon="6.2808">
        <ele>957.1298828125</ele>
        <time>2013-08-25T10:01:01Z</time>
      </trkpt>
      <trkpt lat="44.49084" lon="6.28095">
        <ele>960.013671875</ele>
        <time>2013-08-25T10:01:12Z</time>
      </trkpt>
      <trkpt lat="44.49115" lon="6.28112">
        <ele>963.37841796875</ele>
        <time>2013-08-25T10:01:25Z</time>
      </trkpt>
      <trkpt lat="44.49147" lon="6.28128">
        <ele>966.74291992188</ele>
        <time>2013-08-25T10:01:38Z</time>
      </trkpt>
      <trkpt lat="44.49181" lon="6.28138">
        <ele>970.107421875</ele>
        <time>2013-08-25T10:01:51Z</time>
      </trkpt>
      <trkpt lat="44.49221" lon="6.28125">
        <ele>972.99169921875</ele>
        <time>2013-08-25T10:02:07Z</time>
      </trkpt>
      <trkpt lat="44.4925" lon="6.28107">
        <ele>976.35620117188</ele>
        <time>2013-08-25T10:02:19Z</time>
      </trkpt>
      <trkpt lat="44.49281" lon="6.28081">
        <ele>979.23999023438</ele>
        <time>2013-08-25T10:02:33Z</time>
      </trkpt>
      <trkpt lat="44.49315" lon="6.28066">
        <ele>982.60473632812</ele>
        <time>2013-08-25T10:02:46Z</time>
      </trkpt>
      <trkpt lat="44.49355" lon="6.28065">
        <ele>985.96923828125</ele>
        <time>2013-08-25T10:03:00Z</time>
      </trkpt>
      <trkpt lat="44.49391" lon="6.28081">
        <ele>988.853515625</ele>
        <time>2013-08-25T10:03:14Z</time>
      </trkpt>
      <trkpt lat="44.49423" lon="6.28111">
        <ele>992.21801757812</ele>
        <time>2013-08-25T10:03:28Z</time>
      </trkpt>
      <trkpt lat="44.49448" lon="6.28146">
        <ele>995.58251953125</ele>
        <time>2013-08-25T10:03:41Z</time>
      </trkpt>
      <trkpt lat="44.49475" lon="6.28184">
        <ele>998.46630859375</ele>
        <time>2013-08-25T10:03:55Z</time>
      </trkpt>
      <trkpt lat="44.49493" lon="6.28209">
        <ele>1001.3503417969</ele>
        <time>2013-08-25T10:04:04Z</time>
      </trkpt>
      <trkpt lat="44.49507" lon="6.28256">
        <ele>1004.2346191406</ele>
        <time>2013-08-25T10:04:18Z</time>
      </trkpt>
      <trkpt lat="44.49509" lon="6.28296">
        <ele>1007.5991210938</ele>
        <time>2013-08-25T10:04:30Z</time>
      </trkpt>
      <trkpt lat="44.49512" lon="6.28352">
        <ele>1010.4829101562</ele>
        <time>2013-08-25T10:04:44Z</time>
      </trkpt>
      <trkpt lat="44.49514" lon="6.28401">
        <ele>1013.8474121094</ele>
        <time>2013-08-25T10:04:57Z</time>
      </trkpt>
      <trkpt lat="44.49526" lon="6.28444">
        <ele>1016.7314453125</ele>
        <time>2013-08-25T10:05:09Z</time>
      </trkpt>
      <trkpt lat="44.49555" lon="6.28483">
        <ele>1020.0961914062</ele>
        <time>2013-08-25T10:05:24Z</time>
      </trkpt>
      <trkpt lat="44.49592" lon="6.28493">
        <ele>1023.4609375</ele>
        <time>2013-08-25T10:05:38Z</time>
      </trkpt>
      <trkpt lat="44.49631" lon="6.28474">
        <ele>1026.8254394531</ele>
        <time>2013-08-25T10:05:54Z</time>
      </trkpt>
      <trkpt lat="44.49657" lon="6.28451">
        <ele>1030.1899414062</ele>
        <time>2013-08-25T10:06:06Z</time>
      </trkpt>
      <trkpt lat="44.49688" lon="6.28431">
        <ele>1033.0737304688</ele>
        <time>2013-08-25T10:06:19Z</time>
      </trkpt>
      <trkpt lat="44.49717" lon="6.28424">
        <ele>1035.9577636719</ele>
        <time>2013-08-25T10:06:30Z</time>
      </trkpt>
      <trkpt lat="44.49747" lon="6.28422">
        <ele>1039.3225097656</ele>
        <time>2013-08-25T10:06:42Z</time>
      </trkpt>
      <trkpt lat="44.49785" lon="6.28418">
        <ele>1042.2065429688</ele>
        <time>2013-08-25T10:06:57Z</time>
      </trkpt>
      <trkpt lat="44.49819" lon="6.28415">
        <ele>1045.5710449219</ele>
        <time>2013-08-25T10:07:10Z</time>
      </trkpt>
      <trkpt lat="44.49857" lon="6.2842">
        <ele>1048.4548339844</ele>
        <time>2013-08-25T10:07:24Z</time>
      </trkpt>
      <trkpt lat="44.49894" lon="6.28423">
        <ele>1051.8195800781</ele>
        <time>2013-08-25T10:07:38Z</time>
      </trkpt>
      <trkpt lat="44.49928" lon="6.28428">
        <ele>1055.1843261719</ele>
        <time>2013-08-25T10:07:51Z</time>
      </trkpt>
      <trkpt lat="44.49967" lon="6.28435">
        <ele>1058.068359375</ele>
        <time>2013-08-25T10:08:06Z</time>
      </trkpt>
      <trkpt lat="44.50005" lon="6.28445">
        <ele>1061.4328613281</ele>
        <time>2013-08-25T10:08:20Z</time>
      </trkpt>
      <trkpt lat="44.50039" lon="6.28453">
        <ele>1064.3166503906</ele>
        <time>2013-08-25T10:08:33Z</time>
      </trkpt>
      <trkpt lat="44.50073" lon="6.2846">
        <ele>1067.6811523438</ele>
        <time>2013-08-25T10:08:46Z</time>
      </trkpt>
      <trkpt lat="44.50108" lon="6.28467">
        <ele>1070.5654296875</ele>
        <time>2013-08-25T10:08:59Z</time>
      </trkpt>
      <trkpt lat="44.50139" lon="6.28475">
        <ele>1073.9299316406</ele>
        <time>2013-08-25T10:09:11Z</time>
      </trkpt>
      <trkpt lat="44.50176" lon="6.28483">
        <ele>1077.2946777344</ele>
        <time>2013-08-25T10:09:25Z</time>
      </trkpt>
      <trkpt lat="44.50207" lon="6.28488">
        <ele>1080.1784667969</ele>
        <time>2013-08-25T10:09:37Z</time>
      </trkpt>
      <trkpt lat="44.50244" lon="6.28487">
        <ele>1083.54296875</ele>
        <time>2013-08-25T10:09:51Z</time>
      </trkpt>
      <trkpt lat="44.50282" lon="6.28479">
        <ele>1086.9077148438</ele>
        <time>2013-08-25T10:10:06Z</time>
      </trkpt>
      <trkpt lat="44.50324" lon="6.28467">
        <ele>1090.2724609375</ele>
        <time>2013-08-25T10:10:22Z</time>
      </trkpt>
      <trkpt lat="44.5036" lon="6.28456">
        <ele>1093.6369628906</ele>
        <time>2013-08-25T10:10:37Z</time>
      </trkpt>
      <trkpt lat="44.50388" lon="6.28448">
        <ele>1096.5209960938</ele>
        <time>2013-08-25T10:10:48Z</time>
      </trkpt>
      <trkpt lat="44.5043" lon="6.28435">
        <ele>1099.8854980469</ele>
        <time>2013-08-25T10:11:05Z</time>
      </trkpt>
      <trkpt lat="44.50471" lon="6.28424">
        <ele>1102.76953125</ele>
        <time>2013-08-25T10:11:21Z</time>
      </trkpt>
      <trkpt lat="44.50524" lon="6.28401">
        <ele>1106.1340332031</ele>
        <time>2013-08-25T10:11:40Z</time>
      </trkpt>
      <trkpt lat="44.5059" lon="6.28377">
        <ele>1108.0568847656</ele>
        <time>2013-08-25T10:11:59Z</time>
      </trkpt>
      <trkpt lat="44.50668" lon="6.28387">
        <ele>1108.0568847656</ele>
        <time>2013-08-25T10:12:15Z</time>
      </trkpt>
      <trkpt lat="44.50701" lon="6.28406">
        <ele>1106.6147460938</ele>
        <time>2013-08-25T10:12:22Z</time>
      </trkpt>
      <trkpt lat="44.5073" lon="6.28421">
        <ele>1104.6921386719</ele>
        <time>2013-08-25T10:12:32Z</time>
      </trkpt>
      <trkpt lat="44.5073" lon="6.28423">
        <ele>1104.6921386719</ele>
        <time>2013-08-25T10:13:22Z</time>
      </trkpt>
      <trkpt lat="44.50728" lon="6.28427">
        <ele>1105.6535644531</ele>
        <time>2013-08-25T10:15:55Z</time>
      </trkpt>
      <trkpt lat="44.50731" lon="6.2844">
        <ele>1105.6535644531</ele>
        <time>2013-08-25T10:16:01Z</time>
      </trkpt>
      <trkpt lat="44.50751" lon="6.28468">
        <ele>1105.1728515625</ele>
        <time>2013-08-25T10:16:07Z</time>
      </trkpt>
      <trkpt lat="44.50777" lon="6.28525">
        <ele>1101.3276367188</ele>
        <time>2013-08-25T10:16:14Z</time>
      </trkpt>
      <trkpt lat="44.50793" lon="6.28568">
        <ele>1098.443359375</ele>
        <time>2013-08-25T10:16:18Z</time>
      </trkpt>
      <trkpt lat="44.50806" lon="6.28605">
        <ele>1097.0014648438</ele>
        <time>2013-08-25T10:16:21Z</time>
      </trkpt>
      <trkpt lat="44.50833" lon="6.28727">
        <ele>1093.6369628906</ele>
        <time>2013-08-25T10:16:29Z</time>
      </trkpt>
      <trkpt lat="44.50844" lon="6.28795">
        <ele>1089.7917480469</ele>
        <time>2013-08-25T10:16:33Z</time>
      </trkpt>
      <trkpt lat="44.50856" lon="6.28864">
        <ele>1086.9077148438</ele>
        <time>2013-08-25T10:16:37Z</time>
      </trkpt>
      <trkpt lat="44.50858" lon="6.28883">
        <ele>1086.9077148438</ele>
        <time>2013-08-25T10:16:38Z</time>
      </trkpt>
      <trkpt lat="44.50861" lon="6.28901">
        <ele>1085.4658203125</ele>
        <time>2013-08-25T10:16:39Z</time>
      </trkpt>
      <trkpt lat="44.50854" lon="6.28987">
        <ele>1081.1398925781</ele>
        <time>2013-08-25T10:16:44Z</time>
      </trkpt>
      <trkpt lat="44.50829" lon="6.2903">
        <ele>1079.2170410156</ele>
        <time>2013-08-25T10:16:47Z</time>
      </trkpt>
      <trkpt lat="44.50776" lon="6.2909">
        <ele>1074.8913574219</ele>
        <time>2013-08-25T10:16:52Z</time>
      </trkpt>
      <trkpt lat="44.50734" lon="6.29138">
        <ele>1070.5654296875</ele>
        <time>2013-08-25T10:16:56Z</time>
      </trkpt>
      <trkpt lat="44.50671" lon="6.29209">
        <ele>1067.2006835938</ele>
        <time>2013-08-25T10:17:02Z</time>
      </trkpt>
      <trkpt lat="44.50631" lon="6.29256">
        <ele>1063.8359375</ele>
        <time>2013-08-25T10:17:06Z</time>
      </trkpt>
      <trkpt lat="44.50596" lon="6.2931">
        <ele>1061.4328613281</ele>
        <time>2013-08-25T10:17:10Z</time>
      </trkpt>
      <trkpt lat="44.50564" lon="6.29334">
        <ele>1059.9907226562</ele>
        <time>2013-08-25T10:17:13Z</time>
      </trkpt>
      <trkpt lat="44.50553" lon="6.29338">
        <ele>1059.0295410156</ele>
        <time>2013-08-25T10:17:14Z</time>
      </trkpt>
      <trkpt lat="44.50509" lon="6.29348">
        <ele>1056.6262207031</ele>
        <time>2013-08-25T10:17:18Z</time>
      </trkpt>
      <trkpt lat="44.50499" lon="6.29352">
        <ele>1056.6262207031</ele>
        <time>2013-08-25T10:17:19Z</time>
      </trkpt>
      <trkpt lat="44.50473" lon="6.29374">
        <ele>1054.7036132812</ele>
        <time>2013-08-25T10:17:22Z</time>
      </trkpt>
      <trkpt lat="44.50465" lon="6.2943">
        <ele>1050.8581542969</ele>
        <time>2013-08-25T10:17:26Z</time>
      </trkpt>
      <trkpt lat="44.5047" lon="6.29445">
        <ele>1050.8581542969</ele>
        <time>2013-08-25T10:17:27Z</time>
      </trkpt>
      <trkpt lat="44.50517" lon="6.29477">
        <ele>1048.935546875</ele>
        <time>2013-08-25T10:17:32Z</time>
      </trkpt>
      <trkpt lat="44.50548" lon="6.29457">
        <ele>1047.0129394531</ele>
        <time>2013-08-25T10:17:35Z</time>
      </trkpt>
      <trkpt lat="44.50631" lon="6.29378">
        <ele>1043.6484375</ele>
        <time>2013-08-25T10:17:43Z</time>
      </trkpt>
      <trkpt lat="44.50664" lon="6.29348">
        <ele>1039.8032226562</ele>
        <time>2013-08-25T10:17:46Z</time>
      </trkpt>
      <trkpt lat="44.50697" lon="6.29317">
        <ele>1035.9577636719</ele>
        <time>2013-08-25T10:17:49Z</time>
      </trkpt>
      <trkpt lat="44.50744" lon="6.29275">
        <ele>1032.1125488281</ele>
        <time>2013-08-25T10:17:53Z</time>
      </trkpt>
      <trkpt lat="44.50783" lon="6.29251">
        <ele>1028.748046875</ele>
        <time>2013-08-25T10:17:56Z</time>
      </trkpt>
      <trkpt lat="44.5081" lon="6.29237">
        <ele>1025.3833007812</ele>
        <time>2013-08-25T10:17:58Z</time>
      </trkpt>
      <trkpt lat="44.50851" lon="6.29214">
        <ele>1022.4995117188</ele>
        <time>2013-08-25T10:18:01Z</time>
      </trkpt>
      <trkpt lat="44.50894" lon="6.29192">
        <ele>1019.134765625</ele>
        <time>2013-08-25T10:18:04Z</time>
      </trkpt>
      <trkpt lat="44.50908" lon="6.29184">
        <ele>1019.134765625</ele>
        <time>2013-08-25T10:18:05Z</time>
      </trkpt>
      <trkpt lat="44.50938" lon="6.2917">
        <ele>1014.8088378906</ele>
        <time>2013-08-25T10:18:07Z</time>
      </trkpt>
      <trkpt lat="44.50952" lon="6.29162">
        <ele>1014.8088378906</ele>
        <time>2013-08-25T10:18:08Z</time>
      </trkpt>
      <trkpt lat="44.50981" lon="6.29146">
        <ele>1011.9250488281</ele>
        <time>2013-08-25T10:18:10Z</time>
      </trkpt>
      <trkpt lat="44.51025" lon="6.29119">
        <ele>1007.5991210938</ele>
        <time>2013-08-25T10:18:13Z</time>
      </trkpt>
      <trkpt lat="44.51063" lon="6.29082">
        <ele>1003.7536621094</ele>
        <time>2013-08-25T10:18:16Z</time>
      </trkpt>
      <trkpt lat="44.51098" lon="6.2901">
        <ele>998.46630859375</ele>
        <time>2013-08-25T10:18:20Z</time>
      </trkpt>
      <trkpt lat="44.51108" lon="6.28947">
        <ele>995.58251953125</ele>
        <time>2013-08-25T10:18:23Z</time>
      </trkpt>
      <trkpt lat="44.51105" lon="6.28905">
        <ele>992.21801757812</ele>
        <time>2013-08-25T10:18:25Z</time>
      </trkpt>
      <trkpt lat="44.51101" lon="6.28884">
        <ele>990.29541015625</ele>
        <time>2013-08-25T10:18:26Z</time>
      </trkpt>
      <trkpt lat="44.51083" lon="6.28807">
        <ele>983.56591796875</ele>
        <time>2013-08-25T10:18:30Z</time>
      </trkpt>
      <trkpt lat="44.51083" lon="6.28743">
        <ele>977.31762695312</ele>
        <time>2013-08-25T10:18:34Z</time>
      </trkpt>
      <trkpt lat="44.51105" lon="6.28705">
        <ele>975.87548828125</ele>
        <time>2013-08-25T10:18:37Z</time>
      </trkpt>
      <trkpt lat="44.51164" lon="6.28684">
        <ele>973.47241210938</ele>
        <time>2013-08-25T10:18:42Z</time>
      </trkpt>
      <trkpt lat="44.51198" lon="6.28638">
        <ele>970.107421875</ele>
        <time>2013-08-25T10:18:46Z</time>
      </trkpt>
      <trkpt lat="44.51205" lon="6.28606">
        <ele>968.18481445312</ele>
        <time>2013-08-25T10:18:48Z</time>
      </trkpt>
      <trkpt lat="44.51215" lon="6.28532">
        <ele>963.37841796875</ele>
        <time>2013-08-25T10:18:52Z</time>
      </trkpt>
      <trkpt lat="44.51226" lon="6.28475">
        <ele>960.013671875</ele>
        <time>2013-08-25T10:18:55Z</time>
      </trkpt>
      <trkpt lat="44.51251" lon="6.28403">
        <ele>955.20703125</ele>
        <time>2013-08-25T10:18:59Z</time>
      </trkpt>
      <trkpt lat="44.51258" lon="6.28386">
        <ele>955.20703125</ele>
        <time>2013-08-25T10:19:00Z</time>
      </trkpt>
      <trkpt lat="44.51267" lon="6.28351">
        <ele>952.8037109375</ele>
        <time>2013-08-25T10:19:02Z</time>
      </trkpt>
      <trkpt lat="44.51269" lon="6.28313">
        <ele>949.919921875</ele>
        <time>2013-08-25T10:19:04Z</time>
      </trkpt>
      <trkpt lat="44.51266" lon="6.28275">
        <ele>945.59399414062</ele>
        <time>2013-08-25T10:19:06Z</time>
      </trkpt>
      <trkpt lat="44.51261" lon="6.28243">
        <ele>942.2294921875</ele>
        <time>2013-08-25T10:19:08Z</time>
      </trkpt>
      <trkpt lat="44.51283" lon="6.28171">
        <ele>939.34521484375</ele>
        <time>2013-08-25T10:19:14Z</time>
      </trkpt>
      <trkpt lat="44.51313" lon="6.28168">
        <ele>937.42260742188</ele>
        <time>2013-08-25T10:19:17Z</time>
      </trkpt>
      <trkpt lat="44.51344" lon="6.28209">
        <ele>936.46142578125</ele>
        <time>2013-08-25T10:19:21Z</time>
      </trkpt>
      <trkpt lat="44.51366" lon="6.28268">
        <ele>934.53881835938</ele>
        <time>2013-08-25T10:19:25Z</time>
      </trkpt>
      <trkpt lat="44.51387" lon="6.28328">
        <ele>931.65478515625</ele>
        <time>2013-08-25T10:19:29Z</time>
      </trkpt>
      <trkpt lat="44.51412" lon="6.28387">
        <ele>929.25146484375</ele>
        <time>2013-08-25T10:19:33Z</time>
      </trkpt>
      <trkpt lat="44.51422" lon="6.28475">
        <ele>925.40625</ele>
        <time>2013-08-25T10:19:38Z</time>
      </trkpt>
      <trkpt lat="44.51423" lon="6.2853">
        <ele>923.48364257812</ele>
        <time>2013-08-25T10:19:41Z</time>
      </trkpt>
      <trkpt lat="44.51421" lon="6.28585">
        <ele>920.599609375</ele>
        <time>2013-08-25T10:19:44Z</time>
      </trkpt>
      <trkpt lat="44.51409" lon="6.28657">
        <ele>916.75439453125</ele>
        <time>2013-08-25T10:19:48Z</time>
      </trkpt>
      <trkpt lat="44.51406" lon="6.28675">
        <ele>917.23510742188</ele>
        <time>2013-08-25T10:19:49Z</time>
      </trkpt>
      <trkpt lat="44.51392" lon="6.28748">
        <ele>914.35107421875</ele>
        <time>2013-08-25T10:19:53Z</time>
      </trkpt>
      <trkpt lat="44.51401" lon="6.28843">
        <ele>909.54467773438</ele>
        <time>2013-08-25T10:19:58Z</time>
      </trkpt>
      <trkpt lat="44.51409" lon="6.28881">
        <ele>908.10278320312</ele>
        <time>2013-08-25T10:20:00Z</time>
      </trkpt>
      <trkpt lat="44.51434" lon="6.28973">
        <ele>905.69921875</ele>
        <time>2013-08-25T10:20:05Z</time>
      </trkpt>
      <trkpt lat="44.51455" lon="6.29023">
        <ele>902.33447265625</ele>
        <time>2013-08-25T10:20:08Z</time>
      </trkpt>
      <trkpt lat="44.51463" lon="6.29038">
        <ele>902.33447265625</ele>
        <time>2013-08-25T10:20:09Z</time>
      </trkpt>
      <trkpt lat="44.5151" lon="6.29105">
        <ele>899.45068359375</ele>
        <time>2013-08-25T10:20:14Z</time>
      </trkpt>
      <trkpt lat="44.5153" lon="6.29129">
        <ele>898.0087890625</ele>
        <time>2013-08-25T10:20:16Z</time>
      </trkpt>
      <trkpt lat="44.51573" lon="6.29166">
        <ele>894.64404296875</ele>
        <time>2013-08-25T10:20:20Z</time>
      </trkpt>
      <trkpt lat="44.51584" lon="6.29174">
        <ele>894.64404296875</ele>
        <time>2013-08-25T10:20:21Z</time>
      </trkpt>
      <trkpt lat="44.51677" lon="6.29217">
        <ele>888.3955078125</ele>
        <time>2013-08-25T10:20:29Z</time>
      </trkpt>
      <trkpt lat="44.51713" lon="6.2922">
        <ele>885.9921875</ele>
        <time>2013-08-25T10:20:32Z</time>
      </trkpt>
      <trkpt lat="44.51795" lon="6.29201">
        <ele>882.62768554688</ele>
        <time>2013-08-25T10:20:39Z</time>
      </trkpt>
      <trkpt lat="44.51818" lon="6.2919">
        <ele>881.18579101562</ele>
        <time>2013-08-25T10:20:41Z</time>
      </trkpt>
      <trkpt lat="44.51852" lon="6.29174">
        <ele>879.74365234375</ele>
        <time>2013-08-25T10:20:44Z</time>
      </trkpt>
      <trkpt lat="44.51908" lon="6.29148">
        <ele>876.37915039062</ele>
        <time>2013-08-25T10:20:49Z</time>
      </trkpt>
      <trkpt lat="44.51963" lon="6.29123">
        <ele>873.01440429688</ele>
        <time>2013-08-25T10:20:54Z</time>
      </trkpt>
      <trkpt lat="44.52027" lon="6.29093">
        <ele>869.16918945312</ele>
        <time>2013-08-25T10:21:00Z</time>
      </trkpt>
      <trkpt lat="44.52081" lon="6.29068">
        <ele>866.28515625</ele>
        <time>2013-08-25T10:21:05Z</time>
      </trkpt>
      <trkpt lat="44.52134" lon="6.29044">
        <ele>862.43994140625</ele>
        <time>2013-08-25T10:21:10Z</time>
      </trkpt>
      <trkpt lat="44.52177" lon="6.29025">
        <ele>859.0751953125</ele>
        <time>2013-08-25T10:21:14Z</time>
      </trkpt>
      <trkpt lat="44.52222" lon="6.29007">
        <ele>856.19116210938</ele>
        <time>2013-08-25T10:21:18Z</time>
      </trkpt>
      <trkpt lat="44.52269" lon="6.28994">
        <ele>852.82666015625</ele>
        <time>2013-08-25T10:21:22Z</time>
      </trkpt>
      <trkpt lat="44.52281" lon="6.28992">
        <ele>852.82666015625</ele>
        <time>2013-08-25T10:21:23Z</time>
      </trkpt>
      <trkpt lat="44.52343" lon="6.28989">
        <ele>849.46215820312</ele>
        <time>2013-08-25T10:21:28Z</time>
      </trkpt>
      <trkpt lat="44.52392" lon="6.2899">
        <ele>845.61694335938</ele>
        <time>2013-08-25T10:21:32Z</time>
      </trkpt>
      <trkpt lat="44.52465" lon="6.29003">
        <ele>842.25219726562</ele>
        <time>2013-08-25T10:21:38Z</time>
      </trkpt>
      <trkpt lat="44.52525" lon="6.29014">
        <ele>838.40698242188</ele>
        <time>2013-08-25T10:21:43Z</time>
      </trkpt>
      <trkpt lat="44.52605" lon="6.29027">
        <ele>836.00366210938</ele>
        <time>2013-08-25T10:21:50Z</time>
      </trkpt>
      <trkpt lat="44.52659" lon="6.29035">
        <ele>833.11962890625</ele>
        <time>2013-08-25T10:21:55Z</time>
      </trkpt>
      <trkpt lat="44.52712" lon="6.29044">
        <ele>829.75512695312</ele>
        <time>2013-08-25T10:22:00Z</time>
      </trkpt>
      <trkpt lat="44.52754" lon="6.2905">
        <ele>828.31323242188</ele>
        <time>2013-08-25T10:22:04Z</time>
      </trkpt>
      <trkpt lat="44.52848" lon="6.29064">
        <ele>824.94848632812</ele>
        <time>2013-08-25T10:22:13Z</time>
      </trkpt>
      <trkpt lat="44.52868" lon="6.29064">
        <ele>823.50659179688</ele>
        <time>2013-08-25T10:22:15Z</time>
      </trkpt>
      <trkpt lat="44.52918" lon="6.29055">
        <ele>821.58374023438</ele>
        <time>2013-08-25T10:22:20Z</time>
      </trkpt>
      <trkpt lat="44.52955" lon="6.29038">
        <ele>819.66137695312</ele>
        <time>2013-08-25T10:22:24Z</time>
      </trkpt>
      <trkpt lat="44.53076" lon="6.2897">
        <ele>818.69995117188</ele>
        <time>2013-08-25T10:22:38Z</time>
      </trkpt>
      <trkpt lat="44.53108" lon="6.28932">
        <ele>819.1806640625</ele>
        <time>2013-08-25T10:22:44Z</time>
      </trkpt>
      <trkpt lat="44.53143" lon="6.2883">
        <ele>821.10327148438</ele>
        <time>2013-08-25T10:22:59Z</time>
      </trkpt>
      <trkpt lat="44.53147" lon="6.28818">
        <ele>822.064453125</ele>
        <time>2013-08-25T10:23:01Z</time>
      </trkpt>
      <trkpt lat="44.53165" lon="6.28734">
        <ele>823.50659179688</ele>
        <time>2013-08-25T10:23:17Z</time>
      </trkpt>
      <trkpt lat="44.53156" lon="6.28645">
        <ele>824.94848632812</ele>
        <time>2013-08-25T10:23:31Z</time>
      </trkpt>
      <trkpt lat="44.53186" lon="6.28551">
        <ele>824.94848632812</ele>
        <time>2013-08-25T10:23:46Z</time>
      </trkpt>
      <trkpt lat="44.53215" lon="6.28519">
        <ele>825.42895507812</ele>
        <time>2013-08-25T10:23:53Z</time>
      </trkpt>
      <trkpt lat="44.5328" lon="6.28501">
        <ele>827.35180664062</ele>
        <time>2013-08-25T10:24:06Z</time>
      </trkpt>
      <trkpt lat="44.53298" lon="6.28492">
        <ele>828.31323242188</ele>
        <time>2013-08-25T10:24:10Z</time>
      </trkpt>
      <trkpt lat="44.53377" lon="6.28428">
        <ele>831.677734375</ele>
        <time>2013-08-25T10:24:30Z</time>
      </trkpt>
      <trkpt lat="44.53429" lon="6.28391">
        <ele>834.56176757812</ele>
        <time>2013-08-25T10:24:43Z</time>
      </trkpt>
      <trkpt lat="44.53514" lon="6.28293">
        <ele>836.484375</ele>
        <time>2013-08-25T10:25:06Z</time>
      </trkpt>
      <trkpt lat="44.53632" lon="6.28151">
        <ele>838.8876953125</ele>
        <time>2013-08-25T10:25:35Z</time>
      </trkpt>
      <trkpt lat="44.53725" lon="6.28072">
        <ele>841.771484375</ele>
        <time>2013-08-25T10:25:56Z</time>
      </trkpt>
      <trkpt lat="44.53755" lon="6.28045">
        <ele>842.73291015625</ele>
        <time>2013-08-25T10:26:03Z</time>
      </trkpt>
      <trkpt lat="44.53835" lon="6.28031">
        <ele>843.69409179688</ele>
        <time>2013-08-25T10:26:19Z</time>
      </trkpt>
      <trkpt lat="44.53935" lon="6.28032">
        <ele>846.09765625</ele>
        <time>2013-08-25T10:26:41Z</time>
      </trkpt>
      <trkpt lat="44.53948" lon="6.28032">
        <ele>847.53955078125</ele>
        <time>2013-08-25T10:26:44Z</time>
      </trkpt>
      <trkpt lat="44.54027" lon="6.2802">
        <ele>849.46215820312</ele>
        <time>2013-08-25T10:27:03Z</time>
      </trkpt>
      <trkpt lat="44.54031" lon="6.28019">
        <ele>849.46215820312</ele>
        <time>2013-08-25T10:27:04Z</time>
      </trkpt>
      <trkpt lat="44.54047" lon="6.2801">
        <ele>849.94287109375</ele>
        <time>2013-08-25T10:27:08Z</time>
      </trkpt>
      <trkpt lat="44.54065" lon="6.27977">
        <ele>852.34594726562</ele>
        <time>2013-08-25T10:27:15Z</time>
      </trkpt>
      <trkpt lat="44.54068" lon="6.27946">
        <ele>852.82666015625</ele>
        <time>2013-08-25T10:27:20Z</time>
      </trkpt>
      <trkpt lat="44.54064" lon="6.27899">
        <ele>851.86547851562</ele>
        <time>2013-08-25T10:27:27Z</time>
      </trkpt>
      <trkpt lat="44.54076" lon="6.27844">
        <ele>851.384765625</ele>
        <time>2013-08-25T10:27:34Z</time>
      </trkpt>
      <trkpt lat="44.54149" lon="6.27713">
        <ele>853.7880859375</ele>
        <time>2013-08-25T10:27:54Z</time>
      </trkpt>
      <trkpt lat="44.54218" lon="6.27614">
        <ele>855.22998046875</ele>
        <time>2013-08-25T10:28:12Z</time>
      </trkpt>
      <trkpt lat="44.54259" lon="6.27572">
        <ele>858.11401367188</ele>
        <time>2013-08-25T10:28:27Z</time>
      </trkpt>
      <trkpt lat="44.54263" lon="6.27533">
        <ele>860.03662109375</ele>
        <time>2013-08-25T10:28:38Z</time>
      </trkpt>
      <trkpt lat="44.54261" lon="6.27529">
        <ele>859.55590820312</ele>
        <time>2013-08-25T10:28:39Z</time>
      </trkpt>
      <trkpt lat="44.54273" lon="6.27514">
        <ele>859.55590820312</ele>
        <time>2013-08-25T10:28:44Z</time>
      </trkpt>
      <trkpt lat="44.54343" lon="6.2745">
        <ele>860.998046875</ele>
        <time>2013-08-25T10:29:02Z</time>
      </trkpt>
      <trkpt lat="44.54361" lon="6.27429">
        <ele>862.43994140625</ele>
        <time>2013-08-25T10:29:07Z</time>
      </trkpt>
      <trkpt lat="44.54396" lon="6.27391">
        <ele>862.43994140625</ele>
        <time>2013-08-25T10:29:17Z</time>
      </trkpt>
      <trkpt lat="44.54404" lon="6.2738">
        <ele>861.95947265625</ele>
        <time>2013-08-25T10:29:20Z</time>
      </trkpt>
      <trkpt lat="44.54426" lon="6.27358">
        <ele>861.95947265625</ele>
        <time>2013-08-25T10:29:26Z</time>
      </trkpt>
      <trkpt lat="44.54489" lon="6.27281">
        <ele>862.92065429688</ele>
        <time>2013-08-25T10:29:43Z</time>
      </trkpt>
      <trkpt lat="44.54518" lon="6.27235">
        <ele>862.92065429688</ele>
        <time>2013-08-25T10:29:52Z</time>
      </trkpt>
      <trkpt lat="44.54584" lon="6.27105">
        <ele>864.36254882812</ele>
        <time>2013-08-25T10:30:13Z</time>
      </trkpt>
      <trkpt lat="44.54628" lon="6.27004">
        <ele>861.95947265625</ele>
        <time>2013-08-25T10:30:29Z</time>
      </trkpt>
      <trkpt lat="44.5465" lon="6.26986">
        <ele>860.51733398438</ele>
        <time>2013-08-25T10:30:36Z</time>
      </trkpt>
      <trkpt lat="44.54658" lon="6.26991">
        <ele>860.03662109375</ele>
        <time>2013-08-25T10:30:39Z</time>
      </trkpt>
      <trkpt lat="44.5466" lon="6.27024">
        <ele>860.03662109375</ele>
        <time>2013-08-25T10:30:45Z</time>
      </trkpt>
      <trkpt lat="44.54638" lon="6.27081">
        <ele>860.51733398438</ele>
        <time>2013-08-25T10:30:53Z</time>
      </trkpt>
      <trkpt lat="44.54625" lon="6.27163">
        <ele>861.47875976562</ele>
        <time>2013-08-25T10:31:03Z</time>
      </trkpt>
      <trkpt lat="44.5462" lon="6.27185">
        <ele>861.47875976562</ele>
        <time>2013-08-25T10:31:06Z</time>
      </trkpt>
      <trkpt lat="44.54634" lon="6.27217">
        <ele>863.4013671875</ele>
        <time>2013-08-25T10:31:13Z</time>
      </trkpt>
      <trkpt lat="44.54659" lon="6.27187">
        <ele>862.92065429688</ele>
        <time>2013-08-25T10:31:19Z</time>
      </trkpt>
      <trkpt lat="44.5473" lon="6.27027">
        <ele>861.95947265625</ele>
        <time>2013-08-25T10:31:38Z</time>
      </trkpt>
      <trkpt lat="44.54757" lon="6.26956">
        <ele>860.998046875</ele>
        <time>2013-08-25T10:31:45Z</time>
      </trkpt>
      <trkpt lat="44.54819" lon="6.26774">
        <ele>858.59448242188</ele>
        <time>2013-08-25T10:32:02Z</time>
      </trkpt>
      <trkpt lat="44.54925" lon="6.26466">
        <ele>857.15258789062</ele>
        <time>2013-08-25T10:32:33Z</time>
      </trkpt>
      <trkpt lat="44.54989" lon="6.2628">
        <ele>858.59448242188</ele>
        <time>2013-08-25T10:32:55Z</time>
      </trkpt>
      <trkpt lat="44.55068" lon="6.26048">
        <ele>859.0751953125</ele>
        <time>2013-08-25T10:33:25Z</time>
      </trkpt>
      <trkpt lat="44.55126" lon="6.25876">
        <ele>861.95947265625</ele>
        <time>2013-08-25T10:33:50Z</time>
      </trkpt>
      <trkpt lat="44.55152" lon="6.25747">
        <ele>862.43994140625</ele>
        <time>2013-08-25T10:34:09Z</time>
      </trkpt>
      <trkpt lat="44.5516" lon="6.25586">
        <ele>861.95947265625</ele>
        <time>2013-08-25T10:34:30Z</time>
      </trkpt>
      <trkpt lat="44.55167" lon="6.2543">
        <ele>861.47875976562</ele>
        <time>2013-08-25T10:34:50Z</time>
      </trkpt>
      <trkpt lat="44.55177" lon="6.25226">
        <ele>860.03662109375</ele>
        <time>2013-08-25T10:35:14Z</time>
      </trkpt>
      <trkpt lat="44.55184" lon="6.2506">
        <ele>858.11401367188</ele>
        <time>2013-08-25T10:35:33Z</time>
      </trkpt>
      <trkpt lat="44.55186" lon="6.25026">
        <ele>857.63330078125</ele>
        <time>2013-08-25T10:35:37Z</time>
      </trkpt>
      <trkpt lat="44.55191" lon="6.25002">
        <ele>856.671875</ele>
        <time>2013-08-25T10:35:40Z</time>
      </trkpt>
      <trkpt lat="44.55203" lon="6.24989">
        <ele>854.74926757812</ele>
        <time>2013-08-25T10:35:43Z</time>
      </trkpt>
      <trkpt lat="44.55216" lon="6.24994">
        <ele>854.26879882812</ele>
        <time>2013-08-25T10:35:47Z</time>
      </trkpt>
      <trkpt lat="44.55255" lon="6.25006">
        <ele>857.63330078125</ele>
        <time>2013-08-25T10:35:59Z</time>
      </trkpt>
      <trkpt lat="44.55283" lon="6.2496">
        <ele>859.0751953125</ele>
        <time>2013-08-25T10:36:10Z</time>
      </trkpt>
      <trkpt lat="44.55317" lon="6.24874">
        <ele>858.11401367188</ele>
        <time>2013-08-25T10:36:26Z</time>
      </trkpt>
      <trkpt lat="44.55341" lon="6.24865">
        <ele>858.59448242188</ele>
        <time>2013-08-25T10:36:32Z</time>
      </trkpt>
      <trkpt lat="44.55365" lon="6.24875">
        <ele>860.998046875</ele>
        <time>2013-08-25T10:36:38Z</time>
      </trkpt>
      <trkpt lat="44.5539" lon="6.24884">
        <ele>864.36254882812</ele>
        <time>2013-08-25T10:36:45Z</time>
      </trkpt>
      <trkpt lat="44.5542" lon="6.24877">
        <ele>865.8046875</ele>
        <time>2013-08-25T10:36:56Z</time>
      </trkpt>
      <trkpt lat="44.55433" lon="6.24804">
        <ele>864.36254882812</ele>
        <time>2013-08-25T10:37:09Z</time>
      </trkpt>
      <trkpt lat="44.55458" lon="6.24688">
        <ele>861.95947265625</ele>
        <time>2013-08-25T10:37:28Z</time>
      </trkpt>
      <trkpt lat="44.55461" lon="6.2468">
        <ele>858.11401367188</ele>
        <time>2013-08-25T10:37:36Z</time>
      </trkpt>
      <trkpt lat="44.55461" lon="6.2468">
        <ele>861.47875976562</ele>
        <time>2013-08-25T10:37:37Z</time>
      </trkpt>
      <trkpt lat="44.55464" lon="6.24682">
        <ele>860.998046875</ele>
        <time>2013-08-25T10:37:51Z</time>
      </trkpt>
      <trkpt lat="44.55465" lon="6.24683">
        <ele>860.51733398438</ele>
        <time>2013-08-25T10:38:53Z</time>
      </trkpt>
      <trkpt lat="44.55465" lon="6.24683">
        <ele>860.998046875</ele>
        <time>2013-08-25T10:39:02Z</time>
      </trkpt>
    </trkseg>
  </trk>
</gpx>